[[{"header":{"parameterUnit":"m.s-1","parameterCategory":1,"la1":30.6,"la2":28.766,"lo1":-90.7593,"lo2":-88.6598,"dy":0.0162,"dx":0.0183,"nx":116,"ny":114,"refTime":"2024-07-04T06:00:00:Z","depth":0,"parameterNumber":2,"parameterNumberName":"U-component_of_WINDS"},"data":[0.0,0.0,0.0,0.0,0.0,0.0,0.0,0.0,0.0,0.0,0.0,0.0,0.0,0.0,0.0,0.0,0.0,0.0,0.0,0.0,0.0,0.0,0.0,0.0,0.0,0.0,0.0,0.0,0.0,0.0,0.0,0.0,0.0,0.0,0.0,0.0,0.0,0.0,0.0,0.0,0.0,0.0,0.0,0.0,0.0,0.0,0.0,0.0,0.0,0.0,0.0,0.0,0.0,0.0,0.0,0.0,0.0,0.0,0.0,0.0,0.0,0.0,0.0,0.0,0.0,0.0,0.0,0.0,0.0,0.0,0.0,0.0,0.0,0.0,0.0,0.0,0.0,0.0,0.0,0.0,0.0,0.0,0.0,0.0,0.0,0.0,0.0,0.0,0.0,0.0,0.0,0.0,0.0,0.0,0.0,0.0,0.0,0.0,0.0,0.0,0.0,0.0,0.0,0.0,0.0,0.0,0.0,0.0,0.0,0.0,0.0,0.0,0.0,0.0,0.0,0.0,0.0,0.0,0.0,0.0,0.0,0.0,0.0,0.0,0.0,0.0,0.0,0.0,0.0,0.0,0.0,0.0,0.0,0.0,0.0,0.0,0.0,0.0,0.0,0.0,0.0,0.0,0.0,0.0,0.0,0.0,0.0,0.0,0.0,0.0,0.0,0.0,0.0,0.0,0.0,0.0,0.0,0.0,0.0,0.0,0.0,0.0,0.0,0.0,0.0,0.0,0.0,0.0,0.0,0.0,0.0,0.0,0.0,0.0,0.0,0.0,0.0,0.0,0.0,0.0,0.0,0.0,0.0,0.0,0.0,0.0,0.0,0.0,0.0,0.0,0.0,0.0,0.0,0.0,0.0,0.0,0.0,0.0,0.0,0.0,0.0,0.0,0.0,0.0,0.0,0.0,0.0,0.0,0.0,0.0,0.0,0.0,0.0,0.0,0.0,0.0,0.0,0.0,0.0,0.0,0.0,0.0,0.0,0.0,0.0,0.0,0.0,0.0,0.0,0.0,0.0,0.0,0.0,0.0,0.0,0.0,0.0,0.0,0.0,0.0,0.0,0.0,0.0,0.0,0.0,0.0,0.0,0.0,0.0,0.0,0.0,0.0,0.0,0.0,0.0,0.0,0.0,0.0,0.0,0.0,0.0,0.0,0.0,0.0,0.0,0.0,0.0,0.0,0.0,0.0,0.0,0.0,0.0,0.0,0.0,0.0,0.0,0.0,0.0,0.0,0.0,0.0,0.0,0.0,0.0,0.0,0.0,0.0,0.0,0.0,0.0,0.0,0.0,0.0,0.0,0.0,0.0,0.0,0.0,0.0,0.0,0.0,0.0,0.0,0.0,0.0,0.0,0.0,0.0,0.0,0.0,0.0,0.0,0.0,0.0,0.0,0.0,0.0,0.0,0.0,0.0,0.0,0.0,0.0,0.0,0.0,0.0,0.0,0.0,0.0,0.0,0.0,0.0,0.0,0.0,0.0,0.0,0.0,0.0,0.0,0.0,0.0,0.0,0.0,0.0,0.0,0.0,0.0,0.0,0.0,0.0,0.0,0.0,0.0,0.0,0.0,0.0,0.0,0.0,0.0,0.0,0.0,0.0,0.0,0.0,0.0,0.0,0.0,0.0,0.0,0.0,0.0,0.0,0.0,0.0,0.0,0.0,0.0,0.0,0.0,0.0,0.0,0.0,0.0,0.0,0.0,0.0,0.0,0.0,0.0,0.0,0.0,0.0,0.0,0.0,0.0,0.0,0.0,0.0,0.0,0.0,0.0,0.0,0.0,0.0,0.0,0.0,0.0,0.0,0.0,0.0,0.0,0.0,0.0,0.0,0.0,0.0,0.0,0.0,0.0,0.0,0.0,0.0,0.0,0.0,0.0,0.0,0.0,0.0,0.0,0.0,0.0,0.0,0.0,0.0,0.0,0.0,0.0,0.0,0.0,0.0,0.0,0.0,0.0,0.0,0.0,0.0,0.0,0.0,0.0,0.0,0.0,0.0,0.0,0.0,0.0,0.0,0.0,0.0,0.0,0.0,0.0,0.0,0.0,0.0,0.0,0.0,0.0,0.0,0.0,0.0,0.0,0.0,0.0,0.0,0.0,0.0,0.0,0.0,0.0,0.0,0.0,0.0,0.0,0.0,0.0,0.0,0.0,0.0,0.0,0.0,0.0,0.0,0.0,0.0,0.0,0.0,0.0,0.0,0.0,0.0,0.0,0.0,0.0,0.0,0.0,0.0,0.0,0.0,0.0,0.0,0.0,0.0,0.0,0.0,0.0,0.0,0.0,0.0,0.0,0.0,0.0,0.0,0.0,0.0,0.0,0.0,0.0,0.0,0.0,0.0,0.0,0.0,0.0,0.0,0.0,0.0,0.0,0.0,0.0,0.0,0.0,0.0,0.0,0.0,0.0,0.0,0.0,0.0,0.0,0.0,0.0,0.0,0.0,0.0,0.0,0.0,0.0,0.0,0.0,0.0,0.0,0.0,0.0,0.0,0.0,0.0,0.0,0.0,0.0,0.0,0.0,0.0,0.0,0.0,0.0,0.0,0.0,0.0,0.0,0.0,0.0,0.0,0.0,0.0,0.0,0.0,0.0,0.0,0.0,0.0,0.0,0.0,0.0,0.0,0.0,0.0,0.0,0.0,0.0,0.0,0.0,0.0,0.0,0.0,0.0,0.0,0.0,0.0,0.0,0.0,0.0,0.0,0.0,0.0,0.0,0.0,0.0,0.0,0.0,0.0,0.0,0.0,0.0,0.0,0.0,0.0,0.0,0.0,0.0,0.0,0.0,0.0,0.0,0.0,0.0,0.0,0.0,0.0,0.0,0.0,0.0,0.0,0.0,0.0,0.0,0.0,0.0,0.0,0.0,0.0,0.0,0.0,0.0,0.0,0.0,0.0,0.0,0.0,0.0,0.0,0.0,0.0,0.0,0.0,0.0,0.0,0.0,0.0,0.0,0.0,0.0,0.0,0.0,0.0,0.0,0.0,0.0,0.0,0.0,0.0,0.0,0.0,0.0,0.0,0.0,0.0,0.0,0.0,0.0,0.0,0.0,0.0,0.0,0.0,0.0,0.0,0.0,0.0,0.0,0.0,0.0,0.0,0.0,0.0,0.0,0.0,0.0,0.0,0.0,0.0,0.0,0.0,0.0,0.0,0.0,0.0,0.0,0.0,0.0,0.0,0.0,0.0,0.0,0.0,0.0,0.0,0.0,0.0,0.0,0.0,0.0,0.0,0.0,0.0,0.0,0.0,0.0,0.0,0.0,0.0,0.0,0.0,0.0,0.0,0.0,0.0,0.0,0.0,0.0,0.0,0.0,0.0,0.0,0.0,0.0,0.0,0.0,0.0,0.0,0.0,0.0,0.0,0.0,0.0,0.0,0.0,0.0,0.0,0.0,0.0,0.0,0.0,0.0,0.0,0.0,0.0,0.0,0.0,0.0,0.0,0.0,0.0,0.0,0.0,0.0,0.0,0.0,0.0,0.0,0.0,0.0,0.0,0.0,0.0,0.0,0.0,0.0,0.0,0.0,0.0,0.0,0.0,0.0,0.0,0.0,0.0,0.0,0.0,0.0,0.0,0.0,0.0,0.0,0.0,0.0,0.0,0.0,0.0,0.0,0.0,0.0,0.0,0.0,0.0,0.0,0.0,0.0,0.0,0.0,0.0,0.0,0.0,0.0,0.0,0.0,0.0,0.0,0.0,0.0,0.0,0.0,0.0,0.0,0.0,0.0,0.0,0.0,0.0,0.0,0.0,0.0,0.0,0.0,0.0,0.0,0.0,0.0,0.0,0.0,0.0,0.0,0.0,0.0,0.0,0.0,0.0,0.0,0.0,0.0,0.0,0.0,0.0,0.0,0.0,0.0,0.0,0.0,0.0,0.0,0.0,0.0,0.0,0.0,0.0,0.0,0.0,0.0,0.0,0.0,0.0,0.0,0.0,0.0,0.0,0.0,0.0,0.0,0.0,0.0,0.0,0.0,0.0,0.0,0.0,0.0,0.0,0.0,0.0,0.0,0.0,0.0,0.0,0.0,0.0,0.0,0.0,0.0,0.0,0.0,0.0,0.0,0.0,0.0,0.0,0.0,0.0,0.0,0.0,0.0,0.0,0.0,0.0,0.0,0.0,0.0,0.0,0.0,0.0,0.0,0.0,0.0,0.0,0.0,0.0,0.0,0.0,0.0,0.0,0.0,0.0,0.0,0.0,0.0,0.0,0.0,0.0,0.0,0.0,0.0,0.0,0.0,0.0,0.0,0.0,0.0,0.0,0.0,0.0,0.0,0.0,0.0,0.0,0.0,0.0,0.0,0.0,0.0,0.0,0.0,0.0,0.0,0.0,0.0,0.0,0.0,0.0,0.0,0.0,0.0,0.0,0.0,0.0,0.0,0.0,0.0,0.0,0.0,0.0,0.0,0.0,0.0,0.0,0.0,0.0,0.0,0.0,0.0,0.0,0.0,0.0,0.0,0.0,0.0,0.0,0.0,0.0,0.0,0.0,0.0,0.0,0.0,0.0,0.0,0.0,0.0,0.0,0.0,0.0,0.0,0.0,0.0,0.0,0.0,0.0,0.0,0.0,0.0,0.0,0.0,0.0,0.0,0.0,0.0,0.0,0.0,0.0,0.0,0.0,0.0,0.0,0.0,0.0,0.0,0.0,0.0,0.0,0.0,0.0,0.0,0.0,0.0,0.0,0.0,0.0,0.0,0.0,0.0,0.0,0.0,0.0,0.0,0.0,0.0,0.0,0.0,0.0,0.0,0.0,0.0,0.0,0.0,0.0,0.0,0.0,0.0,0.0,0.0,0.0,0.0,0.0,0.0,0.0,0.0,0.0,0.0,0.0,0.0,0.0,0.0,0.0,0.0,0.0,0.0,0.0,0.0,0.0,0.0,0.0,0.0,0.0,0.0,0.0,0.0,0.0,0.0,0.0,0.0,0.0,0.0,0.0,0.0,0.0,0.0,0.0,0.0,0.0,0.0,0.0,0.0,0.0,0.0,0.0,0.0,0.0,0.0,0.0,0.0,0.0,0.0,0.0,0.0,0.0,0.0,0.0,0.0,0.0,0.0,0.0,0.0,0.0,0.0,0.0,0.0,0.0,0.0,0.0,0.0,0.0,0.0,0.0,0.0,0.0,0.0,0.0,0.0,0.0,0.0,0.0,0.0,0.0,0.0,0.0,0.0,0.0,0.0,0.0,0.0,0.0,0.0,0.0,0.0,0.0,0.0,0.0,0.0,0.0,0.0,0.0,0.0,0.0,0.0,0.0,0.0,0.0,0.0,0.0,0.0,0.0,0.0,0.0,0.0,0.0,0.0,0.0,0.0,0.0,0.0,0.0,0.0,0.0,0.0,0.0,0.0,0.0,0.0,0.0,0.0,0.0,0.0,0.0,0.0,0.0,0.0,0.0,0.0,0.0,0.0,0.0,0.0,0.0,0.0,0.0,0.0,0.0,0.0,0.0,0.0,0.0,0.0,0.0,0.0,0.0,0.0,0.0,0.0,0.0,0.0,0.0,0.0,0.0,0.0,0.0,0.0,0.0,0.0,0.0,0.0,0.0,0.0,0.0,0.0,0.0,0.0,0.0,0.0,0.0,0.0,0.0,0.0,0.0,0.0,0.0,0.0,0.0,0.0,0.0,0.0,0.0,0.0,0.0,0.0,0.0,0.0,0.0,0.0,0.0,0.0,0.0,0.0,0.0,0.0,0.0,0.0,0.0,0.0,0.0,0.0,0.0,0.0,0.0,0.0,0.0,0.0,0.0,0.0,0.0,0.0,0.0,0.0,0.0,0.0,0.0,0.0,0.0,0.0,0.0,0.0,0.0,0.0,0.0,0.0,0.0,0.0,0.0,0.0,0.0,0.0,0.0,0.0,0.0,0.0,0.0,0.0,0.0,0.0,0.0,0.0,0.0,0.0,0.0,0.0,0.0,0.0,0.0,0.0,0.0,0.0,0.0,0.0,0.0,0.0,0.0,0.0,0.0,0.0,0.0,0.0,0.0,0.0,0.0,0.0,0.0,0.0,0.0,0.0,0.0,0.0,0.0,0.0,0.0,0.0,0.0,0.0,0.0,0.0,0.0,0.0,0.0,0.0,-2.554,-2.4655,0.0,0.0,0.0,0.0,0.0,0.0,0.0,0.0,0.0,0.0,0.0,0.0,0.0,0.0,0.0,0.0,0.0,0.0,0.0,0.0,0.0,0.0,0.0,-1.6355,-1.6436,-1.6528,-1.6633,-1.6725,-1.6799,0.0,0.0,0.0,0.0,0.0,-1.807,-1.8495,-1.8865,-1.9188,-1.9469,-1.9715,-1.9927,-1.974,-1.8516,-1.6444,0.0,0.0,0.0,0.0,0.0,0.0,0.0,0.0,0.0,0.0,0.0,0.0,0.0,0.0,0.0,0.0,0.0,0.0,0.0,0.0,0.0,0.0,0.0,0.0,0.0,0.0,0.0,0.0,0.0,0.0,0.0,0.0,0.0,0.0,0.0,0.0,0.0,0.0,0.0,0.0,0.0,0.0,0.0,0.0,0.0,0.0,0.0,0.0,0.0,0.0,0.0,0.0,0.0,0.0,0.0,0.0,0.0,0.0,0.0,0.0,0.0,0.0,0.0,0.0,0.0,0.0,0.0,0.0,0.0,0.0,-2.7747,-2.6807,0.0,0.0,0.0,0.0,0.0,0.0,0.0,0.0,0.0,0.0,0.0,0.0,0.0,0.0,0.0,0.0,0.0,0.0,0.0,0.0,0.0,-1.4698,-1.6186,-1.6436,-1.663,-1.6926,-1.6943,-1.705,-1.7276,-1.7285,0.0,0.0,0.0,-1.8052,-1.8439,-1.8966,-1.9752,-2.0796,-2.1273,-2.2027,-2.3027,-2.3077,-2.1241,-1.7909,-1.8011,0.0,0.0,0.0,0.0,0.0,0.0,0.0,0.0,0.0,0.0,0.0,0.0,0.0,0.0,0.0,0.0,0.0,0.0,0.0,0.0,0.0,0.0,0.0,0.0,0.0,0.0,0.0,0.0,0.0,0.0,0.0,0.0,0.0,0.0,0.0,0.0,0.0,0.0,0.0,0.0,0.0,0.0,0.0,0.0,0.0,0.0,0.0,0.0,0.0,0.0,0.0,0.0,0.0,0.0,0.0,0.0,0.0,0.0,0.0,0.0,0.0,0.0,0.0,-3.1482,-3.1497,-3.1506,-3.2249,-3.2667,-3.2687,-3.0497,-2.9654,-2.9742,-2.8365,0.0,0.0,0.0,0.0,0.0,0.0,0.0,0.0,0.0,0.0,0.0,0.0,0.0,0.0,0.0,0.0,0.0,0.0,0.0,-1.4856,-1.6386,-1.6776,-1.7299,-1.8249,-1.7869,-1.7928,-1.8755,-1.8278,0.0,0.0,-1.842,-1.8699,-1.8983,-2.0066,-2.0827,-2.1211,-2.2265,-2.2879,-2.3084,-2.3095,-2.2801,-2.2262,-2.2285,-2.2245,-2.2043,0.0,0.0,0.0,0.0,0.0,0.0,0.0,0.0,0.0,0.0,0.0,0.0,0.0,0.0,0.0,0.0,0.0,0.0,0.0,0.0,0.0,0.0,0.0,0.0,0.0,0.0,0.0,0.0,0.0,0.0,0.0,0.0,0.0,0.0,0.0,0.0,0.0,0.0,0.0,0.0,0.0,-2.2674,-2.29,0.0,0.0,0.0,0.0,0.0,0.0,0.0,0.0,0.0,0.0,0.0,0.0,0.0,-3.2576,-3.268,-3.4246,-3.503,-3.503,-3.5025,-3.502,-3.503,-3.5212,-3.5691,-3.6356,-3.5327,0.0,-3.1635,-3.1426,0.0,0.0,0.0,0.0,0.0,0.0,0.0,0.0,0.0,0.0,0.0,0.0,0.0,0.0,0.0,0.0,0.0,0.0,0.0,0.0,0.0,-1.772,-1.8332,-1.9353,-1.937,-1.9326,-1.9334,-1.9192,-1.8978,-1.8643,-1.8859,-1.9318,-2.0048,-2.0722,-2.1689,-2.2981,-2.4001,-2.453,-2.4562,-2.4551,-2.4531,-2.4516,-2.4516,-2.3986,-2.3046,-2.2283,0.0,0.0,0.0,0.0,0.0,0.0,0.0,0.0,0.0,0.0,0.0,0.0,0.0,0.0,0.0,0.0,0.0,0.0,0.0,0.0,0.0,0.0,0.0,0.0,0.0,0.0,0.0,0.0,0.0,0.0,0.0,0.0,0.0,0.0,0.0,0.0,0.0,0.0,0.0,-2.3452,-2.4745,-2.5234,-2.5292,-2.5291,0.0,0.0,0.0,0.0,0.0,0.0,0.0,0.0,0.0,-3.3501,-3.4742,-3.5396,-3.5387,-3.6581,-3.7157,-3.7153,-3.7153,-3.7191,-3.7219,-3.724,-3.7471,-3.7813,-3.7497,-3.6711,-3.5548,-3.4114,-3.254,-3.0962,0.0,0.0,0.0,0.0,-2.9209,-3.025,0.0,0.0,0.0,0.0,0.0,0.0,0.0,0.0,0.0,0.0,0.0,0.0,-1.8016,-1.8522,-1.9237,-2.0511,-2.0714,-2.0646,0.0,-2.0174,-1.9858,-1.9392,-1.9549,-2.0051,-2.0876,-2.1599,-2.2847,-2.4659,-2.5355,-2.5703,-2.5691,-2.5699,-2.5671,-2.5622,-2.5615,-2.4914,-2.3722,-2.35,-2.2665,0.0,0.0,0.0,0.0,0.0,0.0,0.0,0.0,0.0,0.0,0.0,0.0,0.0,0.0,0.0,0.0,0.0,0.0,0.0,0.0,0.0,0.0,0.0,0.0,0.0,0.0,0.0,0.0,0.0,0.0,0.0,0.0,0.0,0.0,0.0,0.0,0.0,0.0,-2.5262,-2.6691,-2.7557,-2.7851,-2.8008,0.0,0.0,0.0,0.0,0.0,0.0,-3.4167,-3.4303,-3.5067,-3.6774,-3.765,-3.819,-3.8438,-3.9223,-3.965,-3.9658,-3.9658,-3.9671,-3.9735,-3.9727,-3.9723,-3.9724,-3.9563,-3.949,-3.9306,-3.6758,-3.5131,-3.4224,-3.3585,-3.2809,-3.2027,-3.2032,-3.2584,-3.3329,0.0,0.0,0.0,0.0,0.0,0.0,0.0,0.0,0.0,0.0,0.0,-1.6345,-1.8361,-1.8866,-1.986,-2.183,-2.1557,-2.1635,0.0,0.0,-2.0573,-2.0611,-2.0802,-2.0985,-2.1176,-2.3053,-2.4572,-2.564,-2.5675,-2.5703,-2.5699,-2.5707,-2.571,-2.5689,-2.5632,-2.5541,-2.5418,-2.4585,-2.4228,-2.3988,0.0,0.0,0.0,0.0,0.0,0.0,0.0,0.0,0.0,0.0,0.0,0.0,0.0,0.0,0.0,0.0,0.0,0.0,0.0,0.0,0.0,0.0,0.0,0.0,0.0,0.0,0.0,0.0,0.0,0.0,0.0,0.0,0.0,0.0,0.0,0.0,0.0,0.0,0.0,-2.9369,-3.0193,0.0,0.0,0.0,0.0,-3.3072,-3.3943,-3.5185,-3.6912,-3.701,-3.7802,-3.9541,-4.0379,-4.1201,-4.2022,-4.2841,-4.3269,-4.3327,-4.3327,-4.3337,-4.3332,-4.3332,-4.3341,-4.3301,-4.2529,-4.2194,-4.2009,-3.9458,-3.7857,-3.6992,-3.6955,-3.6413,-3.5643,-3.5632,-3.6181,-3.694,0.0,0.0,0.0,-1.1526,-1.156,-1.1821,-1.2571,-1.3163,-1.3959,-1.5202,-1.6438,-1.7816,0.0,-2.043,-2.1539,-2.2939,-2.3046,-2.2972,-2.2831,0.0,-2.207,-2.1615,-2.1756,-2.2192,-2.2978,-2.4346,-2.5259,-2.5696,-2.5704,-2.5698,-2.5703,-2.5701,-2.5691,-2.571,-2.5673,-2.5658,-2.565,-2.5293,-2.4821,-2.4254,-2.3369,-2.2664,0.0,0.0,0.0,0.0,0.0,0.0,0.0,0.0,0.0,0.0,0.0,0.0,0.0,0.0,0.0,0.0,0.0,0.0,0.0,0.0,0.0,0.0,0.0,0.0,0.0,0.0,0.0,0.0,0.0,0.0,0.0,0.0,0.0,0.0,0.0,0.0,0.0,-3.1879,-3.2805,0.0,-3.3356,-3.4101,-3.4978,-3.5836,-3.6712,-3.7938,-3.9615,-4.0236,-4.1091,-4.2277,-4.2553,-4.2815,-4.3122,-4.3418,-4.3574,-4.3609,-4.3609,-4.3617,-4.3667,-4.3667,-4.3652,-4.3642,-4.3361,-4.3232,-4.3177,-4.2263,-4.0719,-3.8877,-3.8323,-3.7909,-3.7633,-3.7632,-3.7815,-3.8029,-1.1489,-1.1526,0.0,-1.1593,-1.1811,-1.2271,-1.3052,-1.3849,-1.4834,-1.6133,-1.7458,-1.8884,-2.0526,-2.154,-2.2545,-2.367,-2.3988,-2.3933,-2.3472,-2.3328,-2.3066,-2.2589,-2.2718,-2.3444,-2.4802,-2.5546,-2.6103,-2.6502,-2.6538,-2.656,-2.6573,-2.658,-2.6581,-2.6572,-2.6579,-2.6409,-2.6144,-2.6094,-2.5552,-2.4715,-2.4497,-2.404,-2.3419,0.0,0.0,0.0,0.0,0.0,0.0,0.0,0.0,0.0,0.0,0.0,0.0,0.0,0.0,0.0,0.0,0.0,0.0,0.0,0.0,0.0,0.0,0.0,0.0,0.0,0.0,0.0,0.0,0.0,0.0,0.0,0.0,0.0,0.0,-3.1045,-3.2768,-3.4513,-3.5498,-3.6128,-3.6422,-3.7246,-3.8105,-3.8964,-3.9823,-4.0818,-4.1911,-4.2515,-4.3236,-4.4112,-4.4106,-4.4218,-4.4507,-4.4501,-4.4501,-4.4507,-4.4507,-4.453,-4.4573,-4.4573,-4.4577,-4.4562,-4.4272,-4.4138,-4.412,-4.3828,-4.2714,-4.111,-4.0541,-4.0325,-4.0325,-4.0324,-4.0101,-3.977,-1.1489,-1.156,-1.1604,-1.1615,-1.2267,-1.3049,-1.3799,-1.4691,-1.5928,-1.7674,-1.8336,-1.9419,-2.1484,-2.208,-2.281,-2.4001,-2.4294,-2.4429,-2.4495,-2.3838,-2.3483,-2.3566,-2.3771,-2.4717,-2.6495,-2.6661,-2.717,-2.8098,-2.8155,-2.8225,-2.8309,-2.8303,-2.8295,-2.8301,-2.8297,-2.7839,-2.7048,-2.7039,-2.6495,-2.557,-2.4762,-2.4397,-2.4253,0.0,0.0,0.0,0.0,0.0,0.0,0.0,0.0,0.0,0.0,0.0,0.0,0.0,0.0,0.0,0.0,0.0,0.0,0.0,0.0,0.0,0.0,0.0,0.0,0.0,0.0,0.0,0.0,0.0,0.0,0.0,0.0,0.0,-3.2064,-3.3683,-3.5426,-3.7176,-3.8156,-3.9019,-3.9882,-4.0761,-4.1601,-4.2383,-4.3242,-4.373,-4.373,-4.3769,-4.4179,-4.5018,-4.5037,-4.5446,-4.6283,-4.6302,-4.6302,-4.6302,-4.6302,-4.6302,-4.6302,-4.6302,-4.6304,-4.6248,-4.5408,-4.5038,-4.498,-4.4121,-4.3789,-4.3789,-4.3729,-4.3709,-4.3709,-4.3706,-4.3172,-4.2295,-1.156,-1.1593,-1.1623,-1.1733,-1.2332,-1.3096,-1.398,-1.4826,-1.6054,-1.7945,-1.8974,-2.0139,-2.1744,-2.2716,-2.3521,-2.4182,-2.433,-2.4429,-2.4495,-2.4307,-2.453,-2.5272,-2.5454,-2.6117,-2.7335,-2.7458,-2.7661,-2.8028,-2.8097,-2.8159,-2.823,-2.8237,-2.8259,-2.8295,-2.8301,-2.8162,-2.7943,-2.7938,-2.7422,-2.6535,-2.5697,-2.5292,-2.5143,0.0,0.0,0.0,0.0,0.0,0.0,0.0,0.0,0.0,0.0,0.0,0.0,0.0,0.0,0.0,0.0,0.0,0.0,0.0,0.0,0.0,0.0,0.0,0.0,0.0,0.0,0.0,0.0,0.0,0.0,0.0,-3.1928,-3.3707,-3.3957,-3.5482,-3.7226,-3.8971,-3.9913,-4.0758,-4.1639,-4.25,-4.3105,-4.332,-4.4141,-4.4648,-4.4648,-4.5234,-4.5683,-4.5937,-4.5937,-4.6054,-4.6308,-4.6308,-4.6308,-4.6308,-4.6308,-4.6308,-4.6308,-4.6308,-4.6308,-4.6289,-4.6054,-4.5937,-4.5918,-4.5683,-4.5586,-4.5469,-4.4199,-4.3691,-4.3691,-4.3691,-4.3552,-4.3309,-1.1593,-1.1836,-1.2069,-1.2198,-1.3046,-1.3934,-1.4551,-1.5361,-1.66,-1.8552,-1.9499,-2.0609,-2.2283,-2.3164,-2.3808,-2.421,-2.4367,-2.4464,-2.4539,-2.4881,-2.5367,-2.5973,0.0,-2.7151,-2.814,-2.8247,-2.8532,-2.9014,-2.9109,-2.9172,-2.9255,-2.9248,-2.9281,-2.9348,-2.9346,-2.9159,-2.8847,-2.8845,-2.8334,-2.7491,-2.6993,-2.6338,-2.5587,-2.511,-2.4946,-2.4877,-2.4375,-2.3944,-2.3566,-2.3055,0.0,0.0,0.0,0.0,0.0,0.0,0.0,0.0,0.0,0.0,0.0,0.0,0.0,0.0,0.0,0.0,0.0,0.0,0.0,0.0,0.0,0.0,0.0,0.0,-3.4626,-3.6579,-3.7279,-3.8256,-3.9394,-4.0771,-4.1672,-4.2535,-4.3398,-4.3945,-4.4394,-4.4766,-4.5254,-4.5547,-4.5547,-4.6016,-4.6308,-4.6308,-4.6308,-4.6308,-4.6308,-4.6308,-4.6308,-4.6308,-4.6308,-4.6308,-4.6308,-4.6308,-4.6308,-4.6308,-4.6308,-4.6308,-4.6308,-4.6308,-4.6308,-4.6191,0.0,0.0,0.0,0.0,-4.4237,-4.4195,-1.181,-1.2314,-1.2769,-1.2909,-1.4081,-1.5073,-1.5278,-1.6035,-1.7303,-1.9258,-1.9848,-2.0859,-2.2896,-2.345,-2.3819,-2.4163,-2.4348,-2.4498,-2.4582,-2.5398,-2.5962,-2.6134,-2.7024,-2.7956,-2.8893,-2.9052,-2.9531,-3.0369,-3.0506,-3.0617,-3.068,-3.0695,-3.0717,-3.0795,-3.0806,-3.0396,-2.9743,-2.9746,-2.9238,-2.8455,-2.8455,-2.7398,-2.5846,-2.585,-2.5797,-2.5703,-2.5703,-2.5193,-2.4523,-2.4425,0.0,0.0,0.0,0.0,0.0,0.0,0.0,0.0,0.0,0.0,0.0,0.0,0.0,0.0,0.0,0.0,0.0,0.0,0.0,0.0,0.0,0.0,0.0,0.0,-3.7303,-3.947,-4.1168,-4.148,-4.1837,-4.259,-4.3372,-4.4195,-4.5058,-4.5156,-4.5469,-4.623,-4.6308,-4.6308,-4.6308,-4.6308,0.0,0.0,0.0,-4.6308,-4.6308,-4.6308,-4.6308,-4.6308,-4.6308,-4.6308,-4.6308,-4.6308,-4.6308,-4.6308,-4.6308,-4.6308,-4.6308,-4.6308,-4.6308,-4.6308,-4.6308,-4.6308,-4.6211,-4.5429,-4.5155,-4.5037,-1.3079,-1.3363,-1.355,-1.3748,-1.445,-1.5087,-1.5345,-1.6077,-1.733,-1.9322,-1.9835,-2.0839,-2.2957,-2.3387,-2.3696,-2.4097,-2.421,-2.433,0.0,0.0,-2.6163,-2.6931,-2.7817,-2.8722,-2.9672,-2.9775,-2.9956,-3.024,-3.0373,-3.0471,-3.0548,-3.0591,-3.0651,-3.0717,-3.0784,-3.0718,-3.0566,-3.0577,-3.0094,-2.9354,-2.9354,-2.8301,-2.6754,-2.6757,-2.6309,-2.5703,-2.5699,-2.5596,-2.5338,-2.4634,-2.4281,-2.4006,-2.3129,0.0,0.0,0.0,0.0,0.0,0.0,0.0,0.0,0.0,0.0,0.0,0.0,0.0,0.0,0.0,0.0,0.0,0.0,0.0,0.0,-3.8276,-3.9839,-4.1226,-4.2944,-4.3801,-4.4315,-4.4484,-4.4642,-4.5094,-4.5957,-4.6055,-4.6113,-4.6289,-4.6308,-4.6308,-4.6308,-4.6308,-4.6308,-4.6308,-4.6308,-4.6308,-4.6308,-4.6308,-4.6308,-4.6308,-4.6308,0.0,-4.6308,-4.6308,-4.6308,-4.6308,-4.6308,-4.6308,-4.6308,-4.6308,-4.6308,-4.6308,-4.6308,-4.6308,-4.6289,-4.6113,-4.6054,-4.6015,-1.4472,-1.4379,-1.4262,-1.4468,-1.5053,-1.5591,-1.5858,-1.6297,-1.7173,-1.8743,-1.9558,-2.0486,-2.1756,-2.2834,-2.3447,-2.3393,-2.3887,0.0,0.0,-2.5651,-2.6579,-2.7133,-2.8405,-2.9323,-2.9798,-2.9901,-2.9999,-3.0098,-3.0233,-3.0355,-3.0455,-3.0525,-3.0597,-3.0651,-3.0713,-3.0774,-3.0792,-3.0795,-3.0573,-3.0208,-3.0249,-2.9471,-2.8242,-2.7812,-2.7107,-2.6344,-2.636,-2.6062,-2.5629,-2.5198,-2.5042,-2.4906,-2.4027,-2.3441,-2.3029,0.0,0.0,0.0,0.0,0.0,0.0,0.0,0.0,0.0,0.0,0.0,0.0,0.0,0.0,-3.1767,-3.4797,0.0,-3.7943,-4.0093,-4.1558,-4.2866,-4.4179,-4.4725,-4.5003,-4.4992,-4.5384,-4.5816,-4.6269,-4.6308,-4.6308,-4.6308,-4.6308,-4.6308,-4.6308,-4.6308,-4.6308,-4.6308,-4.6308,-4.6308,-4.6308,-4.6308,-4.6308,-4.6308,-4.6308,-4.6308,-4.6308,-4.6308,-4.6308,-4.6308,-4.6308,-4.6308,-4.6308,-4.6308,-4.6308,-4.6308,-4.6308,-4.6308,-4.6308,-4.6308,-4.6308,-4.6308,-1.552,-1.5251,-1.4977,-1.5165,-1.5646,-1.608,-1.6371,-1.6517,-1.7006,-1.8143,-1.9143,-1.9957,-2.0477,-2.1943,-2.2816,0.0,0.0,0.0,0.0,-2.608,-2.7019,-2.7296,-2.883,-2.9664,-2.9663,-2.979,-2.9868,-2.994,-3.0083,-3.0219,-3.0361,-3.0601,-3.0762,-3.0841,-3.1076,-3.1109,-3.1,-3.1022,-3.0948,-3.0806,-3.085,-3.0462,-2.9759,-2.9056,-2.8157,-2.7256,-2.7255,-2.6687,-2.5941,-2.5941,-2.5844,-2.559,-2.4867,-2.4534,-2.4261,-2.3558,-2.336,0.0,0.0,0.0,0.0,0.0,0.0,0.0,0.0,0.0,-3.2058,-3.3799,-3.4288,-3.5149,-3.7594,-3.9273,-4.0659,-4.1693,-4.304,-4.4254,-4.5138,-4.5255,-4.5258,-4.5245,-4.5872,-4.6305,-4.6308,-4.6308,-4.6308,-4.6308,-4.6308,-4.6308,-4.6308,-4.6308,-4.6308,-4.6308,-4.6308,-4.6308,-4.6308,-4.6308,-4.6308,-4.6308,-4.6308,-4.6308,-4.6308,-4.6308,-4.6308,-4.6308,-4.6308,-4.6308,-4.6308,-4.6308,-4.6308,-4.6308,-4.6308,-4.6308,-4.6308,-4.6308,-4.6308,-4.6308,-1.565,-1.5724,-1.5707,-1.5862,-1.595,-1.608,-1.6371,-1.6517,-1.7008,-1.8157,-1.8613,-1.9222,-2.022,-2.0732,-2.145,-2.252,0.0,0.0,0.0,-2.6292,-2.7251,-2.8044,-2.9016,-2.9522,-2.9522,-2.9589,-2.9673,-2.9716,-2.9864,-3.0038,-3.0247,-3.1092,-3.1548,-3.1709,-3.2479,-3.2445,-3.1789,-3.184,-3.1454,-3.0804,-3.0813,-3.074,-3.0666,-3.0568,-2.9536,-2.8153,-2.8149,-2.7582,-2.684,-2.684,-2.6333,-2.5687,-2.559,-2.5023,-2.4377,-2.4275,0.0,-2.4421,-2.5203,-2.7177,-2.9072,-2.9268,-3.0502,-3.1893,0.0,0.0,-3.4763,-3.65,-3.7477,-3.8551,-4.0348,-4.1459,-4.265,-4.4309,-4.4738,-4.5168,-4.6028,-4.6145,-4.6149,-4.6156,-4.6244,-4.6307,-4.6308,-4.6308,-4.6308,-4.6308,-4.6308,-4.6308,-4.6308,-4.6308,-4.6308,-4.6308,-4.6308,-4.6308,-4.6308,-4.6308,-4.6308,-4.6308,-4.6308,-4.6308,-4.6308,-4.6308,-4.6308,-4.6308,-4.6308,-4.6308,-4.6308,-4.6308,-4.6308,-4.6308,-4.6308,-4.6308,-4.6308,-4.6308,-4.6308,-4.6308,-1.5739,-1.5799,-1.5827,-1.5927,-1.5969,-1.608,-1.6371,-1.6517,-1.6836,-1.7516,-1.8203,-1.8708,-1.8876,-1.9632,-2.0739,-2.2295,-2.2606,-2.3255,-2.4498,-2.5923,-2.6908,-2.73,-2.8663,-2.9384,-2.9384,-2.9482,-2.9579,-2.9636,-3.0254,-3.0629,-3.0799,-3.1747,-3.2242,-3.239,-3.2844,-3.2885,-3.2576,-3.2131,-3.1773,-3.1456,-3.0992,-3.0808,-3.079,-3.079,-3.0053,-2.8948,-2.847,-2.775,0.0,0.0,-2.5993,-2.5703,-2.5703,-2.545,-2.5256,-2.5758,-2.591,0.0,-2.8173,-2.9465,-3.066,0.0,-3.3473,-3.4608,-3.5467,-3.6345,-3.7303,-3.8512,-3.9449,-4.0426,-4.1635,-4.2982,-4.4151,0.0,-4.5421,-4.5872,-4.6248,-4.6308,-4.6291,-4.6297,-4.6302,-4.6306,-4.6308,-4.6308,-4.6308,-4.6308,-4.6308,-4.6308,-4.6308,-4.6308,-4.6308,-4.6308,-4.6308,-4.6308,-4.6308,-4.6308,-4.6308,-4.6308,-4.6308,-4.6308,-4.6308,-4.6308,-4.6308,-4.6308,-4.6308,-4.6308,-4.6308,-4.6308,-4.6308,-4.6308,-4.6308,-4.6308,-4.6308,-4.6308,-4.6308,-4.6308,-1.5799,-1.5799,-1.5813,-1.59,-1.597,-1.608,-1.6328,-1.6503,-1.6712,-1.703,-1.7753,-1.8143,-1.7912,-1.8907,-2.0202,-2.1747,-2.2267,-2.3027,-2.4198,-2.5711,-2.6667,-2.6998,-2.8434,0.0,-2.927,-2.9372,-2.9573,-2.9876,-3.0583,-3.112,-3.1509,-3.2474,-3.2989,-3.3156,-3.3494,-3.3566,-3.3372,-3.2806,-3.245,-3.2223,-3.1426,-3.109,-3.1073,-3.0867,-3.0224,-2.9409,-2.8838,-2.7929,0.0,0.0,-2.5882,-2.5693,-2.5696,-2.5698,-2.5874,-2.6746,-2.7507,-2.8504,-3.0593,-3.1693,0.0,-3.4588,-3.5896,-3.695,-3.7809,-3.8473,-3.9157,-3.9995,-4.0854,-4.1713,-4.2591,-4.3997,-4.5088,-4.532,-4.5886,-4.6298,-4.6282,-4.6264,-4.6266,-4.6272,-4.6272,-4.6276,-4.6302,-4.6306,-4.6307,-4.6308,-4.6308,-4.6308,-4.6308,-4.6308,-4.6308,-4.6308,-4.6308,-4.6308,-4.6308,-4.6308,-4.6308,-4.6308,-4.6308,-4.6308,-4.6308,-4.6308,-4.6308,-4.6308,-4.6308,-4.6308,-4.6308,-4.6308,-4.6308,-4.6308,-4.6308,-4.6308,-4.6308,-4.6308,-4.6308,-4.6308,-1.5799,-1.5799,-1.5813,-1.59,-1.597,-1.6066,-1.6274,-1.6477,-1.6704,-1.6972,-1.7195,-1.7477,-1.785,-1.875,-1.9726,-2.076,-2.1732,-2.3063,-2.484,-2.587,-2.6798,-2.7732,-2.8625,-2.9134,-2.92,-2.92,-2.9672,-3.0578,-3.0665,-3.124,-3.2288,-3.3301,-3.3846,-3.4003,-3.4916,-3.489,-3.4173,-3.422,-3.3789,-3.3005,-3.2182,-3.1863,-3.178,-3.1005,-3.0163,-2.9408,-2.9457,0.0,0.0,0.0,-2.6352,-2.5696,-2.5707,-2.5702,0.0,-2.6745,-2.8743,0.0,0.0,0.0,-3.5856,-3.5934,-3.7243,-3.8728,-3.9546,-3.9741,-4.0015,-4.0875,-4.1752,-4.263,-4.3509,-4.4387,-4.5281,-4.611,-4.6286,-4.6282,-4.6211,-4.6209,-4.6209,-4.6209,-4.6209,-4.624,-4.628,-4.6301,-4.6307,-4.6307,-4.6307,-4.6307,-4.6307,-4.6304,-4.6302,-4.6302,-4.6302,-4.6304,-4.6307,-4.6307,-4.6308,-4.6308,-4.6308,-4.6308,-4.6307,-4.6304,-4.6302,-4.6302,-4.6302,-4.6302,-4.6302,-4.6302,-4.6302,-4.6302,-4.6302,-4.6302,-4.6302,-4.6306,-4.6308,-4.6308,-1.5799,-1.5799,-1.5813,-1.5827,-1.5926,-1.6038,-1.6151,-1.6409,-1.6704,-1.6959,-1.7199,0.0,0.0,0.0,0.0,0.0,-2.1831,-2.2597,-2.3785,-2.4833,-2.5559,-2.5864,-2.6801,-2.7578,-2.812,-2.8224,-2.8684,-2.9547,-3.0169,-3.1041,-3.2054,-3.3052,-3.3941,-3.4672,-3.5032,-3.4776,-3.4033,-3.3525,-3.2846,-3.2039,-3.1171,-3.0873,-3.0873,-3.0593,-2.9626,-2.8408,0.0,0.0,0.0,0.0,-2.5829,-2.563,-2.5634,0.0,0.0,-2.887,0.0,-3.2104,-3.407,0.0,-3.6414,-3.809,-3.8956,-3.9624,-4.0464,-4.0659,-4.0758,-4.1031,-4.1791,-4.2492,-4.2779,-4.3558,-4.4411,-4.525,-4.5362,-4.5549,-4.6066,-4.6141,-4.6141,-4.6141,-4.6131,-4.6167,-4.6226,-4.6278,-4.6296,-4.6303,-4.6304,-4.6304,-4.6304,-4.6302,-4.6301,-4.6301,-4.6301,-4.6302,-4.6304,-4.6304,-4.6305,-4.6305,-4.6305,-4.6305,-4.6304,-4.6302,-4.6301,-4.6301,-4.6301,-4.6301,-4.6301,-4.6301,-4.6301,-4.6301,-4.6301,-4.6301,-4.6301,-4.6303,-4.6305,-4.6306,-1.5799,-1.5799,-1.5799,-1.5799,-1.5884,0.0,0.0,0.0,0.0,0.0,0.0,0.0,0.0,0.0,0.0,0.0,0.0,-2.2558,-2.3194,-2.4195,-2.4795,-2.4853,-2.5787,-2.6554,-2.7116,-2.7476,-2.807,-2.8922,-2.9846,-3.0819,-3.1831,-3.2568,-3.3278,-3.4008,-3.4097,-3.3887,-3.346,-3.2955,-3.2443,-3.191,-3.1079,-3.0758,-3.0751,-3.0475,-2.9494,0.0,0.0,0.0,0.0,0.0,0.0,0.0,0.0,0.0,0.0,0.0,-3.1975,-3.3782,-3.5421,-3.6604,-3.7743,-3.9382,-4.0034,-4.0414,-4.0961,-4.1097,-4.1097,-4.1097,-4.1293,-4.1642,-4.2256,-4.2585,-4.3236,-4.4644,-4.4848,-4.5118,-4.5953,-4.6036,-4.6027,-4.6027,-4.605,-4.6076,-4.6123,-4.6189,-4.6247,-4.6294,-4.6297,-4.6299,-4.6299,-4.6297,-4.6296,-4.6296,-4.6296,-4.6296,-4.6299,-4.6299,-4.63,-4.6301,-4.63,-4.6299,-4.6299,-4.6296,-4.6296,-4.6296,-4.6296,-4.6296,-4.6296,-4.6296,-4.6296,-4.6296,-4.6296,-4.6296,-4.6296,-4.6299,-4.6299,-4.6301,-1.5799,-1.5799,-1.5799,0.0,0.0,0.0,0.0,0.0,0.0,0.0,0.0,0.0,0.0,0.0,0.0,0.0,0.0,0.0,-2.307,0.0,0.0,-2.47,-2.5506,-2.6033,-2.6197,-2.6904,-2.7719,-2.8651,-2.9521,-3.0503,-3.1554,-3.1811,-3.2016,-3.2184,-3.2315,-3.2429,-3.2512,-3.2526,-3.2527,-3.247,-3.1723,-3.1432,-3.1336,-3.0566,0.0,0.0,0.0,0.0,0.0,0.0,0.0,0.0,0.0,0.0,0.0,0.0,0.0,-3.5881,-3.5978,-3.7855,-3.98,-3.9859,-4.0474,-4.1089,-4.1033,-4.1033,-4.1013,-4.0974,-4.0291,-4.0211,-4.1794,0.0,-4.1815,-4.4269,-4.4646,-4.4943,-4.5861,-4.5923,-4.588,0.0,0.0,0.0,0.0,0.0,-4.6203,-4.6351,-4.6326,-4.6291,-4.6291,-4.6305,-4.63,-4.63,-4.63,-4.6305,-4.6293,-4.6293,-4.6295,-4.6301,-4.6295,-4.6293,-4.6293,-4.6305,-4.63,-4.63,-4.63,-4.63,-4.63,-4.63,-4.63,-4.63,-4.63,-4.63,-4.6302,-4.6309,-4.6293,-4.6294,0.0,0.0,0.0,0.0,0.0,0.0,0.0,0.0,0.0,0.0,0.0,0.0,0.0,0.0,0.0,0.0,0.0,0.0,-2.279,0.0,0.0,0.0,0.0,0.0,-2.5016,-2.5314,0.0,0.0,0.0,-2.8518,-2.9478,-3.0337,-3.1158,0.0,-3.2087,-3.1883,-3.141,-3.1455,-3.1121,-3.0524,0.0,-3.0254,-3.0295,0.0,0.0,0.0,0.0,0.0,0.0,0.0,0.0,0.0,0.0,0.0,-3.2643,0.0,0.0,-3.6908,-3.8205,-3.9101,-3.9805,-4.0466,-4.0797,-4.0792,-4.0192,-4.0065,-3.9877,-3.9228,-3.8903,-3.8877,-3.9241,-3.9677,0.0,-4.243,-4.3241,0.0,-4.564,-4.5838,0.0,-4.5831,0.0,-4.5874,-4.5922,-4.654,0.0,-4.7108,-4.6566,-4.6245,-4.6292,-4.629,-4.6292,-4.63,-4.63,-4.6302,-4.6303,-4.6303,-4.6305,-4.6306,-4.6305,-4.6303,-4.6303,-4.6302,-4.63,-4.63,-4.63,-4.63,-4.63,-4.63,-4.63,-4.63,-4.63,-4.63,-4.63,-4.6303,-4.6303,-4.6305,0.0,0.0,0.0,0.0,0.0,0.0,0.0,0.0,0.0,0.0,0.0,0.0,0.0,0.0,0.0,0.0,0.0,0.0,0.0,0.0,0.0,0.0,0.0,0.0,0.0,-2.4438,0.0,0.0,0.0,0.0,0.0,-2.8207,-2.8853,-2.9532,-2.9724,-2.9626,-2.9288,0.0,0.0,0.0,0.0,0.0,0.0,0.0,0.0,0.0,0.0,0.0,0.0,0.0,0.0,-2.99,-3.1552,-3.2981,-3.4276,-3.5643,0.0,-3.8125,-3.9128,-3.9741,-4.0202,-4.0738,-4.0568,-4.0163,-3.9717,-3.9341,-3.896,-3.8466,-3.7755,0.0,-3.8132,-3.8336,0.0,0.0,0.0,0.0,-4.553,-4.5738,-4.5703,0.0,-4.5743,0.0,-4.6348,-4.6842,-4.7351,-4.7842,-4.7513,-4.7326,-4.7387,-4.7392,-4.7401,-4.7393,-4.7393,-4.7237,-4.6866,-4.6866,-4.6671,-4.63,-4.63,-4.63,-4.63,-4.63,-4.63,-4.63,-4.63,-4.63,-4.63,-4.63,-4.63,-4.63,-4.63,-4.63,-4.63,-4.63,-4.63,-4.63,0.0,0.0,0.0,0.0,0.0,0.0,0.0,0.0,0.0,0.0,0.0,0.0,0.0,0.0,0.0,0.0,0.0,0.0,0.0,0.0,0.0,0.0,0.0,0.0,0.0,0.0,0.0,0.0,0.0,0.0,0.0,0.0,0.0,0.0,0.0,0.0,0.0,0.0,0.0,0.0,0.0,0.0,0.0,0.0,0.0,0.0,0.0,0.0,0.0,0.0,-3.0584,-3.1193,-3.353,-3.4975,-3.596,-3.67,-3.809,-3.9365,-3.9439,-4.0049,-4.0688,-4.0739,-4.0091,-3.9423,-3.9326,-3.8595,-3.7903,-3.7787,0.0,-3.5824,-3.7373,-3.7121,-3.7762,-4.1012,0.0,-4.3462,-4.525,-4.5466,-4.5479,-4.5594,-4.5744,-4.6163,-4.691,-4.7252,-4.7753,-4.8586,-4.887,-4.8931,-4.8785,-4.8806,-4.8801,-4.8796,-4.8796,-4.8406,-4.7584,-4.7584,-4.7157,-4.63,-4.63,-4.63,-4.63,-4.63,-4.63,-4.63,-4.63,-4.63,-4.63,-4.63,-4.63,-4.63,-4.63,-4.63,-4.63,-4.63,-4.63,-4.63,0.0,0.0,0.0,0.0,0.0,0.0,0.0,0.0,0.0,0.0,0.0,0.0,0.0,0.0,0.0,0.0,0.0,0.0,0.0,0.0,0.0,0.0,0.0,0.0,0.0,0.0,0.0,0.0,0.0,0.0,0.0,0.0,0.0,0.0,0.0,0.0,0.0,0.0,0.0,0.0,0.0,0.0,0.0,0.0,0.0,0.0,0.0,0.0,0.0,0.0,-3.264,-3.3559,-3.4737,-3.6632,-3.8459,-3.8624,-3.9352,-4.0111,-4.0183,-4.033,-4.0469,-4.0534,-3.9894,-3.9073,-3.8418,-3.7083,0.0,0.0,-3.4139,-3.3734,-3.4642,-3.5283,-3.6533,-3.9223,0.0,0.0,-4.4209,-4.4536,-4.4778,0.0,-4.6249,-4.6747,-4.6906,-4.8234,0.0,-4.9397,-5.0141,-5.0058,-4.8779,-4.8766,-4.8797,-4.8801,-4.8801,-4.8391,-4.7535,-4.7515,-4.711,-4.63,-4.63,-4.63,-4.63,-4.63,-4.63,-4.63,-4.63,-4.63,-4.63,-4.63,-4.63,-4.63,-4.63,-4.63,-4.63,-4.63,-4.63,-4.63,0.0,0.0,0.0,0.0,0.0,0.0,0.0,0.0,0.0,0.0,0.0,0.0,0.0,0.0,0.0,0.0,0.0,0.0,0.0,0.0,0.0,0.0,0.0,0.0,0.0,0.0,0.0,0.0,0.0,0.0,0.0,0.0,0.0,0.0,0.0,0.0,0.0,0.0,0.0,0.0,0.0,0.0,0.0,0.0,0.0,0.0,0.0,0.0,0.0,0.0,-3.2616,-3.3986,-3.5373,-3.6944,-3.8355,-3.8848,-3.9583,-4.0252,-4.0332,-4.0358,-4.0366,-4.0427,-3.9484,-3.8312,-3.7467,0.0,0.0,0.0,-3.2827,-3.2513,-3.3285,0.0,0.0,0.0,0.0,0.0,0.0,0.0,0.0,-4.6124,-4.6644,-4.724,-4.8114,-4.897,-4.9623,-5.0093,-5.0593,-5.062,-4.997,-5.008,-5.014,-5.0154,-5.0154,-4.951,-4.8184,-4.8184,-4.7526,-4.6245,-4.6271,-4.6292,-4.6292,-4.6298,-4.63,-4.63,-4.63,-4.63,-4.63,-4.63,-4.63,-4.63,-4.63,-4.63,-4.63,-4.63,-4.63,-4.63,0.0,0.0,0.0,0.0,0.0,0.0,0.0,0.0,0.0,0.0,0.0,0.0,0.0,0.0,0.0,0.0,0.0,0.0,0.0,0.0,0.0,0.0,0.0,0.0,0.0,0.0,0.0,0.0,0.0,0.0,0.0,0.0,0.0,0.0,0.0,0.0,0.0,0.0,0.0,0.0,0.0,0.0,0.0,0.0,0.0,0.0,0.0,0.0,0.0,0.0,-3.1777,-3.3142,-3.4832,-3.633,-3.7631,-3.8585,-3.9347,-3.9958,-4.0214,-4.028,-4.0317,-4.0372,-3.9116,-3.7622,-3.6768,-3.514,0.0,0.0,-3.187,-3.155,-3.2345,0.0,-3.4347,0.0,-3.8301,-4.0443,0.0,0.0,0.0,0.0,-4.6915,0.0,-4.9212,-4.9538,-4.9904,-5.0538,-5.0691,-5.0867,-5.1095,-5.1265,-5.1356,-5.1382,-5.1382,-5.0644,-4.9084,-4.8892,-4.8014,-4.6479,-4.6336,-4.6282,-4.6282,-4.6271,-4.6296,-4.6298,-4.6298,-4.6298,-4.63,-4.63,-4.63,-4.63,-4.63,-4.63,-4.63,-4.63,-4.63,-4.63,0.0,0.0,0.0,0.0,0.0,0.0,0.0,0.0,0.0,0.0,0.0,0.0,0.0,0.0,0.0,0.0,0.0,0.0,0.0,0.0,0.0,0.0,0.0,0.0,0.0,0.0,0.0,0.0,0.0,0.0,0.0,0.0,0.0,0.0,0.0,0.0,0.0,0.0,0.0,0.0,0.0,0.0,0.0,0.0,0.0,0.0,0.0,0.0,0.0,0.0,0.0,-3.0956,-3.1976,-3.4601,-3.7503,-3.8436,0.0,0.0,-3.9967,-4.0244,-4.0291,-4.032,-3.9001,-3.7519,-3.6689,0.0,0.0,-3.1778,-3.0925,-3.0581,-3.1377,-3.2229,-3.3398,0.0,0.0,-3.8648,0.0,0.0,0.0,-4.5343,0.0,0.0,-4.913,-4.9935,-5.0425,-5.0502,-5.0635,-5.0821,-5.1099,-5.1171,-5.1243,-5.1304,-5.1304,-5.0883,-4.9985,-4.9205,-4.8317,-4.7376,-4.6579,-4.6209,-4.6209,-4.6211,-4.6238,-4.6306,-4.6306,-4.6292,-4.63,-4.63,-4.63,-4.63,-4.63,-4.63,-4.63,-4.63,-4.63,-4.63,0.0,0.0,0.0,0.0,0.0,0.0,0.0,0.0,0.0,0.0,0.0,0.0,0.0,0.0,0.0,0.0,0.0,0.0,0.0,0.0,0.0,0.0,0.0,0.0,0.0,0.0,0.0,0.0,0.0,0.0,0.0,0.0,0.0,0.0,0.0,0.0,0.0,0.0,0.0,0.0,0.0,0.0,0.0,0.0,0.0,0.0,0.0,0.0,0.0,0.0,0.0,0.0,-3.0752,-3.2228,0.0,0.0,-3.7435,-3.8779,-3.9232,-3.9795,-4.012,-3.9632,-3.861,-3.7234,-3.54,0.0,-3.2317,-3.0987,-3.0433,-3.03,-3.0624,-3.1389,-3.2363,-3.3532,-3.5578,-3.7621,-3.9365,-4.1473,0.0,-4.5247,-4.6963,0.0,0.0,-4.9982,-5.05,-5.05,-5.0545,-5.0653,-5.0844,-5.103,-5.1166,-5.1239,-5.1276,-5.0883,-5.0045,-4.9227,-4.8353,-4.7486,-4.6618,-4.6195,-4.6195,-4.6203,-4.6211,-4.6236,-4.6236,-4.6262,-4.6292,-4.6292,-4.6292,-4.6292,-4.6292,-4.6288,-4.6243,-4.6243,-4.6267,-4.6292,0.0,0.0,0.0,0.0,0.0,0.0,0.0,0.0,0.0,0.0,0.0,0.0,0.0,0.0,0.0,0.0,0.0,0.0,0.0,0.0,0.0,0.0,0.0,0.0,0.0,0.0,0.0,0.0,0.0,0.0,0.0,0.0,0.0,0.0,0.0,0.0,0.0,0.0,0.0,0.0,0.0,0.0,0.0,0.0,0.0,0.0,0.0,0.0,0.0,0.0,0.0,0.0,0.0,0.0,0.0,0.0,-3.5902,-3.7521,-3.816,-3.885,-3.9271,-3.8699,-3.7916,-3.6703,0.0,-3.3287,-3.218,-3.0515,-3.0197,-3.0211,-3.0211,-3.1102,-3.2031,-3.2604,-3.5048,-3.7281,-3.851,-4.1054,0.0,0.0,0.0,-4.7986,-4.9058,-4.9939,-5.0457,-5.0468,-5.0489,-5.0554,-5.0692,-5.0925,-5.1081,-5.1161,-5.124,-5.0999,-5.0385,-4.9333,-4.8495,-4.7871,-4.6736,-4.6196,-4.6196,-4.6209,-4.6198,-4.6201,-4.6201,-4.6228,-4.6279,-4.6279,-4.6279,-4.6279,-4.6279,-4.6236,-4.6206,-4.6206,-4.6233,-4.6279,0.0,0.0,0.0,0.0,0.0,0.0,0.0,0.0,0.0,0.0,0.0,0.0,0.0,0.0,0.0,0.0,0.0,0.0,0.0,0.0,0.0,0.0,0.0,0.0,0.0,0.0,0.0,0.0,0.0,0.0,0.0,0.0,0.0,0.0,0.0,0.0,0.0,0.0,0.0,0.0,0.0,0.0,0.0,0.0,0.0,0.0,0.0,0.0,0.0,0.0,0.0,0.0,0.0,0.0,0.0,0.0,-3.437,-3.494,-3.6731,-3.7366,-3.7538,-3.7519,-3.691,-3.5873,0.0,-3.3176,-3.2133,-3.0445,-3.0157,-3.0211,-3.0211,-3.1553,-3.2699,-3.2699,-3.5515,-3.7693,-3.7712,-4.0654,0.0,0.0,0.0,-4.7188,-4.8938,-4.9824,-5.0325,-5.0401,-5.0468,-5.0554,-5.0692,-5.0833,-5.0954,-5.1099,-5.1161,-5.1234,-5.13,-4.9625,-4.8806,-4.8768,-4.7037,-4.6199,-4.6199,-4.6199,-4.6209,-4.6206,-4.6206,-4.6195,-4.6206,-4.6206,-4.6206,-4.6206,-4.6206,-4.6206,-4.6206,-4.6206,-4.6206,-4.6206,0.0,0.0,0.0,0.0,0.0,0.0,0.0,0.0,0.0,0.0,0.0,0.0,0.0,0.0,0.0,0.0,0.0,0.0,0.0,0.0,0.0,0.0,0.0,0.0,0.0,0.0,0.0,0.0,0.0,0.0,0.0,0.0,0.0,0.0,0.0,0.0,0.0,0.0,0.0,0.0,0.0,0.0,0.0,0.0,0.0,0.0,0.0,0.0,0.0,0.0,0.0,0.0,0.0,0.0,0.0,-3.01,-3.1885,-3.3762,-3.5066,-3.595,-3.6498,-3.6595,-3.5961,-3.4888,-3.3228,-3.2256,-3.1396,-3.0255,-3.0083,-3.0121,-3.0123,-3.1046,-3.2008,-3.2596,-3.5048,0.0,0.0,0.0,0.0,-4.3157,-4.5144,-4.7188,-4.8938,-4.8826,-4.8887,-4.9475,-4.9112,-4.9144,-4.9787,-4.9413,-4.9789,-5.106,-5.0636,-5.0397,-5.0404,-4.8748,-4.791,-4.7891,-4.6745,-4.6199,-4.6199,-4.6199,-4.6203,-4.6206,-4.6206,-4.6196,-4.6192,-4.6192,-4.6192,-4.6192,-4.6192,-4.6206,-4.6196,-4.6196,-4.6203,-4.6192,0.0,0.0,0.0,0.0,0.0,0.0,0.0,0.0,0.0,0.0,0.0,0.0,0.0,0.0,0.0,0.0,0.0,0.0,0.0,0.0,0.0,0.0,0.0,0.0,0.0,0.0,0.0,0.0,0.0,0.0,0.0,0.0,0.0,0.0,0.0,0.0,0.0,0.0,0.0,0.0,0.0,0.0,-2.6058,0.0,0.0,0.0,0.0,0.0,0.0,0.0,0.0,0.0,0.0,0.0,0.0,0.0,-2.9555,-3.1362,0.0,-3.3928,-3.4469,-3.4569,-3.4213,-3.3488,-3.2128,-3.1501,-3.0947,-3.0127,-3.0022,-3.0061,-3.0098,-3.1066,-3.2122,-3.2977,-3.5247,0.0,0.0,0.0,0.0,-4.3673,0.0,-4.694,-4.8009,-4.7977,-4.8126,-4.8647,-4.8356,-4.84,-4.8985,-4.8655,-4.898,-5.0162,-4.9761,-4.953,-4.9547,-4.8183,-4.7501,-4.7482,-4.6628,-4.6199,-4.6199,-4.6199,-4.6199,-4.6199,-4.6199,-4.6203,0.0,-4.6196,-4.6196,-4.6196,-4.6196,-4.6209,-4.6199,-4.6199,-4.6206,-4.6196,0.0,0.0,0.0,0.0,0.0,0.0,0.0,0.0,0.0,0.0,0.0,0.0,0.0,0.0,0.0,0.0,0.0,0.0,0.0,0.0,0.0,0.0,0.0,0.0,0.0,0.0,0.0,-2.4098,-2.4289,-2.5173,-2.6691,0.0,0.0,0.0,0.0,0.0,0.0,0.0,0.0,0.0,-2.5032,-2.5101,0.0,0.0,0.0,0.0,0.0,0.0,0.0,0.0,0.0,0.0,0.0,0.0,0.0,0.0,0.0,0.0,0.0,-3.1499,-3.1811,-3.1867,-3.1942,-3.18,-3.1052,-3.0894,0.0,-2.9998,-2.9932,-3.0026,-3.0148,-3.1496,-3.2866,-3.3741,-3.5987,0.0,0.0,-4.1683,0.0,0.0,-4.5946,-4.6432,-4.65,-4.7242,-4.7775,-4.7905,-4.7998,-4.8108,-4.8306,-4.8322,-4.8405,-4.8599,-4.8548,-4.8588,-4.8709,-4.7832,-4.7404,-4.7404,-4.6589,-4.6199,-4.6199,-4.6199,-4.6199,-4.6199,-4.6199,-4.6199,-4.6199,-4.6199,-4.6199,-4.6199,-4.6199,-4.6199,-4.6199,-4.6199,-4.6199,-4.6199,0.0,0.0,0.0,0.0,0.0,0.0,0.0,0.0,0.0,0.0,0.0,0.0,0.0,0.0,0.0,0.0,0.0,0.0,0.0,0.0,0.0,0.0,0.0,0.0,0.0,0.0,0.0,-2.4098,-2.4146,-2.4995,-2.6623,-2.6505,0.0,0.0,0.0,0.0,0.0,0.0,0.0,0.0,-2.3753,-2.3727,0.0,0.0,0.0,0.0,-2.5605,-2.5816,0.0,0.0,0.0,0.0,0.0,0.0,0.0,0.0,-2.6957,-2.7692,-2.8281,0.0,-3.0984,-3.166,-3.1384,-3.0903,0.0,-3.0249,-2.9804,0.0,0.0,0.0,-3.0732,-3.1731,-3.2969,-3.4532,0.0,-3.8194,-3.9898,0.0,0.0,-4.5099,-4.5385,-4.5769,-4.6432,-4.6183,-4.6292,-4.7021,-4.664,-4.6689,-4.7437,-4.6968,-4.6979,-4.7672,-4.7112,-4.7127,-4.7793,-4.6936,-4.6511,-4.6511,-4.6297,-4.6199,-4.6199,-4.6199,-4.6199,-4.6199,-4.6199,-4.6199,-4.6199,-4.6199,-4.6199,-4.6199,-4.6199,-4.6199,-4.6199,-4.6199,-4.6199,-4.6199,0.0,0.0,0.0,0.0,0.0,0.0,0.0,0.0,0.0,0.0,0.0,0.0,0.0,0.0,0.0,0.0,0.0,0.0,0.0,0.0,0.0,0.0,0.0,0.0,0.0,0.0,0.0,0.0,0.0,-2.4746,0.0,0.0,0.0,0.0,0.0,0.0,0.0,0.0,0.0,0.0,-2.3319,0.0,0.0,0.0,0.0,0.0,-2.4544,-2.485,0.0,-2.5788,-2.6433,-2.7061,0.0,0.0,0.0,0.0,-2.7031,-2.7459,-2.7495,-2.8331,-2.9377,-3.021,-3.0145,-2.9865,-2.9898,0.0,0.0,0.0,0.0,0.0,0.0,0.0,0.0,0.0,-3.7309,0.0,0.0,0.0,-4.4581,-4.509,-4.5159,-4.5341,-4.5802,-4.5557,-4.5582,-4.6157,-4.5923,-4.6028,-4.6626,-4.6304,-4.6325,-4.684,-4.6426,-4.6433,-4.6897,-4.6433,-4.6199,-4.6199,-4.6199,-4.6199,-4.6199,-4.6199,-4.6199,-4.6199,-4.6199,-4.6199,-4.6199,-4.6199,-4.6199,-4.6199,-4.6199,-4.6199,-4.6199,-4.6199,-4.6199,-4.6199,0.0,0.0,0.0,0.0,0.0,0.0,0.0,0.0,0.0,0.0,0.0,0.0,0.0,0.0,0.0,0.0,0.0,0.0,0.0,0.0,0.0,0.0,0.0,0.0,0.0,0.0,0.0,0.0,0.0,0.0,0.0,0.0,-2.6303,0.0,0.0,0.0,0.0,0.0,0.0,0.0,-2.3267,0.0,0.0,0.0,0.0,0.0,0.0,0.0,0.0,-2.4622,-2.5569,-2.6706,-2.699,0.0,0.0,0.0,0.0,0.0,-2.7435,-2.7597,-2.7936,-2.8767,-2.9174,-2.936,-2.9419,0.0,0.0,0.0,0.0,0.0,0.0,0.0,0.0,0.0,0.0,0.0,-4.3468,-4.4532,-4.5061,-4.5091,-4.5072,-4.5091,-4.5103,-4.5213,-4.535,-4.5476,-4.5629,-4.5789,-4.5961,-4.6066,-4.6134,-4.6192,-4.6196,-4.6199,-4.6199,-4.6199,-4.6199,-4.6199,-4.6199,-4.6199,-4.6199,-4.6199,-4.6199,-4.6199,-4.6199,-4.6199,-4.6199,-4.6199,-4.6199,-4.6199,-4.6199,-4.6199,-4.6199,-4.6199,-4.6199,-4.6199,0.0,0.0,0.0,0.0,0.0,0.0,0.0,0.0,0.0,0.0,0.0,0.0,0.0,0.0,0.0,0.0,0.0,0.0,0.0,0.0,0.0,0.0,0.0,0.0,0.0,0.0,0.0,0.0,0.0,0.0,-2.6318,-2.6504,-2.6573,-2.6522,0.0,0.0,0.0,0.0,0.0,-2.3905,-2.3043,0.0,0.0,0.0,0.0,0.0,0.0,0.0,0.0,-2.4378,-2.4806,-2.5283,-2.6598,0.0,0.0,0.0,0.0,0.0,-2.7245,-2.7794,-2.86,-2.9575,-3.0336,-3.0878,-3.089,0.0,0.0,0.0,0.0,0.0,0.0,-3.4381,-3.5782,0.0,0.0,-4.3265,-4.3656,-4.4426,-4.4943,-4.5022,-4.5022,-4.5045,-4.5084,-4.5213,-4.5329,-4.541,-4.5594,-4.5761,-4.5917,-4.6027,-4.613,-4.6193,-4.6208,-4.6199,-4.6199,-4.6199,-4.6199,-4.6199,-4.6199,-4.6199,-4.6199,-4.6199,-4.6199,-4.6199,-4.6199,-4.6199,-4.6199,-4.6199,-4.6199,-4.6199,-4.6199,-4.6199,-4.6199,-4.6199,-4.6199,-4.6199,0.0,0.0,0.0,0.0,0.0,0.0,0.0,0.0,0.0,0.0,0.0,0.0,0.0,0.0,0.0,0.0,0.0,0.0,0.0,0.0,0.0,0.0,0.0,0.0,0.0,0.0,0.0,0.0,0.0,-2.5096,-2.5849,-2.5984,-2.61,-2.6148,0.0,0.0,0.0,0.0,-2.3802,-2.375,0.0,0.0,0.0,0.0,0.0,0.0,0.0,0.0,0.0,0.0,-2.4278,-2.489,-2.5997,0.0,0.0,0.0,0.0,0.0,-2.7841,-2.8779,-2.9859,-3.0315,-3.0798,-3.1151,-3.1151,0.0,0.0,0.0,0.0,0.0,0.0,0.0,-3.8474,-4.1427,0.0,-4.3853,-4.4289,-4.4668,-4.4907,-4.4931,-4.4962,-4.4955,-4.4979,-4.5091,-4.5184,-4.5292,-4.5472,-4.5661,-4.5835,-4.5966,-4.608,-4.6205,-4.6197,-4.6208,-4.6199,-4.6199,-4.6199,-4.6199,-4.6199,-4.6199,-4.6199,-4.6199,-4.6199,-4.6199,-4.6199,-4.6199,-4.6199,-4.6199,-4.6199,-4.6199,-4.6199,-4.6199,-4.6199,-4.6199,-4.6199,-4.6199,0.0,0.0,0.0,0.0,0.0,0.0,0.0,0.0,0.0,0.0,0.0,0.0,0.0,0.0,0.0,0.0,0.0,0.0,0.0,0.0,0.0,0.0,0.0,0.0,0.0,0.0,-2.3354,-2.4282,-2.493,-2.538,-2.5631,-2.5611,-2.5657,0.0,0.0,0.0,0.0,0.0,-2.357,-2.3519,0.0,0.0,0.0,0.0,0.0,0.0,0.0,0.0,0.0,0.0,0.0,0.0,0.0,0.0,0.0,-2.7687,-2.7861,-2.7803,-2.8237,-2.9251,-3.0302,-3.0679,-3.1181,-3.1632,-3.1859,0.0,0.0,0.0,0.0,0.0,0.0,-3.8101,0.0,-4.3348,-4.3853,-4.4194,-4.4819,-4.4895,-4.4895,-4.4895,-4.4895,-4.4895,-4.4895,-4.4955,-4.5061,-4.5167,-4.5362,-4.5549,-4.5728,-4.5898,-4.6032,-4.6156,-4.6173,-4.617,-4.6192,-4.6192,-4.6192,-4.6199,-4.6199,-4.6199,-4.6199,-4.6199,-4.6199,-4.6199,-4.6199,-4.6199,-4.6199,-4.6199,-4.6199,-4.6199,-4.6199,-4.6199,-4.6199,-4.6199,-4.6199,-4.6199,0.0,0.0,0.0,0.0,0.0,0.0,0.0,0.0,0.0,0.0,0.0,0.0,0.0,0.0,0.0,0.0,0.0,0.0,0.0,0.0,0.0,0.0,0.0,0.0,0.0,-2.2796,-2.3634,-2.5096,-2.5297,-2.5799,-2.659,-2.5978,-2.5705,-2.5653,0.0,0.0,0.0,0.0,-2.2859,-2.2873,-2.2885,0.0,0.0,0.0,0.0,0.0,0.0,0.0,0.0,0.0,0.0,0.0,0.0,0.0,-2.5158,-2.6652,-2.6563,-2.63,-2.7817,-2.8335,-2.8851,-3.032,-3.1832,0.0,-3.4053,-3.4307,0.0,-3.5501,0.0,0.0,0.0,-4.0146,-4.2475,-4.3538,-4.4326,-4.4838,-4.4895,-4.4895,-4.4895,-4.4895,-4.4895,-4.4895,-4.4895,-4.4955,-4.5026,-4.5095,-4.5291,-4.5447,-4.5516,-4.5768,-4.5935,-4.6008,-4.6061,-4.6149,-4.6209,-4.6189,-4.6201,-4.6199,-4.6199,-4.6199,-4.6199,-4.6199,-4.6199,-4.6199,-4.6199,-4.6199,-4.6199,-4.6199,-4.6199,-4.6199,-4.6199,-4.6199,-4.6199,-4.6199,-4.6199,-4.6199,0.0,0.0,0.0,0.0,0.0,0.0,0.0,0.0,0.0,0.0,0.0,0.0,0.0,0.0,0.0,0.0,0.0,0.0,0.0,0.0,0.0,0.0,0.0,-2.244,-2.3358,-2.3968,-2.458,-2.5196,-2.5832,-2.6101,-2.6015,-2.5792,0.0,0.0,0.0,0.0,0.0,0.0,0.0,-2.2803,-2.2863,-2.2906,0.0,0.0,0.0,0.0,0.0,0.0,0.0,0.0,-2.2245,-2.2582,0.0,-2.4694,-2.4998,-2.6563,-2.6782,-2.68,-2.7892,-2.8919,-2.9823,-3.0412,0.0,0.0,0.0,-3.494,-3.561,-3.6608,-3.7846,0.0,0.0,0.0,-4.345,-4.4308,-4.4706,-4.4895,-4.4895,-4.4895,-4.4895,-4.4895,-4.4895,-4.4895,-4.4895,-4.4919,-4.4974,-4.5026,-4.5184,-4.5321,-4.5438,-4.561,-4.5754,-4.5873,-4.5969,-4.6066,-4.6147,-4.6141,-4.6158,-4.6201,-4.6192,-4.6199,-4.6199,-4.6199,-4.6199,-4.6199,-4.6199,-4.6199,-4.6199,-4.6199,-4.6199,-4.6199,-4.6199,-4.6199,-4.6199,-4.6199,-4.6199,-4.6199,0.0,0.0,0.0,0.0,0.0,0.0,0.0,0.0,0.0,0.0,0.0,0.0,0.0,0.0,0.0,0.0,0.0,0.0,0.0,0.0,0.0,0.0,0.0,-2.2538,-2.3802,-2.4695,-2.5295,-2.5597,-2.6286,-2.6404,-2.5947,0.0,0.0,0.0,0.0,0.0,0.0,0.0,0.0,0.0,-2.307,-2.3033,0.0,0.0,0.0,0.0,0.0,0.0,0.0,0.0,-2.2245,-2.2517,0.0,0.0,-2.4623,-2.6175,-2.6461,-2.655,-2.7839,-2.8962,-2.9958,0.0,0.0,0.0,-3.5319,-3.6049,-3.6759,-3.7797,-3.9399,-4.1173,-4.3053,0.0,0.0,-4.4781,-4.4895,-4.4895,-4.4895,-4.4895,-4.4895,-4.4895,-4.4895,-4.4895,-4.4895,-4.4895,-4.4919,-4.4955,-4.5061,-4.5184,-4.5301,-4.5447,-4.5585,-4.5706,-4.5867,-4.5986,-4.6075,-4.6061,-4.6108,-4.6177,-4.6174,-4.6185,-4.6199,-4.6199,-4.6199,-4.6199,-4.6199,-4.6199,-4.6199,-4.6199,-4.6199,-4.6199,-4.6199,-4.6199,-4.6199,-4.6199,-4.6199,-4.6196,0.0,0.0,0.0,0.0,0.0,0.0,0.0,0.0,0.0,0.0,0.0,0.0,0.0,0.0,0.0,0.0,0.0,0.0,0.0,0.0,0.0,0.0,0.0,-2.3079,-2.3885,-2.4763,-2.5647,-2.6502,-2.6624,-2.6691,-2.6674,-2.5327,0.0,0.0,0.0,0.0,0.0,0.0,0.0,0.0,-2.3517,-2.3318,-2.3301,0.0,0.0,0.0,0.0,0.0,0.0,0.0,-2.2245,-2.2428,-2.3169,0.0,0.0,-2.5354,-2.5283,-2.5229,-2.7571,-2.8231,-2.883,0.0,0.0,0.0,-3.7245,-3.795,-3.8236,-3.9392,-4.0763,-4.2072,-4.3198,-4.3517,-4.3881,-4.4769,-4.4895,-4.4895,-4.4895,-4.4895,-4.4895,-4.4895,-4.4895,-4.4895,-4.4895,-4.4895,-4.4895,-4.4895,-4.4955,-4.5033,-4.5103,-4.5291,-4.5428,-4.5509,-4.5681,-4.5854,-4.5991,-4.6005,-4.6027,-4.6093,-4.6098,-4.6138,-4.6199,-4.6199,-4.6199,-4.6199,-4.6199,-4.6199,-4.6199,-4.6199,-4.6199,-4.6199,-4.6199,-4.6199,-4.6199,-4.6199,-4.6199,-4.6196,0.0,0.0,0.0,0.0,0.0,0.0,0.0,0.0,0.0,0.0,0.0,0.0,0.0,0.0,0.0,0.0,0.0,0.0,0.0,0.0,0.0,0.0,0.0,0.0,0.0,0.0,-2.6319,-2.6571,-2.6657,-2.6471,0.0,0.0,0.0,-2.481,0.0,0.0,0.0,0.0,0.0,0.0,-2.3942,-2.3808,-2.3354,0.0,0.0,0.0,0.0,0.0,0.0,0.0,0.0,0.0,-2.3204,0.0,0.0,-2.5354,-2.5658,-2.5997,-2.8392,-2.9408,0.0,-3.2146,0.0,0.0,0.0,-3.833,0.0,0.0,-4.2728,-4.3333,-4.3876,-4.4183,-4.448,-4.477,-4.4858,-4.4895,-4.4895,-4.4895,-4.4895,-4.4895,-4.4895,-4.4895,-4.4895,-4.4895,-4.4895,-4.4895,-4.4907,-4.4955,-4.5033,-4.5129,-4.526,-4.5428,-4.558,-4.5723,-4.5854,-4.5955,-4.6011,-4.6022,-4.6081,-4.6137,-4.6197,-4.6197,-4.6204,-4.6199,-4.6199,-4.6199,-4.6199,-4.6199,-4.6199,-4.6199,-4.6199,-4.6199,-4.6199,-4.6199,-4.6208,-4.6193,0.0,0.0,0.0,0.0,0.0,0.0,0.0,0.0,0.0,0.0,0.0,0.0,0.0,0.0,0.0,0.0,0.0,0.0,0.0,0.0,0.0,0.0,0.0,0.0,0.0,-2.5899,-2.6606,0.0,0.0,0.0,0.0,0.0,0.0,-2.4886,0.0,-2.4192,0.0,0.0,0.0,0.0,-2.4034,-2.3915,-2.3552,0.0,0.0,0.0,0.0,0.0,0.0,0.0,0.0,0.0,0.0,0.0,0.0,-2.5354,-2.58,-2.6336,-2.8744,-2.994,0.0,-3.293,-3.4968,-3.6952,-3.8761,0.0,0.0,0.0,-4.3458,-4.3791,-4.4075,-4.4374,-4.4632,-4.4732,-4.4827,-4.4858,-4.4895,-4.4895,-4.4895,-4.4895,-4.4895,-4.4895,-4.4895,-4.4895,-4.4895,-4.4895,-4.4895,-4.4907,-4.4955,-4.5014,-4.514,-4.532,-4.5447,-4.5596,-4.5757,-4.5874,-4.5923,-4.5964,-4.6035,-4.6071,-4.6128,-4.6149,-4.6166,-4.6208,-4.6196,-4.6199,-4.6199,-4.6199,-4.6199,-4.6199,-4.6199,-4.6199,-4.6196,-4.6208,-4.6174,-4.6149,0.0,0.0,-1.9665,-1.9812,0.0,0.0,0.0,0.0,0.0,0.0,0.0,-1.8687,0.0,0.0,0.0,-2.1087,0.0,0.0,0.0,0.0,0.0,0.0,0.0,0.0,0.0,0.0,0.0,0.0,0.0,0.0,0.0,0.0,-2.571,-2.5021,0.0,-2.467,0.0,0.0,0.0,0.0,-2.3947,-2.3815,-2.3815,-2.3865,0.0,0.0,0.0,0.0,0.0,0.0,0.0,0.0,-2.3448,-2.3459,-2.3808,-2.5354,-2.5854,-2.6443,-2.8852,0.0,0.0,-3.3693,-3.5608,0.0,-4.0772,-4.1645,-4.1994,-4.2812,0.0,-4.3631,-4.3892,-4.4173,-4.444,-4.4646,-4.4719,-4.4815,-4.487,-4.4883,-4.4883,-4.4895,-4.4895,-4.4895,-4.4895,-4.4895,-4.4895,-4.4895,-4.4895,-4.4895,-4.4895,-4.4955,-4.5038,-4.5181,-4.533,-4.5485,-4.5684,-4.5757,-4.5815,-4.588,-4.5955,-4.5983,-4.5997,-4.6071,-4.6126,-4.6185,-4.6185,-4.6192,-4.6192,-4.6192,-4.6192,-4.6196,-4.6192,-4.6192,-4.6192,-4.6193,-4.6149,-4.608,0.0,0.0,-1.9935,-1.9937,0.0,0.0,0.0,0.0,-1.887,-1.8408,-1.8377,-1.8718,-1.9562,-1.9862,0.0,-2.1039,-2.1167,0.0,0.0,0.0,0.0,0.0,0.0,0.0,0.0,0.0,0.0,0.0,0.0,0.0,0.0,0.0,0.0,-2.591,0.0,-2.4795,0.0,0.0,0.0,-2.3812,-2.4415,-2.4299,-2.3847,-2.4443,-2.4288,0.0,0.0,0.0,0.0,0.0,0.0,0.0,-2.3539,-2.3528,-2.3808,-2.5354,-2.6247,-2.7264,0.0,-3.1296,0.0,0.0,-3.7095,-3.9703,-4.1652,-4.2217,-4.2428,-4.2786,-4.3013,-4.3214,-4.3548,-4.3878,-4.4173,-4.4426,-4.4565,-4.4667,-4.4796,-4.4821,-4.4833,-4.4883,-4.4895,-4.4895,-4.4895,-4.4895,-4.4895,-4.4895,-4.4895,-4.4895,-4.4895,-4.4907,-4.4979,-4.5125,-4.5188,-4.5342,-4.5549,-4.5657,-4.5757,-4.5827,-4.5887,-4.5918,-4.5935,-4.6056,-4.6099,-4.6122,-4.613,-4.6111,-4.6111,-4.6111,-4.6142,-4.6193,-4.6138,-4.6142,-4.6193,-4.613,-4.6075,-4.6007,0.0,0.0,0.0,0.0,0.0,0.0,0.0,0.0,-1.912,-1.847,-1.8796,-1.9249,-1.9704,-2.0178,0.0,0.0,-2.123,-2.134,0.0,0.0,0.0,0.0,0.0,0.0,0.0,0.0,0.0,0.0,0.0,0.0,0.0,0.0,0.0,-2.566,0.0,-2.4599,0.0,0.0,-2.2843,-2.3019,-2.3606,-2.3397,-2.2869,-2.4076,-2.4039,-2.3404,-2.3652,0.0,0.0,0.0,0.0,0.0,0.0,0.0,-2.3843,-2.5354,-2.6104,-2.7014,0.0,0.0,0.0,-3.5578,0.0,-4.0305,-4.193,-4.2346,-4.2427,-4.2548,-4.2728,-4.2975,-4.316,-4.3461,-4.3761,-4.406,-4.4288,-4.4491,-4.4685,-4.4719,-4.4789,-4.4833,-4.4846,-4.4858,-4.4895,-4.4895,-4.4895,-4.4895,-4.4895,-4.4895,-4.4895,-4.4895,-4.4943,-4.5057,-4.5109,-4.521,-4.5371,-4.5494,-4.5607,-4.5715,-4.5769,-4.5826,-4.5867,-4.5994,-4.6076,-4.6099,-4.6093,-4.6098,-4.6098,-4.6098,-4.6122,-4.6154,-4.6102,-4.6122,-4.6149,-4.6075,-4.6007,-4.5922,0.0,0.0,0.0,0.0,0.0,0.0,0.0,0.0,0.0,-1.889,-1.95,-1.9988,-2.002,-2.0735,-2.1199,0.0,0.0,0.0,-2.162,0.0,0.0,0.0,0.0,0.0,0.0,0.0,0.0,0.0,0.0,0.0,0.0,0.0,0.0,-2.5308,0.0,0.0,0.0,0.0,-2.2351,-2.2393,-2.2777,-2.248,-2.2018,-2.3517,-2.3691,-2.3178,-2.3729,-2.3917,-2.3907,-2.385,0.0,0.0,0.0,0.0,-2.3905,-2.5248,-2.5813,-2.6616,0.0,0.0,0.0,0.0,-3.8754,0.0,-4.1752,-4.2218,-4.2308,-4.2308,-4.2548,-4.2764,-4.2843,-4.3069,-4.3338,-4.3658,-4.3934,-4.4196,-4.4477,-4.4605,-4.4685,-4.4764,-4.4789,-4.4808,-4.4889,-4.487,-4.4883,-4.4895,-4.4895,-4.4895,-4.4895,-4.4895,-4.4938,-4.4967,-4.5057,-4.5109,-4.5169,-4.5292,-4.5438,-4.5559,-4.5627,-4.5696,-4.5759,-4.5886,-4.5994,-4.6075,-4.6061,-4.6071,-4.6071,-4.6075,-4.608,-4.6084,-4.6084,-4.6084,-4.608,-4.6012,-4.5953,-4.5854,0.0,0.0,0.0,0.0,0.0,0.0,0.0,0.0,0.0,0.0,-2.0588,-2.0733,-2.0911,-2.1087,-2.1215,-2.1278,-2.1356,-2.1479,0.0,0.0,0.0,0.0,0.0,0.0,0.0,0.0,0.0,0.0,0.0,0.0,0.0,0.0,0.0,-2.6107,0.0,0.0,0.0,0.0,-2.3016,-2.264,-2.3489,-2.3415,-2.2914,-2.3774,-2.402,-2.3938,-2.3979,-2.3986,-2.3986,-2.3976,-2.3935,0.0,0.0,0.0,-2.393,-2.4705,-2.5887,-2.7151,0.0,0.0,0.0,0.0,-3.8754,-4.0126,0.0,0.0,-4.2308,0.0,-4.2445,-4.2566,-4.2629,-4.2824,-4.3032,-4.332,-4.3545,-4.3793,-4.4106,-4.4321,-4.4482,-4.4605,-4.4685,-4.4751,-4.4815,-4.4808,-4.4833,-4.4914,-4.4895,-4.4895,-4.4895,-4.4895,-4.4895,-4.4907,-4.4986,-4.5057,-4.5106,-4.5203,-4.5269,-4.5342,-4.5466,-4.5556,-4.5629,-4.5712,-4.5812,-4.5925,-4.5923,-4.5935,-4.5935,-4.5983,-4.6011,-4.6012,-4.6012,-4.6012,-4.6007,-4.5994,-4.5925,-4.578,0.0,0.0,0.0,0.0,0.0,0.0,0.0,0.0,0.0,0.0,0.0,-2.1071,-2.1199,-2.1278,-2.134,-2.145,-2.1526,0.0,0.0,0.0,0.0,0.0,0.0,0.0,0.0,0.0,0.0,0.0,0.0,0.0,0.0,-2.6959,-2.7327,0.0,0.0,0.0,0.0,0.0,-2.3012,-2.2478,-2.2996,-2.3052,-2.2966,-2.4245,-2.4466,-2.4167,-2.4576,-2.4458,-2.4103,-2.4074,-2.4064,-2.4036,-2.3907,0.0,0.0,0.0,-2.5291,0.0,-2.8312,0.0,0.0,0.0,-3.7773,-3.8933,-4.0164,-4.0699,-4.0967,-4.0967,-4.1364,-4.185,-4.234,-4.2568,-4.2746,-4.2939,-4.3214,-4.3478,-4.3777,-4.4017,-4.4233,-4.436,-4.4505,-4.4619,-4.4685,-4.4706,-4.4757,-4.4833,-4.4833,-4.4858,-4.4895,-4.4895,-4.4895,-4.4895,-4.4919,-4.4955,-4.4998,-4.5049,-4.514,-4.5248,-4.533,-4.54,-4.5419,-4.5456,-4.5596,-4.578,-4.588,-4.5899,-4.5906,-4.5937,-4.5941,-4.5947,-4.5929,-4.5943,-4.5937,-4.5906,-4.5812,-4.5669,0.0,0.0,0.0,0.0,0.0,0.0,0.0,0.0,0.0,0.0,0.0,-2.1262,-2.1372,0.0,0.0,0.0,-2.1664,0.0,0.0,0.0,0.0,0.0,0.0,0.0,0.0,0.0,0.0,0.0,0.0,0.0,-2.4955,-2.7112,-2.7538,0.0,-2.7193,0.0,0.0,0.0,0.0,-2.2642,-2.3055,-2.3125,-2.3204,-2.5084,-2.5348,-2.4807,-2.5599,-2.5293,-2.4502,-2.4424,-2.4316,-2.417,-2.4006,-2.3986,0.0,0.0,0.0,0.0,0.0,0.0,0.0,-3.4991,-3.6542,-3.7879,0.0,0.0,-3.9895,-3.9895,-4.0396,-4.0985,-4.1573,-4.2098,-4.2488,-4.2631,-4.2863,-4.3142,-4.3391,-4.3646,-4.3873,-4.4026,-4.4233,-4.4397,-4.4491,-4.456,-4.4659,-4.4732,-4.477,-4.4821,-4.487,-4.4883,-4.4895,-4.4895,-4.4895,-4.4895,-4.4895,-4.4943,-4.5026,-4.5148,-4.5192,-4.5224,-4.5246,-4.5279,-4.5371,-4.5585,-4.5742,-4.5812,-4.5826,-4.5854,-4.5874,-4.5867,-4.586,-4.5847,-4.5852,-4.5761,-4.5657,-4.5537,0.0,0.0,0.0,0.0,0.0,0.0,0.0,0.0,0.0,0.0,0.0,-2.1372,-2.1574,-2.1589,-2.162,-2.1694,-2.1709,0.0,0.0,0.0,0.0,0.0,0.0,0.0,0.0,0.0,0.0,0.0,0.0,0.0,-2.4937,-2.6595,-2.7316,-2.7246,-2.7421,-2.7522,-2.7391,0.0,0.0,-2.3526,-2.4486,-2.4469,-2.4094,-2.6547,-2.7027,-2.6461,-2.7205,-2.656,-2.5328,-2.5256,-2.4782,-2.418,-2.4103,-2.4094,-2.4054,0.0,0.0,0.0,0.0,-2.9804,0.0,-3.2755,0.0,0.0,0.0,0.0,-3.9895,-3.9895,-3.993,-3.9966,-4.0019,-4.127,-4.2366,-4.2503,-4.2588,-4.2689,-4.2901,-4.3178,-4.3408,-4.3612,-4.3814,-4.4005,-4.421,-4.435,-4.4468,-4.4605,-4.4738,-4.4796,-4.4815,-4.4877,-4.4895,-4.4895,-4.4895,-4.4895,-4.4895,-4.4895,-4.4931,-4.5003,-4.5003,-4.5057,-4.5114,-4.5181,-4.5213,-4.5246,-4.5505,-4.5618,-4.5621,-4.5746,-4.5815,-4.5795,-4.5737,-4.5708,-4.5688,-4.5648,-4.5519,-4.541,0.0,0.0,0.0,0.0,0.0,0.0,0.0,0.0,0.0,0.0,0.0,0.0,0.0,-2.1664,-2.1724,-2.1811,-2.1869,0.0,0.0,0.0,0.0,0.0,0.0,0.0,0.0,0.0,0.0,0.0,0.0,-2.3873,-2.4242,-2.6335,-2.7299,-2.7332,-2.7878,-2.761,-2.6695,-2.6121,0.0,-2.4865,-2.5892,-2.6494,-2.6946,-2.8393,-2.8863,-2.8779,-2.8998,-2.8152,-2.6924,-2.6867,-2.6031,-2.5028,-2.4902,-2.4158,-2.3269,-2.2989,-2.3867,0.0,0.0,0.0,0.0,-3.2157,-3.3627,-3.4887,-3.6417,-3.7237,-3.7809,-3.8308,-3.8826,-3.9181,-3.9181,-4.0467,-4.1558,-4.1598,-4.2125,-4.2568,-4.2689,-4.2901,-4.3087,-4.3196,-4.3442,-4.361,-4.3691,-4.3905,-4.4158,-4.4331,-4.4477,-4.4613,-4.4783,-4.4821,-4.4865,-4.4895,-4.4895,-4.4895,-4.4895,-4.4895,-4.4907,-4.495,-4.495,-4.4943,-4.4967,-4.501,-4.5026,-4.5091,-4.5216,-4.5351,-4.5475,-4.5575,-4.5601,-4.5601,-4.5528,-4.5493,-4.5438,-4.5429,-4.5351,-4.5258,0.0,0.0,0.0,-2.3867,0.0,-2.2346,-2.1905,-2.1706,-2.162,-2.1664,0.0,0.0,0.0,0.0,-2.184,-2.1943,-2.2015,-2.2106,-2.2183,0.0,0.0,0.0,0.0,0.0,0.0,0.0,0.0,0.0,0.0,0.0,0.0,-2.5402,-2.6264,-2.654,-2.7087,-2.7187,0.0,0.0,0.0,-2.5944,-2.6911,-2.7714,-2.8506,-3.0196,-3.0794,-3.0774,-3.0966,-3.0119,-2.8863,-2.8518,-2.7415,-2.612,-2.5784,-2.4527,-2.3113,-2.2794,-2.3525,0.0,-2.5963,0.0,0.0,0.0,0.0,-3.3183,-3.4746,-3.558,-3.6238,-3.7041,-3.7612,-3.8094,-3.8344,-3.9468,-4.0503,-4.102,-4.1616,-4.2123,-4.2454,-4.2649,-4.2786,-4.2844,-4.3069,-4.3213,-4.3248,-4.3563,-4.3846,-4.4011,-4.4262,-4.4496,-4.4699,-4.4757,-4.4821,-4.4895,-4.4895,-4.4895,-4.4895,-4.4895,-4.4895,-4.4895,-4.4895,-4.4895,-4.4895,-4.4895,-4.4919,-4.4967,-4.5003,-4.5151,-4.5351,-4.54,-4.5429,-4.5438,-4.537,-4.5301,-4.526,-4.5246,-4.5192,-4.5125,-2.586,-2.5307,-2.4832,-2.48,-2.367,-2.2752,-2.2752,-2.2129,-2.1715,-2.1864,0.0,0.0,0.0,0.0,0.0,-2.2013,-2.212,-2.2214,-2.2214,-2.2254,0.0,0.0,0.0,0.0,0.0,0.0,0.0,0.0,0.0,0.0,0.0,0.0,-2.4215,-2.4971,-2.4988,-2.626,-2.8309,0.0,-2.6492,-2.67,0.0,-2.8113,-2.8677,-3.1894,-3.2778,-3.2383,-3.3109,-3.2412,-3.1062,-3.0193,-2.8866,-2.7447,-2.662,-2.5146,-2.3681,-2.3365,-2.3728,-2.4418,0.0,0.0,0.0,0.0,0.0,0.0,-3.2737,-3.3977,-3.5364,-3.6167,-3.6363,-3.6631,-3.7434,-3.8219,-3.9272,-4.0788,-4.1074,-4.1377,-4.22,-4.2425,-4.2506,-4.2589,-4.2706,-4.2842,-4.2976,-4.3304,-4.3548,-4.3679,-4.4109,-4.4411,-4.4501,-4.4699,-4.4821,-4.4883,-4.4895,-4.4895,-4.4895,-4.4895,-4.4895,-4.4895,-4.4895,-4.4895,-4.4895,-4.4895,-4.4895,-4.4895,-4.4895,-4.5003,-4.5192,-4.5256,-4.5297,-4.5286,-4.5213,-4.5192,-4.5181,-4.5125,-4.5038,-4.501,-2.5897,-2.5733,-2.544,-2.4969,-2.4542,-2.4165,-2.3768,-2.3536,-2.3451,0.0,0.0,0.0,-2.367,-2.3229,-2.2723,-2.2202,-2.2225,-2.2268,-2.2268,-2.2282,-2.2296,-2.2296,-2.2296,-2.2338,0.0,0.0,0.0,0.0,0.0,0.0,0.0,0.0,0.0,0.0,-2.4747,-2.5365,-2.5984,-2.6172,0.0,-2.7307,-2.8862,-3.0231,-3.1475,-3.3056,-3.3986,-3.4456,-3.4625,-3.41,-3.3219,-3.2448,-3.1164,-2.9332,-2.6225,-2.4836,-2.4106,-2.2816,-2.2864,-2.3653,-2.501,0.0,0.0,0.0,0.0,0.0,-3.1593,-3.2734,-3.3758,-3.4579,-3.5614,-3.647,-3.6684,-3.738,-3.8255,-3.9272,-4.0378,-4.1377,-4.22,-4.2328,-4.2366,-4.2389,-4.2488,-4.2586,-4.2627,-4.2993,-4.3304,-4.3475,-4.3873,-4.4218,-4.4487,-4.4699,-4.4815,-4.4821,-4.487,-4.4895,-4.4895,-4.4895,-4.4895,-4.4895,-4.4895,-4.4895,-4.4895,-4.4895,-4.4895,-4.4895,-4.4895,-4.4931,-4.4998,-4.5068,-4.5091,-4.5091,-4.5049,-4.5033,-4.4967,-4.4955,-4.4931,-4.4919,-2.6007,-2.6041,-2.5911,-2.5556,-2.5242,-2.4928,-2.4679,-2.4378,-2.421,0.0,0.0,0.0,-2.4384,-2.4027,-2.362,-2.3199,-2.2907,-2.2767,-2.2767,-2.2465,-2.231,-2.2338,-2.2338,-2.2394,-2.2487,0.0,0.0,0.0,0.0,0.0,0.0,0.0,0.0,0.0,-2.3681,-2.3871,-2.3677,-2.5098,-2.6147,0.0,-2.9109,-3.0725,-3.2106,-3.3652,-3.4783,-3.5563,-3.551,-3.5243,-3.4796,-3.4082,-3.2679,-3.0618,-2.7274,-2.5927,-2.5346,-2.3998,-2.3791,-2.4279,-2.5546,-2.5851,0.0,-2.7967,0.0,0.0,-3.0271,-3.1491,-3.2632,-3.3419,-3.4613,-3.5576,-3.5916,-3.6613,-3.7399,-3.8202,-3.9362,-4.0538,-4.1627,-4.2093,-4.2308,-4.2308,-4.2366,-4.2445,-4.2483,-4.2803,-4.3087,-4.3303,-4.3714,-4.4131,-4.4487,-4.4605,-4.4725,-4.4815,-4.4833,-4.487,-4.4895,-4.4895,-4.4895,-4.4895,-4.4895,-4.4895,-4.4895,-4.4895,-4.4895,-4.4895,-4.4895,-4.4895,-4.4895,-4.4931,-4.4955,-4.4955,-4.4955,-4.4931,-4.4895,-4.4895,-4.4895,-4.4895,0.0,-2.6221,-2.6257,-2.6312,-2.578,-2.5397,-2.5497,-2.4977,-2.4606,0.0,-2.487,-2.4868,-2.4762,-2.4745,-2.4677,-2.4508,-2.3898,-2.3477,-2.341,-2.2784,-2.2423,-2.2408,-2.2422,-2.2474,-2.2609,-2.2592,0.0,0.0,0.0,0.0,0.0,0.0,0.0,-2.1751,-2.2406,-2.2337,-2.1867,-2.4074,-2.5463,-2.6402,-2.8844,-3.0472,-3.169,-3.3949,-3.5286,-3.5993,-3.5993,-3.5993,-3.5888,-3.5223,-3.3611,-3.1505,-2.9276,-2.7973,-2.709,-2.6237,-2.5791,0.0,-2.6665,-2.6756,0.0,-2.7754,-2.8611,0.0,-2.9136,-3.046,-3.1882,-3.2523,-3.3498,-3.4442,-3.5159,-3.591,-3.6664,-3.747,-3.8221,-3.9255,-4.086,-4.1716,-4.2218,-4.2308,-4.2308,-4.2346,-4.2463,-4.2727,-4.2957,-4.3123,-4.3599,-4.4039,-4.4411,-4.444,-4.4565,-4.4745,-4.4789,-4.4808,-4.4883,-4.4895,-4.4895,-4.4895,-4.4895,-4.4895,-4.4895,-4.4895,-4.4895,-4.4895,-4.4895,-4.4895,-4.4895,-4.4895,-4.4895,-4.4895,-4.4895,-4.4895,-4.4895,-4.4895,-4.4895,-4.4895,-2.6415,-2.6433,-2.645,-2.6468,-2.6334,-2.6285,-2.6336,-2.6236,-2.6387,-2.7046,-2.7705,-2.7621,-2.6387,-2.6268,-2.5794,-2.4592,-2.4372,-2.4034,-2.3427,-2.3316,-2.3005,-2.2425,-2.2446,-2.2528,-2.2592,-2.2592,-2.2632,0.0,0.0,0.0,0.0,0.0,0.0,0.0,-2.263,-2.2612,-2.2595,-2.4267,-2.5419,-2.6381,-2.9383,-3.1792,-3.3737,-3.4894,-3.5839,-3.6539,-3.6539,-3.6539,-3.6457,-3.5845,-3.4235,-3.2344,-3.126,-3.0003,-2.8772,-2.7946,-2.7188,-2.6911,-2.8372,-2.8176,-2.7891,-2.9356,-2.9889,0.0,-2.9319,-3.0517,-3.1667,-3.1296,-3.2883,-3.442,-3.4564,-3.5297,-3.6089,-3.6852,-3.7645,-3.8852,-4.0828,-4.1234,-4.1573,-4.2216,-4.2308,-4.2308,-4.2346,-4.2629,-4.2805,-4.2788,-4.3338,-4.3747,-4.4008,-4.417,-4.4331,-4.4482,-4.4646,-4.4745,-4.4808,-4.487,-4.4895,-4.4895,-4.4895,-4.4895,-4.4895,-4.4895,-4.4895,-4.4895,-4.4895,-4.4895,-4.4895,-4.4895,-4.4895,-4.4895,-4.4895,-4.4895,-4.4895,-4.4895,-4.4895,-4.4895,-2.6485,-2.6502,-2.6502,-2.6537,-2.6554,-2.6572,-2.664,-2.6961,-2.7349,-2.7756,-2.8501,-2.8857,-2.8433,-2.8061,-2.7554,-2.6809,-2.6097,-2.5536,-2.518,-2.4137,-2.3411,-2.3064,-2.273,-2.2565,-2.2646,-2.2646,-2.2659,0.0,0.0,0.0,0.0,0.0,0.0,0.0,-2.2923,-2.3043,-2.2854,-2.5178,-2.6575,-2.742,-2.9367,-3.151,-3.3636,-3.4473,-3.5498,-3.6502,-3.6502,-3.6602,-3.6652,-3.6297,-3.5374,-3.4164,-3.3012,-3.1906,-3.0912,-3.0201,-2.9405,-2.8934,-2.9773,-2.9571,-2.9283,-3.0092,-3.0381,0.0,0.0,-3.0942,-3.1793,-3.1462,-3.2736,-3.3786,-3.3418,-3.4368,-3.5181,-3.5165,-3.6098,-3.7498,-3.9337,-4.0175,-4.074,-4.1153,-4.1129,-4.129,-4.1743,-4.1655,-4.1593,-4.1687,-4.2339,-4.2838,-4.3092,-4.3603,-4.4014,-4.4248,-4.4435,-4.46,-4.4764,-4.477,-4.4827,-4.4846,-4.4827,-4.4796,-4.4796,-4.4796,-4.4827,-4.4846,-4.4846,-4.4858,-4.4895,-4.4895,-4.4895,-4.4895,-4.4895,-4.4895,-4.4895,-4.4895,-4.4895,-4.4895,-2.6537,-2.6537,-2.6571,-2.6606,-2.6741,-2.6842,-2.6894,-2.7554,-2.8128,-2.8415,-2.9281,-3.0044,-3.0518,-3.0029,-2.9624,-2.9488,-2.8303,-2.7504,-2.7368,-2.542,-2.4232,-2.4153,-2.3447,-2.3093,-2.3129,-2.2992,-2.2905,-2.2905,0.0,0.0,0.0,-2.2699,-2.2457,-2.2078,0.0,0.0,0.0,0.0,-2.773,-2.8489,-2.9541,-3.1231,-3.3231,-3.4162,-3.5352,-3.6542,-3.668,-3.6915,-3.7102,-3.689,-3.6571,-3.5961,-3.4552,-3.3668,-3.3075,-3.2579,-3.1895,-3.1339,-3.1586,-3.1282,-3.0947,-3.1105,-3.1115,-3.0999,0.0,0.0,0.0,-3.1892,-3.2698,-3.3198,-3.2456,-3.3407,-3.4142,-3.3656,-3.459,-3.5916,-3.7515,-3.8634,-3.9497,-4.0051,-4.0009,-4.024,-4.0962,-4.0556,-4.0329,-4.0599,-4.1361,-4.1904,-4.2149,-4.3003,-4.3629,-4.3936,-4.417,-4.4393,-4.46,-4.464,-4.4706,-4.477,-4.4738,-4.4712,-4.4712,-4.4712,-4.4738,-4.477,-4.477,-4.4808,-4.4858,-4.4858,-4.4858,-4.4858,-4.4883,-4.4895,-4.4895,-4.4895,-4.4895,-4.4895,-2.6691,-2.6691,-2.6691,-2.6691,-2.7232,-2.7671,-2.7672,-2.8349,-2.9331,-3.0632,-3.2153,-3.2859,-3.2301,-3.221,-3.1927,-3.1278,-3.0475,-2.9724,-2.9075,-2.7568,-2.6416,-2.5764,-2.5099,-2.4732,-2.4747,-2.4043,-2.3681,-2.3681,0.0,0.0,0.0,-2.2699,-2.3009,-2.356,-2.3733,0.0,0.0,0.0,-2.773,-2.8575,-3.0679,-3.2507,-3.413,-3.5508,-3.6594,-3.7461,-3.8094,-3.8512,-3.8637,-3.792,-3.7356,-3.6823,-3.5867,-3.5223,-3.48,-3.4745,-3.4294,-3.3976,-3.4817,-3.3908,-3.2901,-3.3661,-3.3337,-3.2472,-3.1092,0.0,-3.2853,-3.1479,0.0,-3.335,-3.2602,0.0,0.0,-3.3755,-3.3999,-3.4656,-3.6197,-3.645,-3.7392,-3.9894,-4.0122,-4.0063,-4.0058,-3.9987,-4.0066,-4.0328,-4.103,-4.1519,-4.1668,-4.2559,-4.316,-4.339,-4.371,-4.3996,-4.425,-4.4491,-4.4646,-4.4725,-4.4712,-4.4712,-4.4712,-4.4712,-4.4693,-4.4725,-4.4725,-4.4725,-4.4706,-4.4706,-4.4706,-4.4719,-4.4846,-4.4895,-4.4895,-4.4895,-4.4895,-4.4895,-2.6691,-2.6691,-2.6691,-2.6691,-2.73,-2.7807,-2.7807,-2.9211,-3.0992,-3.2968,-3.3807,-3.4312,-3.4516,-3.4558,-3.4442,-3.4134,-3.3083,-3.2128,-3.1373,-2.954,-2.8164,-2.7423,-2.6283,-2.5643,-2.5643,-2.4902,-2.4267,-2.3802,-2.3491,0.0,0.0,0.0,-2.3095,-2.3836,-2.4732,0.0,-2.6488,0.0,-3.0093,-3.061,-3.3317,-3.48,-3.5439,-3.6059,-3.706,-3.8237,-3.8957,-3.9086,-3.8912,-3.8994,-3.8616,-3.8017,-3.7207,-3.6558,-3.6029,-3.5683,-3.5155,-3.4828,-3.54,-3.4663,-3.3874,-3.4357,-3.3867,-3.3105,-3.2506,-3.2929,-3.3266,-3.2623,0.0,0.0,0.0,0.0,0.0,0.0,-3.3226,-3.3789,-3.5427,-3.5161,-3.5491,-3.7416,-3.7934,-3.8241,-3.8541,-3.8986,-3.9113,-3.876,-3.9852,-4.0588,-4.0721,-4.2024,-4.2863,-4.3069,-4.3373,-4.3644,-4.3918,-4.414,-4.4321,-4.4398,-4.4449,-4.4468,-4.4468,-4.451,-4.4551,-4.4578,-4.4619,-4.4672,-4.4712,-4.4712,-4.4712,-4.4712,-4.4757,-4.4815,-4.4846,-4.4902,-4.4895,-4.4895,-2.7317,0.0,-2.6691,-2.6691,-2.7486,-2.8314,-2.8939,-3.0973,-3.3066,-3.478,-3.5428,-3.5954,-3.6588,-3.6701,-3.6722,-3.6722,-3.5582,-3.4579,-3.3802,-3.1883,-3.042,-2.9679,-2.8178,-2.7368,-2.7368,-2.623,-2.535,-2.4749,-2.4336,-2.3853,0.0,0.0,-2.3715,-2.4491,-2.5833,-2.6988,-2.8075,0.0,-3.1921,-3.2352,-3.5163,-3.6663,-3.7232,-3.7232,-3.7922,-3.8991,-3.975,-3.9772,-3.9482,-3.9794,-3.9601,-3.9077,-3.8308,-3.7746,-3.7295,-3.688,-3.6406,-3.6043,-3.629,-3.5675,-3.4898,-3.4875,-3.4317,-3.3655,-3.3273,-3.3371,-3.3494,-3.3276,-3.3445,0.0,0.0,0.0,-3.334,-3.2884,0.0,-3.292,-3.4436,-3.3854,-3.3917,-3.566,-3.6158,-3.6519,-3.6916,-3.7666,-3.7898,-3.7327,-3.8719,-3.9719,-4.0029,-4.1414,-4.2375,-4.2767,-4.2995,-4.3249,-4.3508,-4.3728,-4.3921,-4.4072,-4.4173,-4.4222,-4.4252,-4.4325,-4.4401,-4.4458,-4.4501,-4.4551,-4.4592,-4.4592,-4.4605,-4.4619,-4.4646,-4.4685,-4.4745,-4.4808,-4.4852,-4.4852,-2.8925,-2.7723,0.0,0.0,-2.796,-2.9687,-3.1836,-3.416,-3.5686,-3.5754,-3.7233,-3.8299,-3.8334,-3.8441,-3.8525,-3.8525,-3.7818,-3.7042,-3.6249,-3.4766,-3.3576,-3.28,-3.1334,-3.0559,-3.0559,-2.8368,-2.7213,-2.7178,-2.5695,-2.4954,0.0,0.0,0.0,0.0,-2.6885,-2.8075,-2.9541,-3.1127,-3.2214,-3.3076,-3.537,-3.7611,-3.9577,-3.9577,-3.9612,-3.9767,-4.0584,-4.0931,-4.0903,-4.0135,-3.9983,-3.9911,-3.9059,-3.8786,-3.886,-3.8953,-3.8638,-3.8261,-3.8517,-3.7542,-3.6287,-3.5699,-3.5116,-3.4273,-3.278,-3.3081,-3.3465,-3.2684,-3.3154,-3.3474,-3.2735,-3.2671,-3.2747,-3.2785,-3.2139,0.0,0.0,-3.2224,-3.2771,-3.5733,-3.5768,-3.5461,-3.5275,-3.6006,-3.647,-3.6435,-3.7933,-3.9165,-3.9878,-4.0699,-4.158,-4.2468,-4.265,-4.2808,-4.3014,-4.3284,-4.3525,-4.3726,-4.3923,-4.4033,-4.4124,-4.4237,-4.43,-4.43,-4.43,-4.4314,-4.4314,-4.4314,-4.4358,-4.4411,-4.4487,-4.4556,-4.4619,-4.4685,-4.4712,-4.4712,0.0,0.0,0.0,0.0,0.0,-3.0749,-3.3584,-3.5109,-3.6317,-3.7375,-3.8494,-3.9221,-3.9273,-3.9761,-4.0118,-4.0118,-3.9405,-3.8629,-3.787,-3.6387,-3.5214,-3.4456,-3.2972,-3.1921,-3.1438,-3.0179,-2.8799,-2.7299,-2.6782,-2.6006,0.0,0.0,0.0,0.0,0.0,-2.8868,0.0,0.0,0.0,-3.5352,-3.7629,-3.9319,-4.0446,-3.9888,-4.0026,-4.0532,-4.0808,-4.0935,-4.0924,-4.0648,-4.0585,-4.0487,-3.9646,-3.941,-3.9368,-3.9016,-3.8798,-3.8758,-3.9088,-3.8096,-3.6986,-3.7039,-3.5768,-3.4552,-3.475,-3.4604,-3.4501,-3.4818,-3.5064,-3.5159,-3.4938,-3.449,-3.4197,-3.43,-3.276,-3.1844,0.0,-3.2084,-3.1869,-3.2748,-3.3523,-3.4323,-3.5234,-3.5506,-3.5828,-3.6363,-3.7398,-3.8558,-3.9823,-4.0663,-4.1486,-4.2348,-4.2508,-4.2629,-4.2729,-4.2958,-4.316,-4.3374,-4.3563,-4.3749,-4.3915,-4.4039,-4.4147,-4.4244,-4.427,-4.43,-4.43,-4.43,-4.4314,-4.4344,-4.4358,-4.4387,-4.443,-4.4632,-4.4712,-4.4712,-2.9755,-2.9696,-2.9504,-2.9018,-3.0099,-3.1964,-3.4848,-3.6195,-3.742,-3.8997,-3.9943,-4.0576,-4.0905,-4.1412,-4.1602,-4.1326,-4.0802,-4.0077,-3.906,-3.806,-3.718,-3.6439,-3.5197,-3.418,-3.3421,-3.2145,-3.0627,-2.8885,-2.8075,-2.7178,0.0,0.0,0.0,0.0,0.0,-2.9644,-3.1265,-3.4024,-3.5783,-3.6887,-3.8888,-4.0164,-4.0843,-4.0325,-4.0463,-4.0912,-4.0912,-4.0912,-4.0912,-4.0912,-4.0912,-4.0808,-4.0284,-4.0112,-4.0049,-3.9714,-3.9458,-3.9325,-3.9581,-3.8822,-3.7962,-3.7929,-3.6754,-3.5683,-3.6112,-3.5641,-3.5281,-3.5836,-3.5915,-3.5933,-3.6009,-3.5382,-3.491,-3.5004,-3.3259,-3.19,0.0,-3.1163,-3.065,-3.0755,-3.2009,0.0,-3.4031,-3.454,-3.5025,-3.5543,-3.656,-3.7719,-3.9022,-4.0092,-4.1038,-4.1841,-4.2223,-4.2447,-4.249,-4.2668,-4.2824,-4.2975,-4.3214,-4.3427,-4.3634,-4.3832,-4.3995,-4.4107,-4.4147,-4.4192,-4.4192,-4.4192,-4.4226,-4.4255,-4.4255,-4.427,-4.4314,-4.4496,-4.4578,-4.4605,-3.1857,-3.1784,-3.117,-2.9456,-3.1092,-3.3414,-3.5724,-3.7425,-3.902,-4.0542,-4.1488,-4.2309,-4.3103,-4.3189,-4.2896,-4.2137,-4.2033,-4.1371,-3.9905,-3.9733,-3.9388,-3.8681,-3.7961,-3.7185,-3.6387,-3.4197,-3.2662,-3.1852,-2.961,-2.8472,0.0,0.0,0.0,0.0,-2.8834,0.0,-3.1955,-3.4266,-3.618,-3.7806,-3.9181,-4.0215,-4.0912,-4.0912,-4.0912,-4.0912,-4.0912,-4.0912,-4.0912,-4.0912,-4.0912,-4.0912,-4.0912,-4.0912,-4.0935,-4.1047,-4.0533,-3.9967,-4.0115,-3.9757,-3.9161,-3.847,-3.8011,-3.7542,-3.6896,-3.6276,-3.5863,-3.5899,-3.5881,-3.5894,-3.6025,-3.5393,-3.4863,-3.4936,-3.3629,-3.2076,-3.0581,-2.9639,-2.9343,-2.9971,-3.1284,0.0,0.0,-3.3094,-3.4008,-3.4044,-3.5471,-3.6702,-3.7559,-3.904,-4.0216,-4.1074,-4.1841,-4.2272,-4.2308,-4.2425,-4.2526,-4.2609,-4.2844,-4.3087,-4.3303,-4.3617,-4.3818,-4.3881,-4.3958,-4.3989,-4.4005,-4.4005,-4.407,-4.4184,-4.4184,-4.4244,-4.4285,-4.43,-4.4344,-4.4397,-3.237,-3.2794,-3.3448,-3.4112,-3.4544,-3.5302,-3.6735,-3.8237,-3.9811,-4.1461,-4.1871,-4.2309,-4.3103,-4.3189,-4.312,-4.2913,-4.2361,-4.1843,-4.1423,-4.0336,-3.9612,-3.9422,-3.8698,-3.7956,-3.7219,-3.6025,-3.4507,-3.2628,-3.092,-2.9523,-2.8385,0.0,0.0,0.0,0.0,-3.0368,-3.199,-3.4818,-3.756,-4.0066,-4.0446,-4.0722,-4.0912,-4.0912,-4.0912,-4.0912,-4.0912,-4.0912,-4.0912,-4.0912,-4.0912,-4.0912,-4.0912,-4.0912,-4.0912,-4.0935,-4.0821,-4.0665,-4.0799,-4.0296,-3.9747,-3.9695,-3.8857,-3.8215,-3.8781,-3.8435,-3.8187,-3.8834,-3.8492,-3.8115,-3.8236,-3.6698,-3.5473,-3.5672,-3.3954,-3.2247,-3.1274,-3.0882,-3.0733,-3.081,-3.1034,-3.1117,-3.0983,-3.1788,-3.2563,-3.3168,-3.4633,-3.6114,-3.7541,-3.854,-3.9718,-4.1056,-4.1306,-4.1698,-4.2308,-4.2328,-4.2407,-4.2526,-4.2649,-4.2825,-4.3087,-4.3321,-4.3512,-4.3681,-4.38,-4.3883,-4.3929,-4.3929,-4.3976,-4.4055,-4.4055,-4.407,-4.4101,-4.4237,-4.4314,-4.4329,-3.3425,-3.4216,-3.5325,-3.6595,-3.6962,-3.7321,-3.799,-3.9138,-4.0528,-4.2204,-4.276,-4.331,-4.4078,-4.4147,-4.4027,-4.3707,-4.3276,-4.2879,-4.2551,-4.1395,-4.0698,-4.0698,-4.0014,-3.9255,-3.8496,-3.7387,-3.587,-3.3904,-3.2076,-3.0386,-2.8868,0.0,0.0,0.0,0.0,-3.0541,-3.2507,-3.587,-3.8703,-4.0912,-4.0912,-4.0912,0.0,-4.0912,-4.0912,-4.0912,-4.0912,-4.0912,-4.0912,-4.0912,-4.0912,-4.0912,-4.0912,-4.0912,-4.0912,-4.0912,-4.0912,-4.0912,-4.0982,-4.0718,-4.0458,-4.0577,-3.9831,-3.9217,-3.9802,-3.9434,-3.9112,-3.9615,-3.9384,-3.905,-3.8828,-3.7542,-3.6274,-3.5545,-3.3779,-3.2344,-3.1887,-3.1443,-3.1106,-3.0943,-3.0488,-3.0134,-3.0015,-3.065,-3.1433,-3.2266,-3.3459,-3.4848,-3.6453,-3.7648,-3.8986,-4.0538,-4.0913,-4.1484,-4.2308,-4.2308,-4.2346,-4.2425,-4.2508,-4.2649,-4.2825,-4.3032,-4.3232,-4.3426,-4.3531,-4.3649,-4.3765,-4.3765,-4.3832,-4.3913,-4.3926,-4.3974,-4.402,-4.4131,-4.4211,-4.4259,-3.5093,-3.5984,-3.7021,-3.7872,-3.8674,-3.9241,-3.9446,-4.0153,-4.1263,-4.2877,-4.3743,-4.4535,-4.5284,-4.5397,-4.5121,-4.4492,-4.4363,-4.4035,-4.3379,-4.2603,-4.212,-4.2016,-4.1395,-4.0687,-3.9871,-3.841,-3.6943,-3.549,-3.311,-3.1162,-2.9644,0.0,0.0,0.0,0.0,0.0,0.0,-3.7094,-3.9497,-4.0912,-4.0912,-4.0912,-4.0912,-4.0912,-4.0912,-4.0912,-4.0912,-4.0912,-4.0912,-4.0912,-4.0912,-4.0912,-4.0912,-4.0912,-4.0912,-4.0912,-4.0912,-4.0912,-4.0912,-4.1,-4.107,-4.107,-4.0694,-4.0328,-4.0328,-3.9874,-3.9448,-3.9448,-3.948,-3.9303,-3.8631,-3.7982,-3.6932,-3.508,-3.3662,-3.2774,-3.2665,-3.1922,-3.1293,-3.102,-3.0108,0.0,-2.9248,-2.9776,-3.0495,-3.1371,-3.2275,-3.3498,-3.5098,-3.6631,-3.8201,-3.9841,-4.0592,-4.1377,-4.2308,-4.2308,-4.2308,-4.2308,-4.2425,-4.2526,-4.2589,-4.2786,-4.2975,-4.316,-4.3214,-4.3355,-4.3511,-4.3528,-4.3632,-4.3769,-4.3867,-4.3929,-4.3974,-4.3974,-4.4073,-4.4153,-3.8003,-3.8441,-3.8947,-3.9653,-3.9981,-4.046,-4.1358,-4.1549,-4.2041,-4.334,-4.3704,-4.4239,-4.5135,-4.5327,-4.5345,-4.5207,-4.4647,-4.4259,-4.4121,-4.3414,-4.2689,-4.2033,-4.1895,-4.1464,-4.0722,-3.9203,-3.7996,-3.7098,-3.4145,-3.1955,-3.0455,-2.9058,0.0,0.0,0.0,0.0,-3.5835,-3.7767,-3.9497,-4.0912,-4.0912,-4.0912,-4.0912,-4.0912,-4.0912,-4.0912,-4.0912,-4.0912,-4.0912,-4.0912,-4.0912,-4.0912,-4.0912,-4.0912,-4.0912,-4.0912,-4.0912,-4.0912,-4.0912,-4.0935,-4.0935,-4.0935,-4.0926,-4.0955,-4.0955,-4.0885,-4.0837,-4.0837,-4.0366,-3.9809,-3.9252,-3.7758,-3.6309,-3.5338,-3.5008,-3.4659,-3.4042,-3.3732,-3.3297,-3.2608,-3.1051,-3.0015,-2.9939,-2.9556,-2.965,-3.0477,-3.1941,-3.3482,-3.5029,-3.6078,-3.7612,-3.9823,-4.0037,-4.0824,-4.229,-4.2308,-4.2308,-4.2308,-4.2308,-4.2387,-4.2524,-4.2609,-4.2727,-4.2879,-4.2938,-4.3032,-4.3105,-4.3214,-4.3409,-4.3647,-4.3832,-4.3883,-4.3835,-4.3915,-4.3899,-4.3886,-3.9187,-3.9395,-3.9695,-4.0538,-4.1017,-4.1608,-4.26,-4.2994,-4.3525,-4.4429,-4.506,-4.5548,-4.575,-4.5849,-4.5748,-4.5432,-4.5096,-4.4872,-4.4872,-4.419,-4.3603,-4.3224,-4.2827,-4.2258,-4.1498,-4.0377,-3.9048,-3.7512,-3.5197,-3.311,-3.1248,-3.011,-2.9592,-2.9661,0.0,-3.3749,0.0,-3.8112,-3.9497,-4.0912,-4.0912,-4.0912,-4.0912,-4.0912,-4.0912,-4.0912,-4.0912,-4.0912,-4.0912,-4.0912,-4.0912,-4.0912,-4.0912,-4.0912,-4.0912,-4.0912,-4.0912,-4.0912,-4.0912,-4.0912,-4.0912,-4.0912,-4.0959,-4.1,-4.1,-4.1012,-4.1041,-4.1041,-4.0498,-3.972,-3.8793,-3.7246,-3.5987,-3.5652,-3.535,-3.5027,-3.4653,-3.4176,-3.3683,-3.3261,0.0,0.0,-2.9941,-2.9271,-2.9224,-3.0143,-3.0981,-3.2514,-3.4977,-3.5509,-3.6827,-3.9253,-3.9698,-4.0485,-4.1663,-4.2093,-4.2308,-4.2308,-4.2308,-4.2328,-4.2405,-4.243,-4.2528,-4.2645,-4.2667,-4.2765,-4.29,-4.3013,-4.3178,-4.341,-4.3529,-4.3599,-4.3651,-4.3716,-4.3699,-4.3651,-4.0341,-4.0483,-4.0721,-4.1518,-4.2092,-4.2732,-4.3617,-4.4261,-4.4821,-4.5293,-4.6161,-4.662,-4.6385,-4.6246,-4.6032,-4.5583,-4.5421,-4.5344,-4.5371,-4.4828,-4.444,-4.4311,-4.3741,-4.3069,-4.2275,-4.136,-4.0014,-3.822,-3.6335,-3.4421,-3.249,-3.1576,-3.1162,-3.1265,-3.3542,-3.5666,-3.7564,-3.8439,-3.9635,-4.0912,-4.0912,-4.0912,-4.0912,-4.0912,-4.0912,-4.0912,-4.0912,-4.0912,-4.0912,-4.0912,-4.0912,-4.0912,-4.0912,-4.0912,-4.0912,-4.0912,-4.0912,-4.0912,-4.0912,-4.0912,-4.0912,-4.0912,-4.0912,-4.0912,-4.0912,-4.0912,-4.0912,-4.0912,-4.0239,-3.9302,-3.8122,-3.6866,-3.5999,-3.6059,-3.5642,-3.5221,-3.5045,-3.4304,-3.3687,-3.3475,0.0,0.0,-2.9811,-2.9204,-2.9164,-2.9954,-3.0259,-3.1763,-3.4871,-3.5066,-3.6185,-3.8661,-3.9303,-4.0089,-4.1072,-4.1716,-4.2126,-4.2308,-4.2308,-4.2308,-4.2308,-4.2308,-4.2366,-4.2463,-4.2463,-4.2566,-4.2725,-4.2805,-4.2938,-4.3105,-4.3214,-4.3286,-4.3375,-4.3461,-4.3426,-4.3375,-4.2821,-4.3038,-4.3138,-4.3421,-4.3519,-4.3841,-4.4731,-4.5064,-4.5232,-4.5227,-4.5559,-4.5996,-4.6447,-4.6099,-4.5914,-4.602,-4.5398,-4.5086,-4.522,-4.5135,-4.4887,-4.4328,-4.4225,-4.3845,-4.3103,-4.1654,-4.0808,-4.0584,-3.7629,-3.5749,-3.4835,-3.3386,-3.2697,-3.28,-3.5076,-3.6611,-3.7599,-3.8991,-4.0095,-4.0912,-4.0912,-4.0912,-4.0912,-4.0912,-4.0912,-4.0912,-4.0912,-4.0912,-4.0912,-4.0912,-4.0912,-4.0912,-4.0912,-4.0912,-4.0912,-4.0912,-4.0912,-4.0912,-4.0912,-4.0912,-4.0912,-4.0912,-4.0912,-4.0912,-4.0912,-4.0912,-4.0912,-4.0912,-3.9824,-3.8633,-3.7789,-3.7095,-3.662,-3.662,-3.6568,-3.6292,-3.556,-3.481,-3.4059,-3.3326,-3.1741,0.0,-2.9762,-2.959,-2.9573,-2.9744,-3.0588,-3.221,-3.4693,-3.4942,-3.6094,-3.8451,-3.8652,-3.9457,-4.0989,-4.1141,-4.1573,-4.2308,-4.2308,-4.2308,-4.2308,-4.2308,-4.2308,-4.2308,-4.2308,-4.2387,-4.2544,-4.2607,-4.2707,-4.286,-4.2976,-4.2995,-4.2957,-4.3032,-4.3013,-4.2957,-4.311,-4.322,-4.3341,-4.3636,-4.3948,-4.4224,-4.4599,-4.508,-4.5449,-4.5549,-4.622,-4.6715,-4.6681,-4.6611,-4.6488,-4.6182,-4.5573,-4.5247,-4.5433,-4.5152,-4.4885,-4.4738,-4.48,-4.4492,-4.3752,-4.3208,-4.2275,-4.0912,-3.9163,-3.7732,-3.6563,-3.5456,-3.5197,-3.5697,-3.6615,-3.768,-3.8853,-3.9439,-4.0146,-4.0912,-4.0912,-4.0912,-4.0912,-4.0912,-4.0912,-4.0912,-4.0912,-4.0912,-4.0912,-4.0912,-4.0912,-4.0912,-4.0912,-4.0912,-4.0912,-4.0912,-4.0912,-4.0912,-4.0912,-4.0912,-4.0912,-4.0912,-4.0912,-4.0912,-4.0912,-4.0912,-4.0774,-4.0267,-3.9036,-3.7763,-3.6968,-3.6613,-3.6444,-3.6444,-3.6444,-3.634,-3.6028,-3.4975,-3.411,-3.3779,-3.1961,-3.0629,-3.0335,-3.0283,-3.0283,-3.037,-3.0853,-3.2196,-3.4602,-3.4816,-3.5773,-3.7721,-3.8256,-3.9057,-4.0137,-4.0737,-4.1421,-4.2166,-4.2267,-4.2308,-4.2308,-4.2308,-4.2308,-4.2308,-4.2308,-4.2328,-4.2387,-4.2409,-4.2508,-4.2625,-4.2727,-4.2747,-4.2728,-4.2842,-4.2805,-4.2709,-4.3567,-4.365,-4.3738,-4.4075,-4.4396,-4.4637,-4.4637,-4.5076,-4.5478,-4.5589,-4.6317,-4.6837,-4.6816,-4.6813,-4.6643,-4.6254,-4.5629,-4.5263,-4.5299,-4.4985,-4.4812,-4.4786,-4.4978,-4.4847,-4.4316,-4.4207,-4.3391,-4.1791,-4.0528,-3.9393,-3.8362,-3.7391,-3.7223,-3.784,-3.8065,-3.8715,-3.9715,-3.9939,-4.0394,-4.0912,-4.0912,-4.0912,-4.0912,-4.0912,-4.0912,-4.0912,-4.0912,-4.0912,-4.0912,-4.0912,-4.0912,-4.0912,-4.0912,-4.0912,-4.0912,-4.0912,-4.0912,-4.0912,-4.0912,-4.0912,-4.0912,-4.0912,-4.0912,-4.0912,-4.0912,-4.0912,-4.0618,-3.9577,-3.8565,-3.7508,-3.649,-3.6301,-3.6301,-3.6301,-3.6301,-3.6301,-3.6301,-3.5025,-3.4113,-3.4113,-3.2284,-3.0938,-3.0731,-3.0886,-3.0956,-3.0785,-3.1342,-3.2546,-3.4526,-3.4898,-3.5712,-3.7108,-3.775,-3.8567,-3.9555,-4.0263,-4.1085,-4.2079,-4.2184,-4.2246,-4.2246,-4.2287,-4.2308,-4.2308,-4.2308,-4.2308,-4.2308,-4.2308,-4.2366,-4.2445,-4.249,-4.251,-4.253,-4.2627,-4.2589,-4.251,-4.4719,-4.4896,-4.4933,-4.5151,-4.5204,-4.5204,-4.5204,-4.522,-4.522,-4.522,-4.5373,-4.5853,-4.6807,-4.6364,-4.6092,-4.6274,-4.5636,-4.5026,-4.4644,-4.4713,-4.4636,-4.4327,-4.4637,-4.4803,-4.4786,-4.4207,-4.3894,-4.3877,-4.1613,-4.0478,-4.0427,-3.9048,-3.8465,-3.8612,-3.9353,-3.9681,-3.975,-4.0549,-4.0894,-4.0912,-4.0912,-4.0912,-4.0912,-4.0912,-4.0912,-4.0912,-4.0912,-4.0912,-4.0912,-4.0912,-4.0912,-4.0912,-4.0912,-4.0912,-4.0912,-4.0912,-4.0912,-4.0912,-4.0912,-4.0912,-4.0912,-4.0912,-4.0912,-4.0912,-4.0912,-4.0912,-4.048,-3.8945,-3.8594,-3.8112,-3.6577,-3.6301,-3.6301,-3.6301,-3.6301,-3.6301,-3.6301,-3.5025,-3.4113,-3.4113,-3.2731,-3.1489,-3.0765,-3.1351,-3.1472,-3.0766,-3.2187,-3.3458,-3.4371,-3.5234,-3.6025,-3.6774,-3.7009,-3.7866,-3.9491,-3.9572,-4.043,-4.2005,-4.2058,-4.2103,-4.2103,-4.2246,-4.2308,-4.2308,-4.2308,-4.2308,-4.2308,-4.2308,-4.2308,-4.2308,-4.2308,-4.2308,-4.2308,-4.2308,-4.2308,-4.2308,-4.6183,-4.6253,-4.6346,-4.6538,-4.6072,-4.5701,-4.5701,-4.5297,-4.5002,-4.5002,-4.5151,-4.5426,-4.5703,-4.5806,-4.5946,-4.6156,-4.5582,-4.527,-4.5424,-4.508,-4.4649,-4.4172,-4.4487,-4.4449,-4.3977,-4.4103,-4.3899,-4.3358,-4.2763,-4.2021,-4.1095,-4.0652,-4.0239,-3.9911,-4.024,-4.039,-4.0408,-4.0744,-4.0912,-4.0912,-4.0912,-4.0912,-4.0912,-4.0912,-4.0912,-4.0912,-4.0912,-4.0912,-4.0912,-4.0912,-4.0912,-4.0912,-4.0912,-4.0912,-4.0912,-4.0912,-4.0912,-4.0912,-4.0912,-4.0912,-4.0912,-4.0912,-4.0912,-4.0912,-4.0912,-4.0498,-3.9939,-3.9439,-3.8565,-3.7702,-3.7198,-3.6663,-3.6301,-3.6301,-3.6301,-3.6301,-3.6301,-3.5025,-3.4113,-3.4113,-3.2731,-3.1714,-3.1472,-3.211,-3.2455,-3.2214,-3.3649,-3.4451,-3.4274,-3.5568,-3.6673,-3.7474,-3.8042,-3.8874,-4.003,-4.0102,-4.0718,-4.1862,-4.1987,-4.2055,-4.2103,-4.2145,-4.2207,-4.2308,-4.2308,-4.2308,-4.2308,-4.2308,-4.2308,-4.2308,-4.2308,-4.2308,-4.2308,-4.2308,-4.2308,-4.2308,-4.6746,-4.6786,-4.6825,-4.6943,-4.6508,-4.6152,-4.6152,-4.558,-4.5147,-4.5147,-4.5044,-4.498,-4.498,-4.5188,-4.5505,-4.5848,-4.5524,-4.5371,-4.5482,-4.5185,-4.4771,-4.4269,-4.4309,-4.4134,-4.372,-4.3817,-4.3581,-4.3115,-4.2991,-4.2395,-4.1372,-4.1478,-4.1382,-4.1053,-4.0999,-4.0954,-4.0962,-4.08,-4.0752,-4.0752,-4.0752,-4.0776,-4.0817,-4.0817,-4.0864,-4.0912,-4.0912,-4.0912,-4.0912,-4.0912,-4.0912,-4.0912,-4.0912,-4.0912,-4.0912,-4.0912,-4.0912,-4.0912,-4.0912,-4.0912,-4.0912,-4.0912,-4.0912,-4.0912,-4.0912,-4.0515,-4.0043,-3.975,-3.8957,-3.8168,-3.7616,-3.7098,-3.6646,-3.6353,-3.6301,-3.6301,-3.6301,-3.5266,-3.4507,-3.4507,-3.3404,-3.2645,-3.2645,-3.3076,-3.3352,-3.3352,-3.449,-3.5031,-3.4607,-3.611,-3.721,-3.7696,-3.8503,-3.9334,-4.0219,-4.0272,-4.0745,-4.1648,-4.1858,-4.1991,-4.2103,-4.2103,-4.2166,-4.2308,-4.2308,-4.2308,-4.2308,-4.2308,-4.2308,-4.2308,-4.2308,-4.2308,-4.2308,-4.2308,-4.2308,-4.2308,-4.6742,-4.6742,-4.6742,-4.6742,-4.6696,-4.6665,-4.6665,-4.6095,-4.5664,-4.5664,-4.5064,-4.4687,-4.4687,-4.4641,-4.4814,-4.5405,-4.5478,-4.5378,-4.5075,-4.5183,-4.5037,-4.4552,-4.4188,-4.3944,-4.3911,-4.3384,-4.3084,-4.3082,-4.2515,-4.1926,-4.1316,-4.1655,-4.1832,-4.193,-4.1567,-4.1409,-4.1384,-4.0847,-4.0614,-4.0614,-4.0614,-4.073,-4.0844,-4.0827,-4.0924,-4.1043,-4.1067,-4.1032,-4.0957,-4.0957,-4.0922,-4.0871,-4.0871,-4.0888,-4.0888,-4.0912,-4.0912,-4.0912,-4.0912,-4.0912,-4.0912,-4.0912,-4.0912,-4.0912,-4.0912,-4.0912,-4.0687,-3.9939,-3.9733,-3.9267,-3.7909,-3.7616,-3.734,-3.6577,-3.6422,-3.6387,-3.6387,-3.5697,-3.5197,-3.5197,-3.4562,-3.4113,-3.4113,-3.4165,-3.4182,-3.4182,-3.4904,-3.5352,-3.5352,-3.689,-3.7728,-3.7676,-3.856,-3.9407,-4.0155,-4.0155,-4.057,-4.1403,-4.1648,-4.1888,-4.2082,-4.2082,-4.2145,-4.2287,-4.2287,-4.2287,-4.2308,-4.2308,-4.2308,-4.2308,-4.2308,-4.2308,-4.2308,-4.2308,-4.2308,-4.2308,-4.8142,-4.8142,-4.8142,-4.8142,-4.7711,-4.7357,-4.7357,-4.6788,-4.6357,-4.6357,-4.5772,-4.5341,-4.5341,-4.4895,-4.4739,-4.5039,-4.5167,-4.5363,-4.5606,-4.5627,-4.5366,-4.4671,-4.4724,-4.4491,-4.398,-4.3556,-4.312,-4.271,-4.2564,-4.2201,-4.1618,-4.1707,-4.1588,-4.1319,-4.1322,-4.1476,-4.1695,-4.1644,-4.1726,-4.1875,-4.1875,-4.1953,-4.2108,-4.2193,-4.2303,-4.2454,-4.2588,-4.2201,-4.1587,-4.1587,-4.1143,-4.0607,-4.0721,-4.0745,-4.0769,-4.0864,-4.0912,-4.0912,-4.0912,-4.0912,-4.0912,-4.0912,-4.0912,-4.0912,-4.0912,-4.0912,-4.086,-4.067,-4.0112,-3.9577,-3.9232,-3.8738,-3.8267,-3.8077,-3.7577,-3.7236,-3.7236,-3.6042,-3.5197,-3.5197,-3.4562,-3.4113,-3.4113,-3.4594,-3.4938,-3.4938,-3.618,-3.696,-3.696,-3.8375,-3.895,-3.838,-3.9698,-4.0579,-4.0857,-4.0857,-4.1041,-4.1403,-4.1471,-4.1626,-4.1866,-4.1866,-4.1956,-4.2163,-4.2163,-4.2205,-4.2308,-4.2308,-4.2308,-4.2308,-4.2308,-4.2308,-4.2308,-4.2308,-4.2308,-4.2308,-4.862,-4.862,-4.862,-4.862,-4.8312,-4.8065,-4.8065,-4.7496,-4.7065,-4.7065,-4.6465,-4.5926,-4.5618,-4.5264,-4.5025,-4.4905,-4.5002,-4.5241,-4.5625,-4.5662,-4.5525,-4.5238,-4.4997,-4.4684,-4.4335,-4.3809,-4.3243,-4.2654,-4.2703,-4.243,-4.1786,-4.1957,-4.19,-4.1692,-4.1648,-4.1733,-4.1872,-4.1755,-4.1805,-4.1904,-4.1904,-4.2024,-4.2206,-4.2323,-4.2507,-4.2732,-4.2903,-4.2645,-4.2209,-4.2133,-4.1801,-4.1435,-4.1502,-4.151,-4.1484,-4.1273,-4.1027,-4.0817,-4.0817,-4.0817,-4.0817,-4.0817,-4.0817,-4.0817,-4.0817,-4.0817,-4.084,-4.0888,-4.0567,-4.0129,-3.9767,-3.937,-3.8974,-3.8646,-3.7996,-3.7616,-3.7961,-3.6663,-3.5956,-3.6663,-3.6094,-3.5804,-3.6132,-3.6529,-3.6749,-3.6749,-3.7525,-3.8013,-3.8013,-3.9077,-3.9508,-3.9112,-4.0273,-4.0935,-4.1023,-4.107,-4.1163,-4.1261,-4.1358,-4.1515,-4.1714,-4.1758,-4.1888,-4.2055,-4.2055,-4.2097,-4.2178,-4.2205,-4.2225,-4.2207,-4.2287,-4.2308,-4.2308,-4.2308,-4.2308,-4.2308,-4.862,-4.862,-4.862,-4.862,-4.862,-4.862,-4.862,-4.8127,-4.7758,-4.7758,-4.7173,-4.6526,-4.5957,-4.5711,-4.5434,-4.5038,-4.4898,-4.5039,-4.5442,-4.5478,-4.5589,-4.5735,-4.5171,-4.4875,-4.4875,-4.4211,-4.3532,-4.2837,-4.2879,-4.2581,-4.2024,-4.2189,-4.2286,-4.2333,-4.2126,-4.2032,-4.2059,-4.1749,-4.1646,-4.1659,-4.1659,-4.1813,-4.2061,-4.2183,-4.2446,-4.2749,-4.289,-4.2849,-4.272,-4.2605,-4.2458,-4.233,-4.2383,-4.2383,-4.2291,-4.1801,-4.1187,-4.0664,-4.0658,-4.0624,-4.0624,-4.0624,-4.0624,-4.0624,-4.0624,-4.0648,-4.0721,-4.084,-4.0888,-4.0705,-4.0008,-3.9871,-3.9681,-3.9043,-3.8323,-3.8065,-3.8663,-3.7542,-3.7129,-3.8439,-3.8065,-3.7909,-3.8525,-3.8594,-3.8594,-3.8594,-3.8698,-3.8767,-3.8767,-3.9457,-3.9871,-3.9871,-4.0549,-4.0912,-4.0912,-4.1006,-4.107,-4.1093,-4.1261,-4.1426,-4.1542,-4.167,-4.1819,-4.1923,-4.1945,-4.1984,-4.2005,-4.2058,-4.2082,-4.21,-4.2205,-4.2246,-4.2267,-4.2267,-4.2287,-4.2308,-4.862,-4.862,-4.862,-4.862,-4.862,-4.862,-4.862,-4.8527,-4.845,-4.845,-4.7865,-4.7404,-4.7296,-4.6265,-4.558,-4.5511,-4.4987,-4.4814,-4.522,-4.5405,-4.5515,-4.5552,-4.5588,-4.5649,-4.5649,-4.4938,-4.4243,-4.3529,-4.2997,-4.2699,-4.2539,-4.1988,-4.1801,-4.1996,-4.2046,-4.2236,-4.2518,-4.2606,-4.2741,-4.2846,-4.2846,-4.2966,-4.3175,-4.3306,-4.3556,-4.386,-4.4013,-4.3536,-4.2853,-4.2825,-4.2273,-4.161,-4.1854,-4.1892,-4.1902,-4.1937,-4.1285,-4.052,-4.0383,-4.0355,-4.0355,-4.0355,-4.0355,-4.0355,-4.0355,-4.0436,-4.0558,-4.0697,-4.0817,-4.086,-4.0739,-4.0722,-4.0687,-4.0567,-3.9871,-3.9388,-3.9508,-3.8784,-3.8318,-3.856,-3.8513,-3.8456,-3.8599,-3.8594,-3.8594,-3.8594,-3.9163,-3.9526,-3.9526,-4.0267,-4.0722,-4.0722,-4.0843,-4.0912,-4.0912,-4.0935,-4.1,-4.1093,-4.1117,-4.1192,-4.1277,-4.1386,-4.1538,-4.1688,-4.178,-4.1902,-4.2005,-4.2026,-4.2026,-4.2009,-4.2048,-4.2076,-4.2124,-4.2124,-4.2187,-4.2308,-4.862,-4.862,-4.862,-4.862,-4.862,-4.862,-4.862,-4.862,-4.862,-4.862,-4.8343,-4.8004,-4.765,-4.705,-4.6388,-4.5649,-4.5295,-4.5048,-4.4883,-4.5092,-4.5241,-4.5331,-4.5442,-4.5515,-4.5625,-4.5295,-4.4847,-4.4224,-4.3943,-4.3406,-4.2679,-4.2347,-4.205,-4.1752,-4.198,-4.2174,-4.2333,-4.2634,-4.279,-4.2836,-4.2836,-4.2945,-4.3146,-4.3295,-4.3476,-4.373,-4.386,-4.3598,-4.309,-4.3019,-4.266,-4.2236,-4.2367,-4.238,-4.2327,-4.2075,-4.1233,-4.0296,-3.9845,-3.9696,-3.9696,-3.9696,-3.9747,-3.9816,-3.9816,-3.9995,-4.0238,-4.0453,-4.0583,-4.0704,-4.0793,-4.0793,-4.0817,-4.0888,-4.0215,-3.9853,-4.0308,-3.9336,-3.8927,-3.9738,-3.9457,-3.9353,-3.9807,-3.9842,-3.9842,-3.9842,-4.017,-4.0359,-4.0359,-4.0705,-4.0912,-4.0912,-4.0912,-4.0912,-4.0912,-4.0912,-4.0935,-4.0982,-4.107,-4.1117,-4.1152,-4.1249,-4.134,-4.1386,-4.1453,-4.1542,-4.1688,-4.1754,-4.1819,-4.1902,-4.1984,-4.2009,-4.2034,-4.2034,-4.2094,-4.2157,-4.862,-4.862,-4.862,-4.862,-4.862,-4.862,-4.862,-4.862,-4.862,-4.862,-4.862,-4.8419,-4.7896,-4.7696,-4.7188,-4.6142,-4.5772,-4.5372,-4.4887,-4.4816,-4.4927,-4.5129,-4.5182,-4.5257,-4.5442,-4.5442,-4.5233,-4.4827,-4.4654,-4.4039,-4.3016,-4.2926,-4.2548,-4.2029,-4.2201,-4.2301,-4.2269,-4.2446,-4.246,-4.246,-4.246,-4.2571,-4.2728,-4.2836,-4.3021,-4.3221,-4.3325,-4.3262,-4.3111,-4.3005,-4.2867,-4.2728,-4.2775,-4.2744,-4.2614,-4.2169,-4.1213,-4.0148,-3.9484,-3.9292,-3.9259,-3.9094,-3.9125,-3.9206,-3.9206,-3.9461,-3.9781,-4.0037,-4.0221,-4.0412,-4.0576,-4.06,-4.0673,-4.084,-4.0347,-4.0158,-4.0825,-3.9894,-3.9583,-4.0774,-4.0336,-4.0215,-4.0843,-4.0912,-4.0912,-4.0912,-4.0912,-4.0912,-4.0912,-4.0912,-4.0912,-4.0912,-4.0912,-4.0912,-4.0912,-4.0912,-4.0912,-4.0912,-4.1006,-4.1047,-4.1047,-4.1152,-4.118,-4.118,-4.1186,-4.1255,-4.1363,-4.1453,-4.1582,-4.167,-4.1797,-4.188,-4.1902,-4.1945,-4.1984,-4.2005,-4.862,-4.862,-4.862,-4.862,-4.862,-4.862,-4.862,-4.862,-4.862,-4.862,-4.862,-4.8589,-4.8543,-4.7973,-4.7573,-4.7465,-4.6311,-4.5572,-4.5511,-4.4964,-4.4723,-4.4911,-4.5092,-4.522,-4.522,-4.522,-4.5188,-4.5179,-4.4492,-4.4081,-4.4008,-4.3545,-4.3336,-4.3242,-4.2972,-4.2854,-4.2806,-4.2349,-4.2142,-4.2142,-4.2142,-4.2142,-4.2142,-4.2174,-4.2365,-4.2665,-4.2665,-4.2649,-4.2649,-4.2618,-4.2429,-4.2174,-4.2381,-4.2318,-4.2158,-4.211,-4.123,-4.0182,-3.9703,-3.9561,-3.9426,-3.8802,-3.8667,-3.865,-3.865,-3.8854,-3.9152,-3.9418,-3.9713,-4.0011,-4.028,-4.033,-4.0429,-4.0673,-4.0645,-4.0676,-4.0871,-4.0808,-4.0774,-4.0894,-4.086,-4.0843,-4.0894,-4.0912,-4.0912,-4.0912,-4.0912,-4.0912,-4.0912,-4.0912,-4.0912,-4.0912,-4.0912,-4.0912,-4.0912,-4.0912,-4.0912,-4.0912,-4.0912,-4.0912,-4.0935,-4.1047,-4.1117,-4.1117,-4.118,-4.1209,-4.1209,-4.1232,-4.1232,-4.1255,-4.1386,-4.1515,-4.1648,-4.1758,-4.1884,-4.2005,-4.862,-4.862,-4.862,-4.862,-4.862,-4.862,-4.862,-4.862,-4.862,-4.862,-4.862,-4.862,-4.862,-4.8389,-4.8065,-4.765,-4.7127,-4.6665,-4.6249,-4.5572,-4.5056,-4.4754,-4.4776,-4.4889,-4.5002,-4.5002,-4.5092,-4.5182,-4.4902,-4.4543,-4.4091,-4.3898,-4.3698,-4.338,-4.3387,-4.3482,-4.3568,-4.3449,-4.3388,-4.3389,-4.2941,-4.2765,-4.2717,-4.2285,-4.2174,-4.2302,-4.2302,-4.2222,-4.2174,-4.2174,-4.1931,-4.1621,-4.1687,-4.1604,-4.1488,-4.1488,-4.1166,-4.0659,-4.0008,-3.9293,-3.8653,-3.8428,-3.8118,-3.7886,-3.7988,-3.8258,-3.8523,-3.8843,-3.9077,-3.9292,-3.9566,-3.9696,-3.9867,-4.0246,-4.0404,-4.0502,-4.0631,-4.0704,-4.0769,-4.0769,-4.0864,-4.0912,-4.0912,-4.0912,-4.0912,-4.0912,-4.0912,-4.0912,-4.0912,-4.0912,-4.0912,-4.0912,-4.0912,-4.0912,-4.0912,-4.0912,-4.0912,-4.0912,-4.0912,-4.0912,-4.0912,-4.0959,-4.0976,-4.0982,-4.1012,-4.1059,-4.1146,-4.1146,-4.1157,-4.1209,-4.1272,-4.1318,-4.1363,-4.1408,-4.1475,-4.1498,-4.862,-4.862,-4.862,-4.862,-4.862,-4.862,-4.862,-4.862,-4.862,-4.862,-4.862,-4.862,-4.862,-4.862,-4.8419,-4.7958,-4.7727,-4.7404,-4.6942,-4.628,-4.5511,-4.4656,-4.461,-4.4648,-4.4799,-4.4799,-4.4889,-4.5017,-4.5017,-4.4769,-4.4272,-4.4309,-4.4169,-4.3861,-4.3835,-4.3898,-4.4022,-4.3907,-4.3831,-4.3799,-4.3339,-4.3164,-4.3101,-4.2676,-4.2392,-4.2283,-4.2348,-4.2155,-4.1898,-4.1898,-4.1653,-4.129,-4.129,-4.1171,-4.1,-4.0932,-4.0898,-4.0789,-4.0293,-3.9413,-3.8512,-3.8216,-3.7839,-3.7567,-3.7482,-3.7655,-3.7915,-3.8246,-3.8427,-3.8623,-3.8936,-3.9071,-3.9302,-3.9747,-3.9944,-4.007,-4.0288,-4.0461,-4.0576,-4.0576,-4.068,-4.0776,-4.084,-4.084,-4.0847,-4.0912,-4.0912,-4.0912,-4.0912,-4.0912,-4.0912,-4.0912,-4.0912,-4.0912,-4.0912,-4.0912,-4.0912,-4.0912,-4.0912,-4.0912,-4.0912,-4.0912,-4.0912,-4.0912,-4.0912,-4.0959,-4.1047,-4.1047,-4.1059,-4.1094,-4.1157,-4.1157,-4.1157,-4.1186,-4.1209,-4.1209,-4.862,-4.862,-4.862,-4.862,-4.862,-4.862,-4.862,-4.862,-4.862,-4.862,-4.862,-4.862,-4.862,-4.862,-4.862,-4.862,-4.8004,-4.7604,-4.7604,-4.6973,-4.6003,-4.4687,-4.4625,-4.4625,-4.461,-4.461,-4.461,-4.461,-4.461,-4.461,-4.461,-4.4799,-4.4911,-4.488,-4.4345,-4.4107,-4.406,-4.341,-4.3129,-4.3129,-4.3129,-4.3129,-4.3114,-4.3325,-4.3076,-4.2631,-4.2833,-4.2471,-4.1914,-4.1914,-4.162,-4.129,-4.129,-4.1055,-4.0765,-4.0558,-4.0489,-4.0489,-4.0489,-3.9997,-3.9267,-3.8261,-3.7997,-3.781,-3.7171,-3.7105,-3.7284,-3.7642,-3.7786,-3.803,-3.8483,-3.8595,-3.8733,-3.9125,-3.9312,-3.9513,-3.9849,-4.013,-4.0288,-4.0288,-4.0412,-4.0558,-4.0673,-4.0697,-4.0745,-4.0888,-4.0912,-4.0912,-4.0912,-4.0912,-4.0912,-4.0912,-4.0912,-4.0912,-4.0912,-4.0912,-4.0912,-4.0912,-4.0912,-4.0912,-4.0912,-4.0912,-4.0912,-4.0912,-4.0912,-4.0912,-4.0912,-4.0912,-4.0912,-4.0912,-4.1047,-4.1093,-4.1117,-4.118,-4.1209,-4.1209,-4.862,-4.862,-4.862,-4.862,-4.862,-4.862,-4.862,-4.862,-4.862,-4.862,-4.862,-4.862,-4.862,-4.862,-4.862,-4.862,-4.8435,-4.8112,-4.7635,-4.7419,-4.6911,-4.6034,-4.5541,-4.5064,-4.4625,-4.461,-4.461,-4.461,-4.461,-4.461,-4.461,-4.4648,-4.4761,-4.4896,-4.4732,-4.4728,-4.4839,-4.4674,-4.458,-4.4549,-4.3998,-4.3795,-4.3769,-4.3372,-4.3079,-4.2977,-4.3012,-4.2608,-4.2027,-4.2027,-4.1562,-4.0919,-4.0783,-4.0662,-4.0558,-4.0524,-4.0489,-4.0489,-4.0489,-4.0336,-4.0016,-3.9239,-3.8345,-3.7605,-3.753,-3.7157,-3.6907,-3.7151,-3.7225,-3.7329,-3.7565,-3.7815,-3.8075,-3.8383,-3.8678,-3.8925,-3.9239,-3.9408,-3.9618,-3.9858,-3.9986,-4.0163,-4.0404,-4.0429,-4.0461,-4.0607,-4.0631,-4.0655,-4.0745,-4.0769,-4.0817,-4.0912,-4.0912,-4.0912,-4.0912,-4.0912,-4.0912,-4.0912,-4.0912,-4.0912,-4.0912,-4.0912,-4.0912,-4.0912,-4.0912,-4.0912,-4.0912,-4.0912,-4.0912,-4.0894,-4.0935,-4.0959,-4.0959,-4.0989,-4.0989,-4.0989,-4.862,-4.862,-4.862,-4.862,-4.862,-4.862,-4.862,-4.862,-4.862,-4.862,-4.862,-4.862,-4.862,-4.862,-4.862,-4.862,-4.862,-4.8435,-4.8035,-4.8004,-4.7711,-4.7019,-4.6603,-4.5942,-4.5041,-4.4764,-4.461,-4.461,-4.461,-4.461,-4.461,-4.461,-4.4648,-4.4761,-4.4761,-4.4852,-4.498,-4.498,-4.498,-4.4933,-4.4462,-4.4291,-4.4245,-4.3951,-4.3609,-4.3376,-4.3483,-4.3067,-4.249,-4.249,-4.1934,-4.1167,-4.0974,-4.072,-4.0489,-4.0489,-4.0489,-4.0489,-4.0489,-4.0489,-4.0397,-3.9982,-3.9108,-3.8154,-3.7711,-3.7295,-3.6987,-3.6893,-3.6862,-3.6923,-3.7089,-3.7285,-3.7508,-3.777,-3.8059,-3.8331,-3.8595,-3.8843,-3.9034,-3.9239,-3.9425,-3.9635,-3.9825,-3.9969,-4.0138,-4.0337,-4.032,-4.0412,-4.0527,-4.0551,-4.0583,-4.0728,-4.0728,-4.0728,-4.0728,-4.0728,-4.0799,-4.0912,-4.084,-4.0817,-4.0817,-4.0752,-4.0728,-4.0728,-4.0728,-4.0776,-4.0817,-4.0817,-4.0864,-4.0912,-4.0912,-4.0912,-4.0912,-4.0912,-4.0912,-4.0912,-4.862,-4.862,-4.862,-4.862,-4.862,-4.862,-4.862,-4.862,-4.862,-4.862,-4.862,-4.862,-4.862,-4.862,-4.862,-4.862,-4.862,-4.862,-4.862,-4.862,-4.8343,-4.7727,-4.7635,-4.7034,-4.5788,-4.5049,-4.4671,-4.461,-4.461,-4.461,-4.461,-4.461,-4.461,-4.461,-4.461,-4.461,-4.461,-4.461,-4.461,-4.461,-4.461,-4.461,-4.461,-4.4799,-4.4449,-4.3907,-4.4075,-4.3712,-4.3121,-4.3074,-4.2532,-4.1844,-4.1749,-4.1201,-4.0597,-4.0597,-4.0551,-4.0489,-4.0489,-4.0489,-4.0489,-4.0489,-4.0028,-3.9228,-3.7984,-3.7584,-3.7354,-3.6879,-3.6724,-3.6723,-3.6908,-3.6984,-3.7044,-3.7298,-3.7508,-3.7714,-3.7972,-3.8286,-3.8483,-3.8539,-3.8761,-3.898,-3.9152,-3.9461,-3.9755,-3.9995,-4.002,-4.0087,-4.0213,-4.0213,-4.0288,-4.0436,-4.0461,-4.0461,-4.0444,-4.0444,-4.0607,-4.0847,-4.0721,-4.0673,-4.0648,-4.0534,-4.0444,-4.0444,-4.0485,-4.0558,-4.0673,-4.0697,-4.0793,-4.0912,-4.0912,-4.0912,-4.0912,-4.0912,-4.0912,-4.0912,-4.862,-4.862,-4.862,-4.862,-4.862,-4.862,-4.862,-4.862,-4.862,-4.862,-4.862,-4.862,-4.862,-4.862,-4.862,-4.862,-4.862,-4.862,-4.862,-4.862,-4.8558,-4.8404,-4.7881,-4.7465,-4.7173,-4.5988,-4.511,-4.461,-4.461,-4.461,-4.461,-4.461,-4.461,-4.461,-4.461,-4.461,-4.461,-4.461,-4.461,-4.461,-4.461,-4.461,-4.461,-4.4663,-4.4555,-4.4432,-4.4469,-4.4075,-4.3411,-4.288,-4.2566,-4.2407,-4.2386,-4.1925,-4.137,-4.137,-4.0935,-4.0489,-4.0489,-4.0489,-4.0489,-4.0489,-4.0382,-4.0059,-3.9228,-3.8262,-3.7461,-3.7339,-3.6924,-3.6554,-3.6585,-3.6708,-3.6785,-3.6831,-3.7014,-3.7195,-3.7358,-3.7565,-3.777,-3.803,-3.8201,-3.8455,-3.8843,-3.9125,-3.9312,-3.9391,-3.9391,-3.9444,-3.9592,-3.9592,-3.9738,-4.0011,-4.0011,-4.0087,-4.0188,-4.0188,-4.032,-4.0583,-4.0436,-4.0379,-4.0379,-4.0238,-4.0188,-4.0196,-4.0288,-4.0412,-4.0558,-4.0673,-4.0793,-4.0912,-4.0912,-4.0912,-4.0912,-4.0912,-4.0912,-4.0912,-4.862,-4.862,-4.862,-4.862,-4.862,-4.862,-4.862,-4.862,-4.862,-4.862,-4.862,-4.862,-4.862,-4.862,-4.862,-4.862,-4.862,-4.862,-4.862,-4.862,-4.862,-4.862,-4.8266,-4.7942,-4.7619,-4.6911,-4.6065,-4.5103,-4.4779,-4.461,-4.461,-4.461,-4.461,-4.461,-4.461,-4.461,-4.461,-4.461,-4.461,-4.461,-4.461,-4.461,-4.461,-4.461,-4.461,-4.461,-4.461,-4.4379,-4.4024,-4.3664,-4.334,-4.3063,-4.3063,-4.2617,-4.2017,-4.1694,-4.134,-4.0935,-4.0597,-4.0489,-4.0489,-4.0489,-4.0489,-4.032,-3.9644,-3.897,-3.8369,-3.8046,-3.7446,-3.6969,-3.6969,-3.677,-3.6631,-3.6693,-3.68,-3.6923,-3.7089,-3.7224,-3.7358,-3.7535,-3.7786,-3.8103,-3.8572,-3.8722,-3.8871,-3.9007,-3.9007,-3.9061,-3.9195,-3.9222,-3.9329,-3.9556,-3.9582,-3.9592,-3.967,-3.967,-3.9731,-3.9885,-3.9969,-3.9944,-3.9867,-3.9722,-3.967,-3.9696,-3.9918,-4.0138,-4.032,-4.051,-4.0704,-4.0912,-4.0912,-4.0912,-4.0912,-4.0912,-4.0912,-4.0912,-4.862,-4.862,-4.862,-4.862,-4.862,-4.862,-4.862,-4.862,-4.862,-4.862,-4.862,-4.862,-4.862,-4.862,-4.862,-4.862,-4.862,-4.862,-4.862,-4.862,-4.862,-4.862,-4.862,-4.8358,-4.7788,-4.7665,-4.7004,-4.5757,-4.508,-4.4756,-4.4779,-4.4671,-4.461,-4.461,-4.461,-4.461,-4.461,-4.461,-4.461,-4.461,-4.461,-4.461,-4.461,-4.461,-4.461,-4.461,-4.461,-4.461,-4.461,-4.461,-4.424,-4.3778,-4.3778,-4.3294,-4.2663,-4.2094,-4.1771,-4.1463,-4.0843,-4.0597,-4.0489,-4.0489,-4.0489,-4.0336,-3.9782,-3.9567,-3.9354,-3.88,-3.8138,-3.7677,-3.7677,-3.7123,-3.6723,-3.6801,-3.6739,-3.6723,-3.6877,-3.7029,-3.7134,-3.7164,-3.7478,-3.7847,-3.825,-3.8307,-3.842,-3.8639,-3.8667,-3.875,-3.886,-3.8903,-3.8969,-3.9071,-3.9115,-3.9115,-3.9125,-3.9125,-3.9125,-3.9098,-3.9372,-3.9451,-3.9329,-3.9179,-3.9125,-3.9152,-3.9478,-3.9764,-4.0045,-4.032,-4.0583,-4.0823,-4.0864,-4.0864,-4.0864,-4.0888,-4.0912,-4.0912,-4.862,-4.862,-4.862,-4.862,-4.862,-4.862,-4.862,-4.862,-4.862,-4.862,-4.862,-4.862,-4.862,-4.862,-4.862,-4.862,-4.862,-4.862,-4.862,-4.862,-4.862,-4.862,-4.862,-4.8573,-4.8481,-4.7912,-4.7234,-4.6449,-4.5772,-4.5449,-4.5434,-4.4849,-4.461,-4.461,-4.461,-4.461,-4.461,-4.461,-4.461,-4.461,-4.461,-4.461,-4.461,-4.461,-4.461,-4.461,-4.461,-4.461,-4.461,-4.461,-4.4548,-4.4471,-4.4471,-4.4009,-4.3454,-4.3362,-4.2494,-4.1571,-4.1478,-4.1001,-4.0489,-4.0489,-4.0489,-4.0474,-4.0382,-3.9905,-3.9459,-3.9367,-3.8846,-3.8369,-3.8369,-3.7815,-3.7369,-3.7401,-3.6908,-3.6554,-3.6554,-3.6693,-3.6816,-3.6999,-3.7421,-3.773,-3.7788,-3.7905,-3.7992,-3.8004,-3.8193,-3.8278,-3.8307,-3.842,-3.8532,-3.8672,-3.8699,-3.8738,-3.8843,-3.8843,-3.8805,-3.8699,-3.8727,-3.8849,-3.905,-3.8914,-3.8843,-3.8871,-3.9202,-3.9511,-3.9781,-4.0045,-4.0296,-4.0558,-4.0697,-4.0721,-4.0745,-4.0864,-4.0912,-4.0912,-4.862,-4.862,-4.862,-4.862,-4.862,-4.862,-4.862,-4.862,-4.862,-4.862,-4.862,-4.862,-4.862,-4.862,-4.862,-4.862,-4.862,-4.862,-4.862,-4.862,-4.862,-4.862,-4.862,-4.862,-4.862,-4.8327,-4.8019,-4.7727,-4.6665,-4.6157,-4.6142,-4.5464,-4.5141,-4.5126,-4.4779,-4.461,-4.461,-4.461,-4.461,-4.461,-4.461,-4.461,-4.461,-4.461,-4.461,-4.461,-4.461,-4.461,-4.461,-4.461,-4.461,-4.461,-4.461,-4.4409,-4.4101,-4.3716,-4.3193,-4.254,-4.1801,-4.137,-4.1032,-4.0597,-4.0489,-4.0489,-4.0489,-4.0259,-4.0043,-4.0043,-3.9521,-3.9077,-3.9077,-3.8523,-3.8061,-3.8061,-3.7507,-3.7061,-3.7061,-3.6847,-3.6754,-3.6969,-3.7255,-3.7449,-3.7537,-3.77,-3.7817,-3.7905,-3.7992,-3.802,-3.802,-3.8078,-3.8193,-3.8363,-3.8379,-3.8448,-3.8572,-3.8572,-3.856,-3.8492,-3.8492,-3.856,-3.8655,-3.86,-3.8572,-3.86,-3.8903,-3.9185,-3.9435,-3.9738,-4.002,-4.0271,-4.0412,-4.0527,-4.0607,-4.0745,-4.0793,-4.0793]},{"header":{"parameterUnit":"m.s-1","parameterCategory":1,"la1":30.6,"la2":28.766,"lo1":-90.7593,"lo2":-88.6598,"dy":0.0162,"dx":0.0183,"nx":116,"ny":114,"refTime":"2024-07-04T06:00:00:Z","depth":0,"parameterNumber":3,"parameterNumberName":"V-component_of_WINDS"},"data":[0.0,0.0,0.0,0.0,0.0,0.0,0.0,0.0,0.0,0.0,0.0,0.0,0.0,0.0,0.0,0.0,0.0,0.0,0.0,0.0,0.0,0.0,0.0,0.0,0.0,0.0,0.0,0.0,0.0,0.0,0.0,0.0,0.0,0.0,0.0,0.0,0.0,0.0,0.0,0.0,0.0,0.0,0.0,0.0,0.0,0.0,0.0,0.0,0.0,0.0,0.0,0.0,0.0,0.0,0.0,0.0,0.0,0.0,0.0,0.0,0.0,0.0,0.0,0.0,0.0,0.0,0.0,0.0,0.0,0.0,0.0,0.0,0.0,0.0,0.0,0.0,0.0,0.0,0.0,0.0,0.0,0.0,0.0,0.0,0.0,0.0,0.0,0.0,0.0,0.0,0.0,0.0,0.0,0.0,0.0,0.0,0.0,0.0,0.0,0.0,0.0,0.0,0.0,0.0,0.0,0.0,0.0,0.0,0.0,0.0,0.0,0.0,0.0,0.0,0.0,0.0,0.0,0.0,0.0,0.0,0.0,0.0,0.0,0.0,0.0,0.0,0.0,0.0,0.0,0.0,0.0,0.0,0.0,0.0,0.0,0.0,0.0,0.0,0.0,0.0,0.0,0.0,0.0,0.0,0.0,0.0,0.0,0.0,0.0,0.0,0.0,0.0,0.0,0.0,0.0,0.0,0.0,0.0,0.0,0.0,0.0,0.0,0.0,0.0,0.0,0.0,0.0,0.0,0.0,0.0,0.0,0.0,0.0,0.0,0.0,0.0,0.0,0.0,0.0,0.0,0.0,0.0,0.0,0.0,0.0,0.0,0.0,0.0,0.0,0.0,0.0,0.0,0.0,0.0,0.0,0.0,0.0,0.0,0.0,0.0,0.0,0.0,0.0,0.0,0.0,0.0,0.0,0.0,0.0,0.0,0.0,0.0,0.0,0.0,0.0,0.0,0.0,0.0,0.0,0.0,0.0,0.0,0.0,0.0,0.0,0.0,0.0,0.0,0.0,0.0,0.0,0.0,0.0,0.0,0.0,0.0,0.0,0.0,0.0,0.0,0.0,0.0,0.0,0.0,0.0,0.0,0.0,0.0,0.0,0.0,0.0,0.0,0.0,0.0,0.0,0.0,0.0,0.0,0.0,0.0,0.0,0.0,0.0,0.0,0.0,0.0,0.0,0.0,0.0,0.0,0.0,0.0,0.0,0.0,0.0,0.0,0.0,0.0,0.0,0.0,0.0,0.0,0.0,0.0,0.0,0.0,0.0,0.0,0.0,0.0,0.0,0.0,0.0,0.0,0.0,0.0,0.0,0.0,0.0,0.0,0.0,0.0,0.0,0.0,0.0,0.0,0.0,0.0,0.0,0.0,0.0,0.0,0.0,0.0,0.0,0.0,0.0,0.0,0.0,0.0,0.0,0.0,0.0,0.0,0.0,0.0,0.0,0.0,0.0,0.0,0.0,0.0,0.0,0.0,0.0,0.0,0.0,0.0,0.0,0.0,0.0,0.0,0.0,0.0,0.0,0.0,0.0,0.0,0.0,0.0,0.0,0.0,0.0,0.0,0.0,0.0,0.0,0.0,0.0,0.0,0.0,0.0,0.0,0.0,0.0,0.0,0.0,0.0,0.0,0.0,0.0,0.0,0.0,0.0,0.0,0.0,0.0,0.0,0.0,0.0,0.0,0.0,0.0,0.0,0.0,0.0,0.0,0.0,0.0,0.0,0.0,0.0,0.0,0.0,0.0,0.0,0.0,0.0,0.0,0.0,0.0,0.0,0.0,0.0,0.0,0.0,0.0,0.0,0.0,0.0,0.0,0.0,0.0,0.0,0.0,0.0,0.0,0.0,0.0,0.0,0.0,0.0,0.0,0.0,0.0,0.0,0.0,0.0,0.0,0.0,0.0,0.0,0.0,0.0,0.0,0.0,0.0,0.0,0.0,0.0,0.0,0.0,0.0,0.0,0.0,0.0,0.0,0.0,0.0,0.0,0.0,0.0,0.0,0.0,0.0,0.0,0.0,0.0,0.0,0.0,0.0,0.0,0.0,0.0,0.0,0.0,0.0,0.0,0.0,0.0,0.0,0.0,0.0,0.0,0.0,0.0,0.0,0.0,0.0,0.0,0.0,0.0,0.0,0.0,0.0,0.0,0.0,0.0,0.0,0.0,0.0,0.0,0.0,0.0,0.0,0.0,0.0,0.0,0.0,0.0,0.0,0.0,0.0,0.0,0.0,0.0,0.0,0.0,0.0,0.0,0.0,0.0,0.0,0.0,0.0,0.0,0.0,0.0,0.0,0.0,0.0,0.0,0.0,0.0,0.0,0.0,0.0,0.0,0.0,0.0,0.0,0.0,0.0,0.0,0.0,0.0,0.0,0.0,0.0,0.0,0.0,0.0,0.0,0.0,0.0,0.0,0.0,0.0,0.0,0.0,0.0,0.0,0.0,0.0,0.0,0.0,0.0,0.0,0.0,0.0,0.0,0.0,0.0,0.0,0.0,0.0,0.0,0.0,0.0,0.0,0.0,0.0,0.0,0.0,0.0,0.0,0.0,0.0,0.0,0.0,0.0,0.0,0.0,0.0,0.0,0.0,0.0,0.0,0.0,0.0,0.0,0.0,0.0,0.0,0.0,0.0,0.0,0.0,0.0,0.0,0.0,0.0,0.0,0.0,0.0,0.0,0.0,0.0,0.0,0.0,0.0,0.0,0.0,0.0,0.0,0.0,0.0,0.0,0.0,0.0,0.0,0.0,0.0,0.0,0.0,0.0,0.0,0.0,0.0,0.0,0.0,0.0,0.0,0.0,0.0,0.0,0.0,0.0,0.0,0.0,0.0,0.0,0.0,0.0,0.0,0.0,0.0,0.0,0.0,0.0,0.0,0.0,0.0,0.0,0.0,0.0,0.0,0.0,0.0,0.0,0.0,0.0,0.0,0.0,0.0,0.0,0.0,0.0,0.0,0.0,0.0,0.0,0.0,0.0,0.0,0.0,0.0,0.0,0.0,0.0,0.0,0.0,0.0,0.0,0.0,0.0,0.0,0.0,0.0,0.0,0.0,0.0,0.0,0.0,0.0,0.0,0.0,0.0,0.0,0.0,0.0,0.0,0.0,0.0,0.0,0.0,0.0,0.0,0.0,0.0,0.0,0.0,0.0,0.0,0.0,0.0,0.0,0.0,0.0,0.0,0.0,0.0,0.0,0.0,0.0,0.0,0.0,0.0,0.0,0.0,0.0,0.0,0.0,0.0,0.0,0.0,0.0,0.0,0.0,0.0,0.0,0.0,0.0,0.0,0.0,0.0,0.0,0.0,0.0,0.0,0.0,0.0,0.0,0.0,0.0,0.0,0.0,0.0,0.0,0.0,0.0,0.0,0.0,0.0,0.0,0.0,0.0,0.0,0.0,0.0,0.0,0.0,0.0,0.0,0.0,0.0,0.0,0.0,0.0,0.0,0.0,0.0,0.0,0.0,0.0,0.0,0.0,0.0,0.0,0.0,0.0,0.0,0.0,0.0,0.0,0.0,0.0,0.0,0.0,0.0,0.0,0.0,0.0,0.0,0.0,0.0,0.0,0.0,0.0,0.0,0.0,0.0,0.0,0.0,0.0,0.0,0.0,0.0,0.0,0.0,0.0,0.0,0.0,0.0,0.0,0.0,0.0,0.0,0.0,0.0,0.0,0.0,0.0,0.0,0.0,0.0,0.0,0.0,0.0,0.0,0.0,0.0,0.0,0.0,0.0,0.0,0.0,0.0,0.0,0.0,0.0,0.0,0.0,0.0,0.0,0.0,0.0,0.0,0.0,0.0,0.0,0.0,0.0,0.0,0.0,0.0,0.0,0.0,0.0,0.0,0.0,0.0,0.0,0.0,0.0,0.0,0.0,0.0,0.0,0.0,0.0,0.0,0.0,0.0,0.0,0.0,0.0,0.0,0.0,0.0,0.0,0.0,0.0,0.0,0.0,0.0,0.0,0.0,0.0,0.0,0.0,0.0,0.0,0.0,0.0,0.0,0.0,0.0,0.0,0.0,0.0,0.0,0.0,0.0,0.0,0.0,0.0,0.0,0.0,0.0,0.0,0.0,0.0,0.0,0.0,0.0,0.0,0.0,0.0,0.0,0.0,0.0,0.0,0.0,0.0,0.0,0.0,0.0,0.0,0.0,0.0,0.0,0.0,0.0,0.0,0.0,0.0,0.0,0.0,0.0,0.0,0.0,0.0,0.0,0.0,0.0,0.0,0.0,0.0,0.0,0.0,0.0,0.0,0.0,0.0,0.0,0.0,0.0,0.0,0.0,0.0,0.0,0.0,0.0,0.0,0.0,0.0,0.0,0.0,0.0,0.0,0.0,0.0,0.0,0.0,0.0,0.0,0.0,0.0,0.0,0.0,0.0,0.0,0.0,0.0,0.0,0.0,0.0,0.0,0.0,0.0,0.0,0.0,0.0,0.0,0.0,0.0,0.0,0.0,0.0,0.0,0.0,0.0,0.0,0.0,0.0,0.0,0.0,0.0,0.0,0.0,0.0,0.0,0.0,0.0,0.0,0.0,0.0,0.0,0.0,0.0,0.0,0.0,0.0,0.0,0.0,0.0,0.0,0.0,0.0,0.0,0.0,0.0,0.0,0.0,0.0,0.0,0.0,0.0,0.0,0.0,0.0,0.0,0.0,0.0,0.0,0.0,0.0,0.0,0.0,0.0,0.0,0.0,0.0,0.0,0.0,0.0,0.0,0.0,0.0,0.0,0.0,0.0,0.0,0.0,0.0,0.0,0.0,0.0,0.0,0.0,0.0,0.0,0.0,0.0,0.0,0.0,0.0,0.0,0.0,0.0,0.0,0.0,0.0,0.0,0.0,0.0,0.0,0.0,0.0,0.0,0.0,0.0,0.0,0.0,0.0,0.0,0.0,0.0,0.0,0.0,0.0,0.0,0.0,0.0,0.0,0.0,0.0,0.0,0.0,0.0,0.0,0.0,0.0,0.0,0.0,0.0,0.0,0.0,0.0,0.0,0.0,0.0,0.0,0.0,0.0,0.0,0.0,0.0,0.0,0.0,0.0,0.0,0.0,0.0,0.0,0.0,0.0,0.0,0.0,0.0,0.0,0.0,0.0,0.0,0.0,0.0,0.0,0.0,0.0,0.0,0.0,0.0,0.0,0.0,0.0,0.0,0.0,0.0,0.0,0.0,0.0,0.0,0.0,0.0,0.0,0.0,0.0,0.0,0.0,0.0,0.0,0.0,0.0,0.0,0.0,0.0,0.0,0.0,0.0,0.0,0.0,0.0,0.0,0.0,0.0,0.0,0.0,0.0,0.0,0.0,0.0,0.0,0.0,0.0,0.0,0.0,0.0,0.0,0.0,0.0,0.0,0.0,0.0,0.0,0.0,0.0,0.0,0.0,0.0,0.0,0.0,0.0,0.0,0.0,0.0,0.0,0.0,0.0,0.0,0.0,0.0,0.0,0.0,0.0,0.0,0.0,0.0,0.0,0.0,0.0,0.0,0.0,0.0,0.0,0.0,0.0,0.0,0.0,0.0,0.0,0.0,0.0,0.0,0.0,0.0,0.0,0.0,0.0,0.0,0.0,0.0,0.0,0.0,0.0,0.0,0.0,0.0,0.0,0.0,0.0,0.0,0.0,0.0,0.0,0.0,0.0,0.0,0.0,0.0,0.0,0.0,0.0,0.0,0.0,0.0,0.0,0.0,0.0,0.0,0.0,0.0,0.0,0.0,0.0,0.0,0.0,0.0,0.0,0.0,0.0,0.0,0.0,0.0,0.0,0.0,0.0,0.0,0.0,0.0,0.0,0.0,0.0,0.0,0.0,0.0,0.0,0.0,0.0,0.0,0.0,0.0,0.0,0.0,0.0,0.0,0.0,0.0,0.0,0.0,0.0,0.0,0.0,0.0,0.0,0.0,0.0,0.0,0.0,0.0,0.0,0.0,0.0,0.0,0.0,0.0,0.0,0.0,0.0,0.0,0.0,0.0,0.0,0.0,0.0,0.0,0.0,0.0,0.0,0.0,0.0,0.0,0.0,0.0,0.0,0.0,0.0,0.0,0.0,0.0,0.0,0.0,0.0,0.0,0.0,0.0,0.0,0.0,0.0,0.0,-0.2713,-0.2537,0.0,0.0,0.0,0.0,0.0,0.0,0.0,0.0,0.0,0.0,0.0,0.0,0.0,0.0,0.0,0.0,0.0,0.0,0.0,0.0,0.0,0.0,0.0,1.2437,1.233,1.2174,1.2029,1.1902,1.1763,0.0,0.0,0.0,0.0,0.0,0.9532,0.8723,0.779,0.6724,0.5583,0.4101,0.2292,0.2206,0.2829,0.4043,0.0,0.0,0.0,0.0,0.0,0.0,0.0,0.0,0.0,0.0,0.0,0.0,0.0,0.0,0.0,0.0,0.0,0.0,0.0,0.0,0.0,0.0,0.0,0.0,0.0,0.0,0.0,0.0,0.0,0.0,0.0,0.0,0.0,0.0,0.0,0.0,0.0,0.0,0.0,0.0,0.0,0.0,0.0,0.0,0.0,0.0,0.0,0.0,0.0,0.0,0.0,0.0,0.0,0.0,0.0,0.0,0.0,0.0,0.0,0.0,0.0,0.0,0.0,0.0,0.0,0.0,0.0,0.0,0.0,0.0,-0.2825,-0.2611,0.0,0.0,0.0,0.0,0.0,0.0,0.0,0.0,0.0,0.0,0.0,0.0,0.0,0.0,0.0,0.0,0.0,0.0,0.0,0.0,0.0,1.1484,1.2336,1.233,1.2166,1.199,1.1727,1.1501,1.1408,1.1145,0.0,0.0,0.0,0.9523,0.8795,0.7904,0.6946,0.5914,0.4376,0.2315,-0.0151,-0.0655,0.0603,0.3259,0.3014,0.0,0.0,0.0,0.0,0.0,0.0,0.0,0.0,0.0,0.0,0.0,0.0,0.0,0.0,0.0,0.0,0.0,0.0,0.0,0.0,0.0,0.0,0.0,0.0,0.0,0.0,0.0,0.0,0.0,0.0,0.0,0.0,0.0,0.0,0.0,0.0,0.0,0.0,0.0,0.0,0.0,0.0,0.0,0.0,0.0,0.0,0.0,0.0,0.0,0.0,0.0,0.0,0.0,0.0,0.0,0.0,0.0,0.0,0.0,0.0,0.0,0.0,0.0,-0.432,-0.4357,-0.4288,-0.4031,-0.383,-0.3652,-0.3004,-0.279,-0.2897,-0.2731,0.0,0.0,0.0,0.0,0.0,0.0,0.0,0.0,0.0,0.0,0.0,0.0,0.0,0.0,0.0,0.0,0.0,0.0,0.0,1.1246,1.207,1.1829,1.1586,1.1486,1.095,1.0587,1.0638,1.0132,0.0,0.0,0.8835,0.8228,0.755,0.6568,0.5508,0.4388,0.2291,0.0724,-0.0277,-0.0706,-0.0722,-0.0413,-0.0924,-0.0947,-0.0577,0.0,0.0,0.0,0.0,0.0,0.0,0.0,0.0,0.0,0.0,0.0,0.0,0.0,0.0,0.0,0.0,0.0,0.0,0.0,0.0,0.0,0.0,0.0,0.0,0.0,0.0,0.0,0.0,0.0,0.0,0.0,0.0,0.0,0.0,0.0,0.0,0.0,0.0,0.0,0.0,0.0,-0.0272,-0.0675,0.0,0.0,0.0,0.0,0.0,0.0,0.0,0.0,0.0,0.0,0.0,0.0,0.0,-0.3928,-0.4049,-0.4433,-0.4612,-0.4612,-0.465,-0.4533,-0.4301,-0.409,-0.4027,-0.4062,-0.3168,0.0,-0.2559,-0.2473,0.0,0.0,0.0,0.0,0.0,0.0,0.0,0.0,0.0,0.0,0.0,0.0,0.0,0.0,0.0,0.0,0.0,0.0,0.0,0.0,0.0,1.1729,1.1427,1.14,1.082,1.033,1.0065,0.9569,0.9027,0.8496,0.7957,0.7391,0.6805,0.5747,0.4388,0.2745,0.1415,0.0268,-0.0643,-0.0965,-0.1393,-0.1903,-0.2145,-0.1914,-0.1359,-0.0973,0.0,0.0,0.0,0.0,0.0,0.0,0.0,0.0,0.0,0.0,0.0,0.0,0.0,0.0,0.0,0.0,0.0,0.0,0.0,0.0,0.0,0.0,0.0,0.0,0.0,0.0,0.0,0.0,0.0,0.0,0.0,0.0,0.0,0.0,0.0,0.0,0.0,0.0,0.0,0.0486,0.0189,-0.0193,-0.0193,-0.0303,0.0,0.0,0.0,0.0,0.0,0.0,0.0,0.0,0.0,-0.3189,-0.3728,-0.4033,-0.411,-0.4492,-0.4603,-0.448,-0.448,-0.432,-0.4076,-0.3873,-0.3732,-0.3641,-0.2745,-0.2205,-0.2019,-0.2124,-0.224,-0.2403,0.0,0.0,0.0,0.0,-0.3296,-0.348,0.0,0.0,0.0,0.0,0.0,0.0,0.0,0.0,0.0,0.0,0.0,0.0,1.1953,1.149,1.1134,1.1137,1.0498,0.9931,0.0,0.8903,0.8302,0.7737,0.7164,0.6612,0.606,0.4813,0.3313,0.1535,0.0913,0.014,-0.0785,-0.1094,-0.1626,-0.227,-0.2354,-0.207,-0.1503,-0.1283,-0.1163,0.0,0.0,0.0,0.0,0.0,0.0,0.0,0.0,0.0,0.0,0.0,0.0,0.0,0.0,0.0,0.0,0.0,0.0,0.0,0.0,0.0,0.0,0.0,0.0,0.0,0.0,0.0,0.0,0.0,0.0,0.0,0.0,0.0,0.0,0.0,0.0,0.0,0.0,0.0744,0.0641,0.0271,0.0182,0.0061,0.0,0.0,0.0,0.0,0.0,0.0,-0.2202,-0.2512,-0.276,-0.2975,-0.3501,-0.3803,-0.3871,-0.4252,-0.4299,-0.4037,-0.4037,-0.3907,-0.3651,-0.3519,-0.3344,-0.3083,-0.229,-0.181,-0.1544,-0.1685,-0.1764,-0.1906,-0.2422,-0.2582,-0.2556,-0.2732,-0.2922,-0.3136,0.0,0.0,0.0,0.0,0.0,0.0,0.0,0.0,0.0,0.0,0.0,1.1286,1.1417,1.0838,1.0449,1.0442,0.9541,0.8962,0.0,0.0,0.726,0.6971,0.631,0.5672,0.5084,0.3522,0.2177,0.1119,0.0644,0.014,-0.0449,-0.0898,-0.1291,-0.1656,-0.1905,-0.2066,-0.214,-0.2016,-0.1827,-0.1625,0.0,0.0,0.0,0.0,0.0,0.0,0.0,0.0,0.0,0.0,0.0,0.0,0.0,0.0,0.0,0.0,0.0,0.0,0.0,0.0,0.0,0.0,0.0,0.0,0.0,0.0,0.0,0.0,0.0,0.0,0.0,0.0,0.0,0.0,0.0,0.0,0.0,0.0,0.0,0.0609,0.0395,0.0,0.0,0.0,0.0,-0.0974,-0.1222,-0.1459,-0.1733,-0.1737,-0.194,-0.2332,-0.2691,-0.2971,-0.3261,-0.356,-0.3595,-0.3362,-0.3362,-0.3221,-0.303,-0.303,-0.2888,-0.2601,-0.2043,-0.1658,-0.1375,-0.1076,-0.1033,-0.1211,-0.1654,-0.1948,-0.2063,-0.2257,-0.253,-0.2867,0.0,0.0,0.0,1.0287,1.025,1.0367,1.0784,1.1021,1.1253,1.1534,1.1698,1.1653,0.0,1.0834,1.0418,1.0183,0.9487,0.8934,0.8536,0.0,0.7411,0.6919,0.6393,0.5533,0.4311,0.3313,0.2377,0.1543,0.0982,0.0505,0.0112,-0.0308,-0.0785,-0.1291,-0.1598,-0.1822,-0.1934,-0.1991,-0.2008,-0.1989,-0.1788,-0.1784,0.0,0.0,0.0,0.0,0.0,0.0,0.0,0.0,0.0,0.0,0.0,0.0,0.0,0.0,0.0,0.0,0.0,0.0,0.0,0.0,0.0,0.0,0.0,0.0,0.0,0.0,0.0,0.0,0.0,0.0,0.0,0.0,0.0,0.0,0.0,0.0,0.0,0.1009,0.068,0.0,0.0437,-0.0037,-0.0382,-0.0547,-0.0721,-0.0911,-0.1037,-0.1185,-0.1345,-0.1523,-0.1951,-0.2197,-0.2307,-0.2608,-0.2617,-0.2333,-0.2333,-0.219,-0.1954,-0.1954,-0.1858,-0.1619,-0.123,-0.0943,-0.0754,-0.0461,-0.0533,-0.0848,-0.1129,-0.1241,-0.1314,-0.1355,-0.1651,-0.2076,1.0299,1.0287,0.0,1.0212,1.0289,1.0503,1.088,1.1265,1.1564,1.1721,1.1804,1.1686,1.1232,1.0681,1.0156,0.9714,0.9178,0.8652,0.814,0.7777,0.7383,0.6879,0.622,0.5332,0.4206,0.3477,0.2772,0.2057,0.1536,0.1073,0.0696,0.0319,-0.0174,-0.0725,-0.1102,-0.1384,-0.157,-0.1739,-0.1927,-0.2108,-0.1901,-0.1971,-0.2126,0.0,0.0,0.0,0.0,0.0,0.0,0.0,0.0,0.0,0.0,0.0,0.0,0.0,0.0,0.0,0.0,0.0,0.0,0.0,0.0,0.0,0.0,0.0,0.0,0.0,0.0,0.0,0.0,0.0,0.0,0.0,0.0,0.0,0.0,0.1355,0.1287,0.113,0.0813,0.0591,0.0517,0.0081,-0.0208,-0.0213,-0.0304,-0.0401,-0.0457,-0.0603,-0.0708,-0.0866,-0.1155,-0.1351,-0.1457,-0.1651,-0.1651,-0.1457,-0.1457,-0.1361,-0.1216,-0.1216,-0.107,-0.0875,-0.0676,-0.0481,-0.0241,-0.0096,-0.0186,-0.0493,-0.0663,-0.0748,-0.0748,-0.0792,-0.1138,-0.1649,1.0299,1.025,1.0199,1.0186,1.0477,1.0853,1.1325,1.1556,1.1867,1.2318,1.1822,1.1325,1.1095,1.0325,0.9594,0.9033,0.8513,0.8055,0.7723,0.7402,0.7095,0.6813,0.5817,0.5085,0.4731,0.3955,0.3246,0.2644,0.2216,0.1788,0.1329,0.0988,0.0587,0.0093,-0.0432,-0.082,-0.1092,-0.1299,-0.1592,-0.1956,-0.1759,-0.192,-0.2229,0.0,0.0,0.0,0.0,0.0,0.0,0.0,0.0,0.0,0.0,0.0,0.0,0.0,0.0,0.0,0.0,0.0,0.0,0.0,0.0,0.0,0.0,0.0,0.0,0.0,0.0,0.0,0.0,0.0,0.0,0.0,0.0,0.0,0.1295,0.136,0.1276,0.0933,0.0791,0.0596,0.0305,0.0133,0.0,0.0,0.0,0.0,0.0,0.0,-0.0096,-0.0393,-0.0393,-0.0496,-0.0757,-0.0758,-0.0758,-0.0758,-0.0758,-0.0758,-0.0758,-0.0758,-0.0657,-0.0404,-0.0396,-0.0246,0.0,0.0,0.0,-0.0048,-0.0286,-0.0381,-0.0429,-0.062,-0.0989,-0.1569,1.025,1.0212,1.0148,1.0021,1.0371,1.0796,1.107,1.1351,1.1664,1.199,1.1799,1.1365,1.0664,1.0203,0.9563,0.8653,0.8348,0.8055,0.7723,0.7606,0.7412,0.7098,0.6494,0.591,0.5437,0.478,0.4134,0.3472,0.286,0.2402,0.2005,0.1573,0.111,0.0587,0.0093,-0.0307,-0.061,-0.0793,-0.1018,-0.1217,-0.1515,-0.1741,-0.1896,0.0,0.0,0.0,0.0,0.0,0.0,0.0,0.0,0.0,0.0,0.0,0.0,0.0,0.0,0.0,0.0,0.0,0.0,0.0,0.0,0.0,0.0,0.0,0.0,0.0,0.0,0.0,0.0,0.0,0.0,0.0,0.1254,0.1251,0.1371,0.1355,0.1219,0.102,0.0827,0.0578,0.0318,0.0139,0.0,0.0,0.0,0.0,0.0,0.0,-0.005,-0.01,-0.01,-0.0151,-0.0202,-0.0202,-0.0202,-0.0202,-0.0202,-0.0202,-0.0202,-0.0202,-0.0202,-0.0101,-0.01,-0.005,0.0,0.0,0.0,0.0,-0.0096,-0.0095,-0.0095,-0.0191,-0.0475,-0.0992,1.0212,1.038,1.0468,1.0258,1.0826,1.1283,1.1292,1.1549,1.1841,1.2134,1.1803,1.1365,1.0808,1.0253,0.9529,0.8573,0.8242,0.7949,0.7649,0.7666,0.7544,0.7203,0.0,0.655,0.6078,0.5459,0.4871,0.4336,0.3639,0.3098,0.2656,0.227,0.1791,0.1249,0.0736,0.0286,-0.0126,-0.0378,-0.0556,-0.072,-0.1002,-0.1236,-0.1397,-0.1151,-0.0871,-0.0543,-0.0133,0.0261,0.0617,0.073,0.0,0.0,0.0,0.0,0.0,0.0,0.0,0.0,0.0,0.0,0.0,0.0,0.0,0.0,0.0,0.0,0.0,0.0,0.0,0.0,0.0,0.0,0.0,0.0,0.1247,0.1277,0.1383,0.1378,0.1247,0.089,0.0818,0.0603,0.0189,0.0048,0.0,0.0,0.0,0.0,0.0,0.0,0.0,0.0,0.0,0.0,0.0,0.0,0.0,0.0,0.0,0.0,0.0,0.0,0.0,0.0,0.0,0.0,0.0,0.0,0.0,0.0,0.0,0.0,0.0,0.0,-0.0338,-0.0627,1.038,1.0752,1.1003,1.0808,1.1505,1.2017,1.1723,1.192,1.22,1.2446,1.1867,1.1355,1.1198,1.0379,0.9503,0.8705,0.8235,0.7842,0.7574,0.7644,0.7598,0.7278,0.7209,0.7035,0.6737,0.6109,0.5607,0.5253,0.4525,0.3861,0.3326,0.2989,0.2519,0.1985,0.1446,0.0929,0.0389,0.0065,-0.0159,-0.031,-0.031,-0.0508,-0.0818,-0.0677,-0.0422,-0.014,0.0028,0.033,0.0642,0.064,0.0,0.0,0.0,0.0,0.0,0.0,0.0,0.0,0.0,0.0,0.0,0.0,0.0,0.0,0.0,0.0,0.0,0.0,0.0,0.0,0.0,0.0,0.0,0.0,0.1262,0.1335,0.1393,0.1403,0.1233,0.079,0.0757,0.0579,0.0049,0.0,0.0,0.0,0.0,0.0,0.0,0.0,0.0,0.0,0.0,0.0,0.0,0.0,0.0,0.0,0.0,0.0,0.0,0.0,0.0,0.0,0.0,0.0,0.0,0.0,0.0,0.0,0.0,0.0,-0.005,-0.0248,-0.0345,-0.0393,1.142,1.154,1.1471,1.1233,1.1701,1.2,1.1668,1.1896,1.2163,1.231,1.1889,1.1433,1.1073,1.0474,0.9755,0.883,0.8573,0.8289,0.0,0.0,0.7812,0.7691,0.7714,0.7662,0.7501,0.708,0.6641,0.6152,0.5458,0.4758,0.409,0.3756,0.3222,0.2519,0.2153,0.1643,0.1101,0.0734,0.0492,0.032,0.032,0.0,-0.0467,-0.0234,-0.0029,0.0168,0.0449,0.0698,0.0829,0.0833,0.0874,0.0917,0.0833,0.0,0.0,0.0,0.0,0.0,0.0,0.0,0.0,0.0,0.0,0.0,0.0,0.0,0.0,0.0,0.0,0.0,0.0,0.0,0.0,0.1378,0.1391,0.1395,0.1453,0.153,0.1354,0.0825,0.0779,0.059,0.005,0.0,0.0,0.0,0.0,0.0,0.0,0.0,0.0,0.0,0.0,0.0,0.0,0.0,0.0,0.0,0.0,0.0,0.0,0.0,0.0,0.0,0.0,0.0,0.0,0.0,0.0,0.0,0.0,0.0,0.0,-0.005,-0.01,-0.01,1.2497,1.2335,1.2021,1.1742,1.2136,1.2402,1.2059,1.2059,1.208,1.2056,1.1781,1.1385,1.0817,1.0557,1.0043,0.9038,0.8724,0.0,0.0,0.8149,0.819,0.7908,0.8078,0.8132,0.7949,0.7629,0.7237,0.6811,0.6185,0.5557,0.4858,0.4392,0.3859,0.3222,0.2788,0.2287,0.1715,0.1244,0.0901,0.0626,0.0528,0.0321,0.0062,0.0212,0.0325,0.046,0.0633,0.0796,0.0895,0.0907,0.0902,0.0897,0.0865,0.087,0.0905,0.0,0.0,0.0,0.0,0.0,0.0,0.0,0.0,0.0,0.0,0.0,0.0,0.0,0.0,0.1387,0.1367,0.0,0.1408,0.14,0.1406,0.145,0.135,0.1366,0.1228,0.0834,0.0792,0.06,0.005,0.0,0.0,0.0,0.0,0.0,0.0,0.0,0.0,0.0,0.0,0.0,0.0,0.0,0.0,0.0,0.0,0.0,0.0,0.0,0.0,0.0,0.0,0.0,0.0,0.0,0.0,0.0,0.0,0.0,0.0,0.0,0.0,0.0,1.3255,1.2968,1.2567,1.2308,1.2614,1.2791,1.2449,1.2222,1.2046,1.1867,1.1674,1.1291,1.066,1.0614,1.0218,0.0,0.0,0.0,0.0,0.8474,0.8551,0.8183,0.8437,0.8506,0.8366,0.8052,0.7759,0.7396,0.6876,0.6251,0.5524,0.5052,0.4529,0.3958,0.3472,0.2961,0.2406,0.1796,0.1317,0.0941,0.074,0.0631,0.0617,0.0602,0.0645,0.0714,0.0743,0.0815,0.0906,0.0906,0.0902,0.0894,0.0896,0.091,0.09,0.0874,0.0943,0.0,0.0,0.0,0.0,0.0,0.0,0.0,0.0,0.0,0.1435,0.1402,0.1385,0.1381,0.1313,0.1371,0.142,0.1456,0.1503,0.1449,0.1281,0.1284,0.1185,0.0888,0.0801,0.0556,0.0051,0.0,0.0,0.0,0.0,0.0,0.0,0.0,0.0,0.0,0.0,0.0,0.0,0.0,0.0,0.0,0.0,0.0,0.0,0.0,0.0,0.0,0.0,0.0,0.0,0.0,0.0,0.0,0.0,0.0,0.0,0.0,0.0,0.0,1.3132,1.3165,1.3064,1.2844,1.2859,1.2791,1.2449,1.2222,1.2076,1.1989,1.1603,1.1238,1.0978,1.0592,1.0059,0.9328,0.0,0.0,0.0,0.8765,0.8723,0.8809,0.8906,0.892,0.892,0.8765,0.8474,0.8102,0.7619,0.69,0.6017,0.5762,0.5315,0.4668,0.4384,0.3876,0.3236,0.2681,0.2096,0.148,0.1278,0.1141,0.1037,0.1034,0.0935,0.0799,0.0922,0.0933,0.0908,0.0908,0.0891,0.0897,0.0894,0.0901,0.0931,0.1033,0.0,0.1253,0.1266,0.1276,0.1301,0.131,0.1232,0.1149,0.0,0.0,0.1252,0.1314,0.1309,0.1346,0.1365,0.1448,0.1489,0.1547,0.1562,0.1577,0.1557,0.1561,0.146,0.1209,0.0757,0.0303,0.0051,0.0,0.0,0.0,0.0,0.0,0.0,0.0,0.0,0.0,0.0,0.0,0.0,0.0,0.0,0.0,0.0,0.0,0.0,0.0,0.0,0.0,0.0,0.0,0.0,0.0,0.0,0.0,0.0,0.0,0.0,0.0,0.0,0.0,1.3148,1.3198,1.3163,1.3042,1.296,1.2791,1.2449,1.2222,1.1981,1.1648,1.1485,1.1185,1.0544,1.0084,0.9781,0.9608,0.922,0.9014,0.9098,0.918,0.92,0.9201,0.9244,0.93,0.93,0.9049,0.8797,0.8533,0.8284,0.7779,0.7075,0.6676,0.6194,0.5602,0.5129,0.4585,0.3928,0.3342,0.278,0.2338,0.1963,0.1783,0.1748,0.1748,0.1641,0.1454,0.1212,0.1151,0.0,0.0,0.1078,0.101,0.101,0.0972,0.0937,0.1096,0.1188,0.0,0.1292,0.1254,0.1205,0.0,0.1242,0.1209,0.1239,0.1269,0.1262,0.1345,0.1378,0.1368,0.1454,0.1501,0.159,0.0,0.1586,0.1552,0.1413,0.1364,0.1263,0.101,0.0758,0.0505,0.0253,0.0253,0.0152,0.0,0.0,0.0,0.0,0.0,0.0,0.0,0.0,0.0,0.0,0.0,0.0,0.0,0.0,0.0,0.0,0.0,0.0,0.0,0.0,0.0,0.0,0.0,0.0,0.0,0.0,0.0,0.0,0.0,0.0,0.0,1.3198,1.3198,1.3181,1.3107,1.299,1.2791,1.2473,1.224,1.192,1.146,1.1392,1.1064,1.0186,0.9869,0.9772,0.9882,0.9624,0.9479,0.9501,0.9645,0.9706,0.9594,0.9687,0.0,0.9652,0.9402,0.9218,0.9098,0.8914,0.8521,0.7966,0.746,0.6937,0.6407,0.5868,0.5316,0.4764,0.4137,0.3661,0.3209,0.2715,0.2515,0.248,0.2362,0.2312,0.2218,0.1669,0.1494,0.0,0.0,0.1356,0.1234,0.1178,0.1122,0.113,0.1285,0.1321,0.1338,0.1403,0.128,0.0,0.1208,0.1254,0.129,0.132,0.1343,0.1325,0.1397,0.1427,0.1457,0.1487,0.1536,0.1624,0.1682,0.1703,0.1667,0.1566,0.1515,0.1464,0.1262,0.1262,0.1111,0.0758,0.0505,0.0303,0.0101,0.0101,0.0101,0.0101,0.0202,0.0202,0.0202,0.0202,0.0202,0.0101,0.0101,0.0051,0.0,0.0,0.0051,0.0101,0.0202,0.0202,0.0202,0.0202,0.0202,0.0202,0.0202,0.0202,0.0202,0.0202,0.0202,0.0202,0.0152,0.0051,0.0,1.3198,1.3198,1.3181,1.3107,1.299,1.2808,1.2544,1.2276,1.1998,1.1719,1.1354,1.0841,1.0176,1.0207,1.0242,1.0098,0.9961,0.9998,1.0258,1.0158,1.0086,1.0094,1.0207,1.0174,0.9983,0.9983,0.9928,0.9862,0.9522,0.9032,0.8388,0.7956,0.7504,0.6957,0.6668,0.627,0.5719,0.5305,0.4749,0.4126,0.3596,0.3279,0.313,0.2815,0.2805,0.2896,0.2351,0.0,0.0,0.0,0.1698,0.1543,0.1347,0.1431,0.0,0.1665,0.1632,0.0,0.0,0.0,0.1291,0.1294,0.1301,0.131,0.1381,0.1388,0.1397,0.1383,0.1458,0.1489,0.1519,0.155,0.168,0.1963,0.197,0.2071,0.2321,0.2371,0.2371,0.2371,0.2371,0.212,0.1616,0.0859,0.0404,0.0404,0.0404,0.0404,0.0404,0.0657,0.0758,0.0758,0.0758,0.0657,0.0404,0.0404,0.0253,0.0,0.0,0.0152,0.0404,0.0657,0.0758,0.0758,0.0758,0.0758,0.0758,0.0758,0.0758,0.0758,0.0758,0.0758,0.0758,0.0505,0.0202,0.0,1.3198,1.3198,1.3181,1.3163,1.3012,1.2843,1.2733,1.2365,1.1998,1.1738,1.1276,0.0,0.0,0.0,0.0,0.0,1.053,1.0417,1.0683,1.0477,1.0359,1.0384,1.0187,1.0174,1.0339,1.0168,1.0158,1.0354,1.0168,0.9824,0.9381,0.8934,0.8463,0.7925,0.7566,0.7075,0.65,0.6138,0.5718,0.5218,0.4832,0.458,0.4442,0.4334,0.4197,0.4024,0.0,0.0,0.0,0.0,0.2373,0.2186,0.213,0.0,0.0,0.2336,0.0,0.2034,0.2196,0.0,0.151,0.1621,0.1488,0.1384,0.1413,0.142,0.1379,0.1388,0.1459,0.153,0.1681,0.1759,0.1939,0.2371,0.2477,0.2636,0.312,0.3176,0.3176,0.3176,0.3024,0.2773,0.2423,0.1667,0.1061,0.0707,0.0657,0.0657,0.0657,0.0758,0.0808,0.0808,0.0808,0.0758,0.0657,0.0657,0.0606,0.0556,0.0556,0.0556,0.0657,0.0758,0.0808,0.0808,0.0808,0.0808,0.0808,0.0808,0.0808,0.0808,0.0808,0.0808,0.0808,0.0707,0.0606,0.0505,1.3198,1.3198,1.3198,1.3198,1.3064,0.0,0.0,0.0,0.0,0.0,0.0,0.0,0.0,0.0,0.0,0.0,0.0,1.1002,1.1032,1.0867,1.0717,1.0581,1.0419,1.0393,1.0511,1.0444,1.053,1.0706,1.0679,1.0499,1.0113,0.957,0.9073,0.8519,0.8068,0.759,0.7074,0.6817,0.649,0.6166,0.583,0.5631,0.5561,0.5442,0.5267,0.0,0.0,0.0,0.0,0.0,0.0,0.0,0.0,0.0,0.0,0.0,0.2938,0.2659,0.2749,0.2359,0.1937,0.2021,0.1879,0.1676,0.1699,0.1705,0.1705,0.1705,0.1713,0.1773,0.203,0.2092,0.2361,0.3024,0.3185,0.3501,0.4071,0.423,0.4331,0.4331,0.4079,0.3778,0.3428,0.2724,0.1969,0.1162,0.101,0.096,0.096,0.101,0.1061,0.1061,0.1061,0.1061,0.096,0.096,0.0909,0.0808,0.0909,0.096,0.096,0.1061,0.1061,0.1061,0.1061,0.1061,0.1061,0.1061,0.1061,0.1061,0.1061,0.1061,0.1061,0.096,0.096,0.0859,1.3198,1.3198,1.3198,0.0,0.0,0.0,0.0,0.0,0.0,0.0,0.0,0.0,0.0,0.0,0.0,0.0,0.0,0.0,1.1377,0.0,0.0,1.074,1.0892,1.085,1.0551,1.0836,1.0954,1.0927,1.1111,1.0989,1.052,0.9916,0.937,0.885,0.8282,0.7823,0.7469,0.7323,0.7137,0.6939,0.6598,0.6466,0.6447,0.6115,0.0,0.0,0.0,0.0,0.0,0.0,0.0,0.0,0.0,0.0,0.0,0.0,0.0,0.3534,0.3345,0.2938,0.2565,0.2569,0.2431,0.2288,0.224,0.224,0.2239,0.2237,0.22,0.2239,0.2602,0.0,0.2878,0.3824,0.4201,0.4575,0.5175,0.5486,0.5684,0.0,0.0,0.0,0.0,0.0,0.313,0.1821,0.1415,0.1263,0.1263,0.1465,0.1617,0.1617,0.1617,0.1465,0.1212,0.1212,0.1111,0.0859,0.1111,0.1212,0.1212,0.1465,0.1617,0.1617,0.1617,0.1617,0.1617,0.1617,0.1617,0.1617,0.1617,0.1617,0.1566,0.1314,0.1212,0.1162,0.0,0.0,0.0,0.0,0.0,0.0,0.0,0.0,0.0,0.0,0.0,0.0,0.0,0.0,0.0,0.0,0.0,0.0,1.1927,0.0,0.0,0.0,0.0,0.0,1.0942,1.0843,0.0,0.0,0.0,1.1162,1.0948,1.052,1.0162,0.0,0.9125,0.8618,0.827,0.8098,0.7904,0.7717,0.0,0.7508,0.7343,0.0,0.0,0.0,0.0,0.0,0.0,0.0,0.0,0.0,0.0,0.0,0.5024,0.0,0.0,0.4859,0.4564,0.411,0.3745,0.3585,0.339,0.321,0.3119,0.2977,0.2876,0.2915,0.2806,0.2889,0.3476,0.3646,0.0,0.4928,0.5214,0.0,0.6313,0.6442,0.0,0.6492,0.0,0.5887,0.5334,0.4892,0.0,0.3604,0.2644,0.2019,0.1819,0.1869,0.1819,0.1617,0.1617,0.1566,0.1516,0.1516,0.1465,0.1415,0.1465,0.1516,0.1516,0.1566,0.1617,0.1617,0.1617,0.1617,0.1617,0.1617,0.1617,0.1617,0.1617,0.1617,0.1617,0.1516,0.1516,0.1465,0.0,0.0,0.0,0.0,0.0,0.0,0.0,0.0,0.0,0.0,0.0,0.0,0.0,0.0,0.0,0.0,0.0,0.0,0.0,0.0,0.0,0.0,0.0,0.0,0.0,1.1041,0.0,0.0,0.0,0.0,0.0,1.0722,1.0324,0.9917,0.9194,0.8705,0.8398,0.0,0.0,0.0,0.0,0.0,0.0,0.0,0.0,0.0,0.0,0.0,0.0,0.0,0.0,0.544,0.5634,0.5853,0.6044,0.6045,0.0,0.5996,0.563,0.5188,0.4803,0.4596,0.4353,0.4089,0.4043,0.3875,0.3751,0.3789,0.3635,0.0,0.4345,0.4453,0.0,0.0,0.0,0.0,0.7059,0.7244,0.7341,0.0,0.7092,0.0,0.6462,0.6011,0.5552,0.5028,0.3687,0.2687,0.2276,0.2173,0.1966,0.1655,0.1655,0.165,0.1637,0.1637,0.163,0.1617,0.1617,0.1617,0.1617,0.1617,0.1617,0.1617,0.1617,0.1617,0.1617,0.1617,0.1617,0.1617,0.1617,0.1617,0.1617,0.1617,0.1617,0.1617,0.0,0.0,0.0,0.0,0.0,0.0,0.0,0.0,0.0,0.0,0.0,0.0,0.0,0.0,0.0,0.0,0.0,0.0,0.0,0.0,0.0,0.0,0.0,0.0,0.0,0.0,0.0,0.0,0.0,0.0,0.0,0.0,0.0,0.0,0.0,0.0,0.0,0.0,0.0,0.0,0.0,0.0,0.0,0.0,0.0,0.0,0.0,0.0,0.0,0.0,0.6605,0.6169,0.6632,0.6878,0.7031,0.7009,0.7017,0.6985,0.6556,0.6209,0.5899,0.568,0.5367,0.5059,0.5046,0.491,0.478,0.4765,0.0,0.4557,0.5211,0.5176,0.5391,0.6496,0.0,0.7127,0.7572,0.7813,0.7968,0.7988,0.7809,0.7673,0.7587,0.7167,0.6711,0.6235,0.4759,0.3583,0.2824,0.2451,0.2131,0.1757,0.1757,0.1743,0.1766,0.1766,0.1698,0.1617,0.1617,0.1617,0.1617,0.1617,0.1617,0.1617,0.1617,0.1617,0.1617,0.1617,0.1617,0.1617,0.1617,0.1617,0.1617,0.1617,0.1617,0.1617,0.0,0.0,0.0,0.0,0.0,0.0,0.0,0.0,0.0,0.0,0.0,0.0,0.0,0.0,0.0,0.0,0.0,0.0,0.0,0.0,0.0,0.0,0.0,0.0,0.0,0.0,0.0,0.0,0.0,0.0,0.0,0.0,0.0,0.0,0.0,0.0,0.0,0.0,0.0,0.0,0.0,0.0,0.0,0.0,0.0,0.0,0.0,0.0,0.0,0.0,0.7348,0.698,0.7067,0.7453,0.7781,0.7551,0.7694,0.7888,0.7402,0.7248,0.7136,0.6874,0.6676,0.6495,0.6386,0.5956,0.0,0.0,0.5445,0.5381,0.5991,0.6182,0.6401,0.7004,0.0,0.0,0.7746,0.7803,0.7896,0.0,0.8103,0.8085,0.7849,0.7963,0.0,0.7217,0.6546,0.5427,0.3785,0.3143,0.2611,0.2131,0.2131,0.2113,0.2023,0.2023,0.1902,0.1617,0.1617,0.1617,0.1617,0.1617,0.1617,0.1617,0.1617,0.1617,0.1617,0.1617,0.1617,0.1617,0.1617,0.1617,0.1617,0.1617,0.1617,0.1617,0.0,0.0,0.0,0.0,0.0,0.0,0.0,0.0,0.0,0.0,0.0,0.0,0.0,0.0,0.0,0.0,0.0,0.0,0.0,0.0,0.0,0.0,0.0,0.0,0.0,0.0,0.0,0.0,0.0,0.0,0.0,0.0,0.0,0.0,0.0,0.0,0.0,0.0,0.0,0.0,0.0,0.0,0.0,0.0,0.0,0.0,0.0,0.0,0.0,0.0,0.8208,0.8199,0.7923,0.8148,0.8459,0.8213,0.8324,0.8464,0.7977,0.7845,0.7801,0.7584,0.7318,0.7101,0.6944,0.0,0.0,0.0,0.5936,0.5916,0.6357,0.0,0.0,0.0,0.0,0.0,0.0,0.0,0.0,0.8133,0.8225,0.833,0.8321,0.8415,0.8415,0.8214,0.7674,0.6496,0.4537,0.3392,0.2737,0.2464,0.2464,0.2432,0.2367,0.2367,0.2231,0.2019,0.1869,0.1819,0.1819,0.1667,0.1617,0.1617,0.1617,0.1617,0.1617,0.1617,0.1617,0.1617,0.1617,0.1617,0.1617,0.1617,0.1617,0.1617,0.0,0.0,0.0,0.0,0.0,0.0,0.0,0.0,0.0,0.0,0.0,0.0,0.0,0.0,0.0,0.0,0.0,0.0,0.0,0.0,0.0,0.0,0.0,0.0,0.0,0.0,0.0,0.0,0.0,0.0,0.0,0.0,0.0,0.0,0.0,0.0,0.0,0.0,0.0,0.0,0.0,0.0,0.0,0.0,0.0,0.0,0.0,0.0,0.0,0.0,0.9,0.9269,0.8846,0.889,0.9078,0.8864,0.8858,0.8813,0.8456,0.8332,0.8248,0.8076,0.7781,0.7484,0.7272,0.695,0.0,0.0,0.6267,0.6276,0.6581,0.0,0.6832,0.0,0.7575,0.7816,0.0,0.0,0.0,0.0,0.8484,0.0,0.8843,0.8902,0.8968,0.9082,0.8426,0.7149,0.5089,0.381,0.3029,0.2918,0.2918,0.282,0.2733,0.2669,0.2621,0.2436,0.2175,0.2071,0.2071,0.1869,0.1718,0.1667,0.1667,0.1667,0.1617,0.1617,0.1617,0.1617,0.1617,0.1617,0.1617,0.1617,0.1617,0.1617,0.0,0.0,0.0,0.0,0.0,0.0,0.0,0.0,0.0,0.0,0.0,0.0,0.0,0.0,0.0,0.0,0.0,0.0,0.0,0.0,0.0,0.0,0.0,0.0,0.0,0.0,0.0,0.0,0.0,0.0,0.0,0.0,0.0,0.0,0.0,0.0,0.0,0.0,0.0,0.0,0.0,0.0,0.0,0.0,0.0,0.0,0.0,0.0,0.0,0.0,0.0,0.9835,0.9776,0.9636,0.9437,0.9405,0.0,0.0,0.886,0.8692,0.8564,0.8524,0.8245,0.7889,0.7757,0.0,0.0,0.6718,0.6503,0.6431,0.6634,0.6851,0.6985,0.0,0.0,0.7731,0.0,0.0,0.0,0.8711,0.0,0.0,0.9494,0.965,0.9688,0.9702,0.8644,0.7199,0.5427,0.4702,0.4089,0.3531,0.3531,0.3391,0.3057,0.3009,0.2797,0.2483,0.239,0.2371,0.2371,0.2321,0.217,0.1971,0.1971,0.1819,0.1617,0.1617,0.1617,0.1617,0.1617,0.1617,0.1617,0.1617,0.1617,0.1617,0.0,0.0,0.0,0.0,0.0,0.0,0.0,0.0,0.0,0.0,0.0,0.0,0.0,0.0,0.0,0.0,0.0,0.0,0.0,0.0,0.0,0.0,0.0,0.0,0.0,0.0,0.0,0.0,0.0,0.0,0.0,0.0,0.0,0.0,0.0,0.0,0.0,0.0,0.0,0.0,0.0,0.0,0.0,0.0,0.0,0.0,0.0,0.0,0.0,0.0,0.0,0.0,1.0514,1.0472,0.0,0.0,0.9464,0.94,0.9012,0.8822,0.8711,0.8469,0.8207,0.7914,0.7525,0.0,0.6906,0.6587,0.6469,0.644,0.6509,0.6672,0.6879,0.7013,0.7441,0.7782,0.783,0.8249,0.0,0.8795,0.9076,0.0,0.0,0.9716,0.9816,0.9816,0.9368,0.8533,0.7315,0.5871,0.4758,0.4145,0.3923,0.367,0.3335,0.328,0.3169,0.2956,0.2749,0.2623,0.2623,0.2472,0.2321,0.2221,0.2221,0.207,0.1819,0.1819,0.1819,0.1819,0.1819,0.192,0.207,0.207,0.1969,0.1819,0.0,0.0,0.0,0.0,0.0,0.0,0.0,0.0,0.0,0.0,0.0,0.0,0.0,0.0,0.0,0.0,0.0,0.0,0.0,0.0,0.0,0.0,0.0,0.0,0.0,0.0,0.0,0.0,0.0,0.0,0.0,0.0,0.0,0.0,0.0,0.0,0.0,0.0,0.0,0.0,0.0,0.0,0.0,0.0,0.0,0.0,0.0,0.0,0.0,0.0,0.0,0.0,0.0,0.0,0.0,0.0,0.9914,0.9835,0.9382,0.9103,0.8841,0.8535,0.8276,0.7969,0.0,0.7227,0.6987,0.6556,0.6453,0.6387,0.6387,0.6611,0.6845,0.6967,0.749,0.7882,0.7922,0.8446,0.0,0.0,0.0,0.9545,0.9758,0.9934,1.0036,0.9981,0.9871,0.9427,0.854,0.6874,0.5594,0.4814,0.437,0.3958,0.3523,0.345,0.3391,0.3347,0.3063,0.2927,0.2927,0.2725,0.2573,0.2522,0.2522,0.2372,0.2122,0.2122,0.2122,0.2122,0.2122,0.2221,0.2422,0.2422,0.2271,0.2122,0.0,0.0,0.0,0.0,0.0,0.0,0.0,0.0,0.0,0.0,0.0,0.0,0.0,0.0,0.0,0.0,0.0,0.0,0.0,0.0,0.0,0.0,0.0,0.0,0.0,0.0,0.0,0.0,0.0,0.0,0.0,0.0,0.0,0.0,0.0,0.0,0.0,0.0,0.0,0.0,0.0,0.0,0.0,0.0,0.0,0.0,0.0,0.0,0.0,0.0,0.0,0.0,0.0,0.0,0.0,0.0,1.0631,1.0019,1.0143,0.9577,0.8882,0.8878,0.8649,0.8282,0.0,0.7545,0.7197,0.6784,0.6548,0.6387,0.6387,0.6743,0.6988,0.6988,0.7549,0.8012,0.8016,0.8641,0.0,0.0,0.0,1.003,1.0346,1.059,1.0582,1.0312,0.9981,0.9427,0.854,0.7654,0.6652,0.5427,0.4814,0.4201,0.3587,0.347,0.3413,0.341,0.3238,0.318,0.318,0.318,0.3029,0.2775,0.2775,0.2623,0.2422,0.2422,0.2422,0.2422,0.2422,0.2422,0.2422,0.2422,0.2422,0.2422,0.0,0.0,0.0,0.0,0.0,0.0,0.0,0.0,0.0,0.0,0.0,0.0,0.0,0.0,0.0,0.0,0.0,0.0,0.0,0.0,0.0,0.0,0.0,0.0,0.0,0.0,0.0,0.0,0.0,0.0,0.0,0.0,0.0,0.0,0.0,0.0,0.0,0.0,0.0,0.0,0.0,0.0,0.0,0.0,0.0,0.0,0.0,0.0,0.0,0.0,0.0,0.0,0.0,0.0,0.0,1.1291,1.0823,1.0282,0.9931,0.9591,0.9269,0.9039,0.8758,0.8456,0.8092,0.7707,0.7357,0.7089,0.6876,0.6712,0.6609,0.6776,0.695,0.7003,0.749,0.0,0.0,0.0,0.0,0.9173,0.9596,1.003,1.0346,1.0211,1.0113,1.0066,0.938,0.8776,0.8387,0.711,0.6058,0.5423,0.4764,0.4132,0.3525,0.3409,0.335,0.3349,0.3217,0.318,0.318,0.318,0.313,0.3079,0.3079,0.2927,0.2674,0.2674,0.2674,0.2674,0.2674,0.2775,0.2927,0.2927,0.2826,0.2674,0.0,0.0,0.0,0.0,0.0,0.0,0.0,0.0,0.0,0.0,0.0,0.0,0.0,0.0,0.0,0.0,0.0,0.0,0.0,0.0,0.0,0.0,0.0,0.0,0.0,0.0,0.0,0.0,0.0,0.0,0.0,0.0,0.0,0.0,0.0,0.0,0.0,0.0,0.0,0.0,0.0,0.0,1.2957,0.0,0.0,0.0,0.0,0.0,0.0,0.0,0.0,0.0,0.0,0.0,0.0,0.0,1.0794,1.0418,0.0,0.9929,0.96,0.9384,0.9127,0.8817,0.8459,0.8074,0.7716,0.7372,0.7138,0.6975,0.6811,0.6958,0.7158,0.7273,0.7774,0.0,0.0,0.0,0.0,0.9283,0.0,0.9977,1.0205,0.9979,0.9737,0.9621,0.8853,0.8154,0.7594,0.646,0.5581,0.4996,0.4463,0.3952,0.3465,0.3369,0.3322,0.332,0.3209,0.318,0.318,0.318,0.318,0.318,0.318,0.313,0.0,0.2927,0.2927,0.2927,0.2927,0.3029,0.318,0.318,0.3079,0.2927,0.0,0.0,0.0,0.0,0.0,0.0,0.0,0.0,0.0,0.0,0.0,0.0,0.0,0.0,0.0,0.0,0.0,0.0,0.0,0.0,0.0,0.0,0.0,0.0,0.0,0.0,0.0,1.4803,1.4486,1.4718,1.541,0.0,0.0,0.0,0.0,0.0,0.0,0.0,0.0,0.0,1.2823,1.2686,0.0,0.0,0.0,0.0,0.0,0.0,0.0,0.0,0.0,0.0,0.0,0.0,0.0,0.0,0.0,0.0,0.0,1.0501,0.9916,0.9933,0.9689,0.9344,0.8978,0.8604,0.0,0.7723,0.7428,0.7209,0.703,0.7271,0.7588,0.779,0.8308,0.0,0.0,0.9241,0.0,0.0,0.9766,0.9922,0.9884,0.9773,0.9503,0.8933,0.8302,0.7512,0.6413,0.5826,0.5088,0.4305,0.3981,0.3717,0.3406,0.3345,0.3315,0.3315,0.3207,0.318,0.318,0.318,0.318,0.318,0.318,0.318,0.318,0.318,0.318,0.318,0.318,0.318,0.318,0.318,0.318,0.318,0.0,0.0,0.0,0.0,0.0,0.0,0.0,0.0,0.0,0.0,0.0,0.0,0.0,0.0,0.0,0.0,0.0,0.0,0.0,0.0,0.0,0.0,0.0,0.0,0.0,0.0,0.0,1.4803,1.4724,1.5019,1.5604,1.5341,0.0,0.0,0.0,0.0,0.0,0.0,0.0,0.0,1.253,1.2286,0.0,0.0,0.0,0.0,1.2008,1.1833,0.0,0.0,0.0,0.0,0.0,0.0,0.0,0.0,1.0755,1.0699,1.0856,0.0,1.0067,1.0134,0.9971,0.9744,0.0,0.9212,0.8793,0.0,0.0,0.0,0.7769,0.7801,0.7915,0.8012,0.0,0.8818,0.9165,0.0,0.0,0.9895,0.9958,0.9938,0.9922,0.9396,0.8946,0.8768,0.7544,0.6562,0.5982,0.4937,0.4213,0.3909,0.3553,0.3347,0.3342,0.3282,0.3201,0.3201,0.3187,0.318,0.318,0.318,0.318,0.318,0.318,0.318,0.318,0.318,0.318,0.318,0.318,0.318,0.318,0.318,0.318,0.318,0.0,0.0,0.0,0.0,0.0,0.0,0.0,0.0,0.0,0.0,0.0,0.0,0.0,0.0,0.0,0.0,0.0,0.0,0.0,0.0,0.0,0.0,0.0,0.0,0.0,0.0,0.0,0.0,0.0,1.5053,0.0,0.0,0.0,0.0,0.0,0.0,0.0,0.0,0.0,0.0,1.2432,0.0,0.0,0.0,0.0,0.0,1.151,1.1456,0.0,1.1515,1.17,1.1872,0.0,0.0,0.0,0.0,1.099,1.092,1.083,1.0557,1.0367,1.0587,1.0417,1.0211,1.0113,0.0,0.0,0.0,0.0,0.0,0.0,0.0,0.0,0.0,0.9,0.0,0.0,0.0,1.0241,1.0203,1.0167,1.0156,1.0154,0.9528,0.9015,0.8607,0.7325,0.6213,0.5364,0.451,0.3849,0.3532,0.3297,0.3196,0.3279,0.3196,0.318,0.318,0.318,0.318,0.318,0.318,0.318,0.318,0.318,0.318,0.318,0.318,0.318,0.318,0.318,0.318,0.318,0.318,0.318,0.318,0.0,0.0,0.0,0.0,0.0,0.0,0.0,0.0,0.0,0.0,0.0,0.0,0.0,0.0,0.0,0.0,0.0,0.0,0.0,0.0,0.0,0.0,0.0,0.0,0.0,0.0,0.0,0.0,0.0,0.0,0.0,0.0,1.5417,0.0,0.0,0.0,0.0,0.0,0.0,0.0,1.2404,0.0,0.0,0.0,0.0,0.0,0.0,0.0,0.0,1.1059,1.1384,1.1855,1.1841,0.0,0.0,0.0,0.0,0.0,1.098,1.0836,1.0828,1.1115,1.098,1.0759,1.0599,0.0,0.0,0.0,0.0,0.0,0.0,0.0,0.0,0.0,0.0,0.0,1.0536,1.0537,1.0507,1.0462,1.0458,1.0462,1.0413,0.992,0.9278,0.8531,0.7431,0.6232,0.4983,0.4334,0.3783,0.3281,0.323,0.318,0.318,0.318,0.318,0.318,0.318,0.318,0.318,0.318,0.318,0.318,0.318,0.318,0.318,0.318,0.318,0.318,0.318,0.318,0.318,0.318,0.318,0.318,0.0,0.0,0.0,0.0,0.0,0.0,0.0,0.0,0.0,0.0,0.0,0.0,0.0,0.0,0.0,0.0,0.0,0.0,0.0,0.0,0.0,0.0,0.0,0.0,0.0,0.0,0.0,0.0,0.0,0.0,1.5813,1.5729,1.5575,1.5274,0.0,0.0,0.0,0.0,0.0,1.2744,1.2285,0.0,0.0,0.0,0.0,0.0,0.0,0.0,0.0,1.1078,1.1174,1.1257,1.1808,0.0,0.0,0.0,0.0,0.0,1.1495,1.1548,1.1591,1.1464,1.1607,1.1776,1.1742,0.0,0.0,0.0,0.0,0.0,0.0,0.9697,0.9462,0.0,0.0,1.0787,1.0834,1.0974,1.0998,1.0757,1.0757,1.0659,1.0408,0.992,0.9377,0.8775,0.7528,0.6431,0.5536,0.4533,0.3833,0.3534,0.3332,0.318,0.318,0.318,0.318,0.318,0.318,0.318,0.318,0.318,0.318,0.318,0.318,0.318,0.318,0.318,0.318,0.318,0.318,0.318,0.318,0.318,0.318,0.318,0.0,0.0,0.0,0.0,0.0,0.0,0.0,0.0,0.0,0.0,0.0,0.0,0.0,0.0,0.0,0.0,0.0,0.0,0.0,0.0,0.0,0.0,0.0,0.0,0.0,0.0,0.0,0.0,0.0,1.5266,1.557,1.5344,1.5145,1.4945,0.0,0.0,0.0,0.0,1.2689,1.2661,0.0,0.0,0.0,0.0,0.0,0.0,0.0,0.0,0.0,0.0,1.0968,1.1082,1.1574,0.0,0.0,0.0,0.0,0.0,1.189,1.2179,1.2483,1.2402,1.2248,1.2153,1.2153,0.0,0.0,0.0,0.0,0.0,0.0,0.0,1.0129,1.0569,0.0,1.0934,1.1042,1.1137,1.1145,1.1047,1.1002,1.0949,1.085,1.0462,0.9965,0.9266,0.812,0.6977,0.5882,0.4933,0.4183,0.3636,0.3484,0.3332,0.318,0.318,0.318,0.318,0.318,0.318,0.318,0.318,0.318,0.318,0.318,0.318,0.318,0.318,0.318,0.318,0.318,0.318,0.318,0.318,0.318,0.318,0.0,0.0,0.0,0.0,0.0,0.0,0.0,0.0,0.0,0.0,0.0,0.0,0.0,0.0,0.0,0.0,0.0,0.0,0.0,0.0,0.0,0.0,0.0,0.0,0.0,0.0,1.4558,1.5099,1.5277,1.5325,1.5325,1.4936,1.4701,0.0,0.0,0.0,0.0,0.0,1.25,1.2472,0.0,0.0,0.0,0.0,0.0,0.0,0.0,0.0,0.0,0.0,0.0,0.0,0.0,0.0,0.0,1.2147,1.2187,1.2125,1.2205,1.2567,1.294,1.3101,1.2916,1.274,1.2751,0.0,0.0,0.0,0.0,0.0,0.0,1.0611,0.0,1.0858,1.0934,1.1019,1.1175,1.1194,1.1194,1.1194,1.1194,1.1194,1.1194,1.0949,1.0507,0.9858,0.8817,0.7673,0.6528,0.5534,0.4686,0.3987,0.3786,0.3583,0.3281,0.3281,0.3281,0.318,0.318,0.318,0.318,0.318,0.318,0.318,0.318,0.318,0.318,0.318,0.318,0.318,0.318,0.318,0.318,0.318,0.318,0.318,0.0,0.0,0.0,0.0,0.0,0.0,0.0,0.0,0.0,0.0,0.0,0.0,0.0,0.0,0.0,0.0,0.0,0.0,0.0,0.0,0.0,0.0,0.0,0.0,0.0,1.4418,1.4661,1.5379,1.5275,1.5273,1.539,1.4848,1.4617,1.4551,0.0,0.0,0.0,0.0,1.1963,1.1938,1.1787,0.0,0.0,0.0,0.0,0.0,0.0,0.0,0.0,0.0,0.0,0.0,0.0,0.0,1.1201,1.1831,1.1792,1.171,1.2385,1.2468,1.2507,1.3144,1.3635,0.0,1.4149,1.3992,0.0,1.3628,0.0,0.0,0.0,1.1275,1.0886,1.0906,1.1052,1.1179,1.1194,1.1194,1.1194,1.1194,1.1194,1.1194,1.1194,1.0949,1.0654,1.0359,0.9369,0.8474,0.7872,0.6381,0.5386,0.509,0.4384,0.3835,0.3586,0.3584,0.3433,0.318,0.318,0.318,0.318,0.318,0.318,0.318,0.318,0.318,0.318,0.318,0.318,0.318,0.318,0.318,0.318,0.318,0.318,0.318,0.0,0.0,0.0,0.0,0.0,0.0,0.0,0.0,0.0,0.0,0.0,0.0,0.0,0.0,0.0,0.0,0.0,0.0,0.0,0.0,0.0,0.0,0.0,1.4538,1.5133,1.5159,1.5248,1.5403,1.5483,1.5336,1.5019,1.4741,0.0,0.0,0.0,0.0,0.0,0.0,0.0,1.1902,1.1744,1.1703,0.0,0.0,0.0,0.0,0.0,0.0,0.0,0.0,1.0108,1.0025,0.0,1.0995,1.113,1.1792,1.1924,1.1932,1.2455,1.2838,1.3161,1.3421,0.0,0.0,0.0,1.425,1.4207,1.3961,1.3541,0.0,0.0,0.0,1.0934,1.1047,1.1146,1.1194,1.1194,1.1194,1.1194,1.1194,1.1194,1.1194,1.1194,1.1096,1.0953,1.0654,0.9965,0.9221,0.8524,0.7428,0.6481,0.5734,0.5085,0.4537,0.4088,0.3935,0.3734,0.3433,0.3281,0.318,0.318,0.318,0.318,0.318,0.318,0.318,0.318,0.318,0.318,0.318,0.318,0.318,0.318,0.318,0.318,0.318,0.0,0.0,0.0,0.0,0.0,0.0,0.0,0.0,0.0,0.0,0.0,0.0,0.0,0.0,0.0,0.0,0.0,0.0,0.0,0.0,0.0,0.0,0.0,1.4567,1.531,1.5506,1.5577,1.5571,1.56,1.5399,1.498,0.0,0.0,0.0,0.0,0.0,0.0,0.0,0.0,0.0,1.1596,1.1452,0.0,0.0,0.0,0.0,0.0,0.0,0.0,0.0,1.0108,1.0025,0.0,0.0,1.0963,1.1654,1.1781,1.1821,1.2431,1.2933,1.3338,0.0,0.0,0.0,1.4765,1.484,1.4805,1.4461,1.3952,1.3279,1.2193,0.0,0.0,1.1165,1.1194,1.1194,1.1194,1.1194,1.1194,1.1194,1.1194,1.1194,1.1194,1.1194,1.1096,1.0949,1.0507,0.9965,0.932,0.8474,0.7577,0.6678,0.5937,0.529,0.464,0.4384,0.4085,0.3736,0.3533,0.3381,0.318,0.318,0.318,0.318,0.318,0.318,0.318,0.318,0.318,0.318,0.318,0.318,0.318,0.318,0.318,0.323,0.0,0.0,0.0,0.0,0.0,0.0,0.0,0.0,0.0,0.0,0.0,0.0,0.0,0.0,0.0,0.0,0.0,0.0,0.0,0.0,0.0,0.0,0.0,1.4845,1.518,1.5324,1.5563,1.5885,1.5565,1.541,1.5362,1.4293,0.0,0.0,0.0,0.0,0.0,0.0,0.0,0.0,1.1217,1.0905,1.0896,0.0,0.0,0.0,0.0,0.0,0.0,0.0,1.0108,0.9986,1.0528,0.0,0.0,1.1289,1.1257,1.1233,1.2312,1.2606,1.2798,0.0,0.0,0.0,1.5475,1.5865,1.5838,1.5319,1.4135,1.2963,1.2183,1.1609,1.1297,1.1214,1.1194,1.1194,1.1194,1.1194,1.1194,1.1194,1.1194,1.1194,1.1194,1.1194,1.1194,1.1194,1.0949,1.0708,1.0413,0.9369,0.8574,0.8024,0.698,0.6037,0.524,0.4937,0.4533,0.4033,0.3982,0.3732,0.318,0.318,0.318,0.318,0.318,0.318,0.318,0.318,0.318,0.318,0.318,0.318,0.318,0.318,0.318,0.323,0.0,0.0,0.0,0.0,0.0,0.0,0.0,0.0,0.0,0.0,0.0,0.0,0.0,0.0,0.0,0.0,0.0,0.0,0.0,0.0,0.0,0.0,0.0,0.0,0.0,0.0,1.5658,1.5769,1.5507,1.5206,0.0,0.0,0.0,1.3576,0.0,0.0,0.0,0.0,0.0,0.0,1.1324,1.1102,1.0921,0.0,0.0,0.0,0.0,0.0,0.0,0.0,0.0,0.0,1.0452,0.0,0.0,1.1289,1.1424,1.1574,1.2678,1.3132,0.0,1.4186,0.0,0.0,0.0,1.6171,0.0,0.0,1.5026,1.4027,1.3205,1.2357,1.1711,1.1526,1.134,1.1194,1.1194,1.1194,1.1194,1.1194,1.1194,1.1194,1.1194,1.1194,1.1194,1.1194,1.1145,1.0949,1.0708,1.0212,0.9517,0.8574,0.773,0.6833,0.6037,0.5388,0.4887,0.4583,0.4386,0.3986,0.3484,0.3484,0.3383,0.318,0.318,0.318,0.318,0.318,0.318,0.318,0.318,0.318,0.318,0.318,0.3332,0.3534,0.0,0.0,0.0,0.0,0.0,0.0,0.0,0.0,0.0,0.0,0.0,0.0,0.0,0.0,0.0,0.0,0.0,0.0,0.0,0.0,0.0,0.0,0.0,0.0,0.0,1.5485,1.5672,0.0,0.0,0.0,0.0,0.0,0.0,1.3477,0.0,1.2661,0.0,0.0,0.0,0.0,1.0985,1.0679,1.0486,0.0,0.0,0.0,0.0,0.0,0.0,0.0,0.0,0.0,0.0,0.0,0.0,1.1289,1.1487,1.1725,1.2798,1.333,0.0,1.4489,1.5386,1.6211,1.6753,0.0,0.0,0.0,1.571,1.4758,1.395,1.3039,1.2273,1.1829,1.1541,1.134,1.1194,1.1194,1.1194,1.1194,1.1194,1.1194,1.1194,1.1194,1.1194,1.1194,1.1194,1.1145,1.0949,1.0703,1.0162,0.9324,0.8474,0.763,0.6736,0.6039,0.5486,0.5135,0.4839,0.4487,0.4086,0.3835,0.3633,0.3332,0.323,0.318,0.318,0.318,0.318,0.318,0.318,0.318,0.323,0.3332,0.3533,0.3835,0.0,0.0,1.6611,1.6405,0.0,0.0,0.0,0.0,0.0,0.0,0.0,1.4242,0.0,0.0,0.0,1.4799,0.0,0.0,0.0,0.0,0.0,0.0,0.0,0.0,0.0,0.0,0.0,0.0,0.0,0.0,0.0,0.0,1.3923,1.3515,0.0,1.2842,0.0,0.0,0.0,0.0,1.0413,0.9925,0.9773,0.9703,0.0,0.0,0.0,0.0,0.0,0.0,0.0,0.0,1.0624,1.0598,1.0631,1.1289,1.1511,1.1773,1.2846,0.0,0.0,1.4694,1.5483,0.0,1.7465,1.7356,1.7073,1.708,0.0,1.5343,1.458,1.3769,1.2953,1.2224,1.1878,1.159,1.1292,1.1243,1.1243,1.1194,1.1194,1.1194,1.1194,1.1194,1.1194,1.1194,1.1194,1.1194,1.1194,1.0949,1.0605,1.0068,0.9274,0.8379,0.7338,0.6736,0.6184,0.5684,0.5388,0.5138,0.4834,0.4284,0.3883,0.3635,0.3381,0.3281,0.3281,0.3281,0.3281,0.323,0.3281,0.3281,0.3281,0.3534,0.3835,0.4183,0.0,0.0,1.6287,1.6253,0.0,0.0,0.0,0.0,1.471,1.4221,1.4133,1.4202,1.4509,1.4497,0.0,1.4766,1.4684,0.0,0.0,0.0,0.0,0.0,0.0,0.0,0.0,0.0,0.0,0.0,0.0,0.0,0.0,0.0,0.0,1.3632,0.0,1.26,0.0,0.0,0.0,1.0478,1.0364,1.0034,0.9695,1.0094,1.006,0.0,0.0,0.0,0.0,0.0,0.0,0.0,1.0419,1.0445,1.0631,1.1289,1.1686,1.2139,0.0,1.3934,0.0,0.0,1.6467,1.7573,1.8381,1.8356,1.8064,1.7613,1.7052,1.6426,1.5635,1.4682,1.3769,1.3001,1.2516,1.2073,1.1585,1.1487,1.1438,1.1243,1.1194,1.1194,1.1194,1.1194,1.1194,1.1194,1.1194,1.1194,1.1194,1.1145,1.085,1.0314,0.976,0.9019,0.8134,0.7385,0.6736,0.6237,0.5939,0.5689,0.5386,0.4638,0.4185,0.3934,0.3833,0.3831,0.3831,0.3831,0.3682,0.3534,0.3732,0.3682,0.3534,0.3833,0.4234,0.4734,0.0,0.0,0.0,0.0,0.0,0.0,0.0,0.0,1.4738,1.4173,1.4164,1.4243,1.4382,1.4426,0.0,0.0,1.4523,1.4326,0.0,0.0,0.0,0.0,0.0,0.0,0.0,0.0,0.0,0.0,0.0,0.0,0.0,0.0,0.0,1.3393,0.0,1.2467,0.0,0.0,1.035,1.0099,0.9869,0.9453,0.9037,0.9544,0.953,0.9278,0.9706,0.0,0.0,0.0,0.0,0.0,0.0,0.0,1.0553,1.1289,1.1622,1.2027,0.0,0.0,0.0,1.584,0.0,1.7998,1.8669,1.8743,1.8558,1.828,1.7753,1.7145,1.6622,1.5818,1.4908,1.3998,1.3329,1.2705,1.2078,1.1878,1.1688,1.1438,1.1389,1.134,1.1194,1.1194,1.1194,1.1194,1.1194,1.1194,1.1194,1.1194,1.0998,1.0609,1.0207,0.9661,0.8973,0.8329,0.7683,0.7138,0.6789,0.6389,0.5937,0.5037,0.4437,0.4185,0.4033,0.3982,0.3982,0.3982,0.3934,0.3784,0.3932,0.3934,0.3835,0.4234,0.4734,0.5334,0.0,0.0,0.0,0.0,0.0,0.0,0.0,0.0,0.0,1.4331,1.4363,1.4423,1.4379,1.4519,1.4604,0.0,0.0,0.0,1.3973,0.0,0.0,0.0,0.0,0.0,0.0,0.0,0.0,0.0,0.0,0.0,0.0,0.0,0.0,1.3139,0.0,0.0,0.0,0.0,1.0157,0.9824,0.9318,0.8799,0.8369,0.8822,0.8858,0.8724,0.9198,0.9361,0.9387,0.9636,0.0,0.0,0.0,0.0,1.0363,1.1142,1.1459,1.1816,0.0,0.0,0.0,0.0,1.7254,0.0,1.8589,1.8742,1.8781,1.8781,1.828,1.7768,1.7473,1.6857,1.6096,1.5086,1.4328,1.3565,1.2754,1.237,1.2078,1.1785,1.1688,1.1536,1.1296,1.1292,1.1243,1.1194,1.1194,1.1194,1.1194,1.1194,1.11,1.09,1.0609,1.0207,0.9756,0.9266,0.873,0.8187,0.7686,0.7135,0.6584,0.5634,0.5037,0.464,0.4384,0.4284,0.4284,0.4234,0.4183,0.4133,0.4133,0.4133,0.4183,0.4684,0.5236,0.5884,0.0,0.0,0.0,0.0,0.0,0.0,0.0,0.0,0.0,0.0,1.4993,1.4926,1.4744,1.4663,1.4546,1.4454,1.4303,1.4082,0.0,0.0,0.0,0.0,0.0,0.0,0.0,0.0,0.0,0.0,0.0,0.0,0.0,0.0,0.0,1.3338,0.0,0.0,0.0,0.0,1.0008,0.9291,0.9223,0.8871,0.8425,0.8859,0.8981,0.898,0.9145,0.9237,0.9237,0.9263,0.9368,0.0,0.0,0.0,1.0004,1.0678,1.129,1.1911,0.0,0.0,0.0,0.0,1.7254,1.7918,0.0,0.0,1.8781,0.0,1.8566,1.8288,1.804,1.752,1.6897,1.6143,1.5527,1.4813,1.3854,1.3286,1.2807,1.237,1.2078,1.1834,1.159,1.1536,1.1438,1.1198,1.1194,1.1194,1.1194,1.1194,1.1194,1.1145,1.0904,1.0609,1.031,0.9969,0.9571,0.9019,0.8478,0.7982,0.7431,0.7036,0.6489,0.5792,0.5486,0.5386,0.5386,0.5138,0.4887,0.4684,0.4684,0.4684,0.4734,0.5037,0.5639,0.6434,0.0,0.0,0.0,0.0,0.0,0.0,0.0,0.0,0.0,0.0,0.0,1.4754,1.4604,1.4454,1.4326,1.4197,1.4046,0.0,0.0,0.0,0.0,0.0,0.0,0.0,0.0,0.0,0.0,0.0,0.0,0.0,0.0,1.4447,1.4378,0.0,0.0,0.0,0.0,0.0,1.0306,0.9628,0.9349,0.9051,0.8787,0.9216,0.9239,0.9036,0.928,0.9205,0.8982,0.9061,0.9087,0.9106,0.9387,0.0,0.0,0.0,1.0898,0.0,1.2568,0.0,0.0,0.0,1.6818,1.7334,1.7882,1.812,1.824,1.824,1.8308,1.8415,1.8465,1.8234,1.7761,1.7131,1.648,1.5771,1.486,1.4196,1.3576,1.3087,1.2657,1.2322,1.2078,1.1927,1.1731,1.1438,1.1438,1.134,1.1194,1.1194,1.1194,1.1194,1.1096,1.0949,1.0855,1.0556,1.0162,0.9669,0.9274,0.8928,0.8726,0.8425,0.763,0.6434,0.5989,0.5839,0.5789,0.5539,0.5336,0.5286,0.5436,0.5489,0.5539,0.5942,0.6489,0.7182,0.0,0.0,0.0,0.0,0.0,0.0,0.0,0.0,0.0,0.0,0.0,1.4477,1.4314,0.0,0.0,0.0,1.3868,0.0,0.0,0.0,0.0,0.0,0.0,0.0,0.0,0.0,0.0,0.0,0.0,0.0,1.3514,1.4492,1.4565,0.0,1.4043,0.0,0.0,0.0,0.0,1.0081,0.9668,0.9343,0.9199,0.9755,0.9667,0.9275,0.9667,0.9425,0.8918,0.9071,0.8971,0.8857,0.9185,0.9237,0.0,0.0,0.0,0.0,0.0,0.0,0.0,1.5671,1.6317,1.6915,0.0,0.0,1.7814,1.7814,1.7985,1.8247,1.851,1.8579,1.8419,1.7986,1.7372,1.6723,1.6008,1.5242,1.4573,1.404,1.3576,1.3098,1.2705,1.2462,1.2175,1.1829,1.1683,1.1487,1.1292,1.1243,1.1194,1.1194,1.1194,1.1194,1.1194,1.0998,1.0654,1.0216,1.0019,0.9871,0.9772,0.9521,0.8768,0.7577,0.6836,0.6489,0.6389,0.6037,0.5887,0.5937,0.6139,0.6239,0.6342,0.6839,0.7385,0.7978,0.0,0.0,0.0,0.0,0.0,0.0,0.0,0.0,0.0,0.0,0.0,1.4314,1.4044,1.402,1.3973,1.3821,1.3797,0.0,0.0,0.0,0.0,0.0,0.0,0.0,0.0,0.0,0.0,0.0,0.0,0.0,1.3505,1.4216,1.4524,1.4449,1.4198,1.3872,1.3434,0.0,0.0,1.0352,1.0143,0.9824,0.9552,1.0357,1.0307,0.9926,1.0443,0.9996,0.9218,0.9412,0.9173,0.8831,0.8982,0.9008,0.9113,0.0,0.0,0.0,0.0,1.3819,0.0,1.4927,0.0,0.0,0.0,0.0,1.7814,1.7814,1.783,1.7846,1.787,1.8375,1.8697,1.8481,1.8187,1.7846,1.7279,1.6574,1.5906,1.5337,1.4873,1.4298,1.3516,1.319,1.2856,1.237,1.1883,1.1585,1.159,1.1345,1.1194,1.1194,1.1194,1.1194,1.1194,1.1194,1.1047,1.0752,1.0752,1.0609,1.0364,1.0068,0.992,0.9772,0.8485,0.7736,0.7481,0.6939,0.6745,0.6742,0.6734,0.6933,0.7185,0.7434,0.8077,0.8775,0.0,0.0,0.0,0.0,0.0,0.0,0.0,0.0,0.0,0.0,0.0,0.0,0.0,1.3868,1.3773,1.3563,1.3467,0.0,0.0,0.0,0.0,0.0,0.0,0.0,0.0,0.0,0.0,0.0,0.0,1.2928,1.3026,1.4039,1.4515,1.4494,1.459,1.4258,1.3602,1.274,0.0,1.1562,1.1426,1.1314,1.1196,1.158,1.1406,1.0975,1.1277,1.0701,0.98,1.0012,0.9571,0.8955,0.9187,0.9002,0.8816,0.9522,1.0595,0.0,0.0,0.0,0.0,1.4825,1.5369,1.5807,1.6452,1.6676,1.6833,1.7056,1.7286,1.7496,1.7496,1.8017,1.8448,1.8358,1.8371,1.8234,1.7846,1.7279,1.681,1.6473,1.5812,1.5283,1.4991,1.4478,1.3817,1.3184,1.2754,1.2268,1.1634,1.1487,1.1394,1.1194,1.1194,1.1194,1.1194,1.1194,1.1145,1.1051,1.1051,1.0998,1.09,1.0806,1.0654,1.0462,0.9817,0.9072,0.8326,0.7985,0.7836,0.7836,0.8028,0.8226,0.8524,0.8779,0.9175,0.962,0.0,0.0,0.0,1.6099,0.0,1.4825,1.443,1.4163,1.3973,1.3868,0.0,0.0,0.0,0.0,1.3515,1.3348,1.3228,1.3152,1.3099,0.0,0.0,0.0,0.0,0.0,0.0,0.0,0.0,0.0,0.0,0.0,0.0,1.3506,1.3965,1.4112,1.4289,1.4266,0.0,0.0,0.0,1.2479,1.2442,1.2375,1.2321,1.274,1.252,1.2045,1.2354,1.1788,1.0863,1.0947,1.0387,0.9668,0.9672,0.9354,0.9163,0.9882,1.0783,0.0,1.2349,0.0,0.0,0.0,0.0,1.5166,1.5834,1.5981,1.6134,1.6444,1.6746,1.6961,1.7072,1.7572,1.8033,1.8263,1.8366,1.8425,1.835,1.7994,1.7613,1.7419,1.6803,1.6372,1.6224,1.5534,1.4777,1.4088,1.348,1.2759,1.2029,1.1731,1.1487,1.1194,1.1194,1.1194,1.1194,1.1194,1.1194,1.1194,1.1194,1.1194,1.1194,1.1194,1.1096,1.09,1.0752,1.0113,0.9175,0.8928,0.8779,0.8832,0.9076,0.932,0.9517,0.9772,1.0019,1.0314,1.6874,1.6435,1.6126,1.6105,1.5335,1.474,1.4705,1.4336,1.3934,1.3662,0.0,0.0,0.0,0.0,0.0,1.3194,1.3128,1.3085,1.3085,1.2978,0.0,0.0,0.0,0.0,0.0,0.0,0.0,0.0,0.0,0.0,0.0,0.0,1.2909,1.3277,1.3286,1.3889,1.4776,0.0,1.3136,1.3023,0.0,1.296,1.2805,1.3785,1.3703,1.3125,1.3672,1.326,1.2432,1.2237,1.1663,1.095,1.0385,1.0128,1.0143,1.071,1.1318,1.191,0.0,0.0,0.0,0.0,0.0,0.0,1.4919,1.5306,1.5745,1.6103,1.619,1.6309,1.6618,1.7016,1.7485,1.816,1.8287,1.8422,1.8734,1.8612,1.8427,1.8133,1.7908,1.7527,1.7091,1.6298,1.5635,1.5146,1.3908,1.305,1.2813,1.2029,1.1487,1.1243,1.1194,1.1194,1.1194,1.1194,1.1194,1.1194,1.1194,1.1194,1.1194,1.1194,1.1194,1.1194,1.1194,1.0752,1.0019,0.9723,0.9628,0.9677,0.992,1.0019,1.0068,1.0314,1.0605,1.0806,1.6818,1.6711,1.6482,1.6022,1.5748,1.5395,1.4852,1.4671,1.4512,0.0,0.0,0.0,1.4152,1.3786,1.3452,1.3143,1.3027,1.2954,1.2954,1.2929,1.2905,1.2905,1.2905,1.2832,0.0,0.0,0.0,0.0,0.0,0.0,0.0,0.0,0.0,0.0,1.3158,1.3451,1.3743,1.3552,0.0,1.3951,1.4116,1.4379,1.4719,1.5021,1.4998,1.4848,1.5145,1.4739,1.4015,1.3732,1.3108,1.2225,1.0896,1.067,1.0827,1.0549,1.0997,1.1696,1.23,0.0,0.0,0.0,0.0,0.0,1.4648,1.4832,1.503,1.5396,1.5856,1.6238,1.6333,1.6643,1.7032,1.7485,1.7977,1.8422,1.8734,1.8735,1.8697,1.8596,1.8419,1.8241,1.8094,1.7207,1.6353,1.5663,1.4573,1.3624,1.2861,1.2029,1.159,1.1487,1.1292,1.1194,1.1194,1.1194,1.1194,1.1194,1.1194,1.1194,1.1194,1.1194,1.1194,1.1194,1.1194,1.1047,1.0855,1.056,1.0462,1.0462,1.0556,1.0708,1.09,1.0949,1.1047,1.1096,1.6648,1.663,1.6507,1.6046,1.5811,1.5539,1.505,1.4793,1.4619,0.0,0.0,0.0,1.4327,1.4047,1.3775,1.3529,1.3292,1.3145,1.3145,1.3003,1.2881,1.2832,1.2832,1.2735,1.2529,0.0,0.0,0.0,0.0,0.0,0.0,0.0,0.0,0.0,1.2625,1.2726,1.259,1.3205,1.3684,0.0,1.4672,1.5152,1.5529,1.5916,1.6127,1.6207,1.6323,1.6108,1.5675,1.5263,1.4379,1.3194,1.1824,1.1442,1.1451,1.1063,1.1412,1.1973,1.2494,1.2713,0.0,1.3678,0.0,0.0,1.4156,1.431,1.4486,1.4879,1.532,1.57,1.585,1.6158,1.6505,1.6909,1.7474,1.8049,1.8533,1.8686,1.8781,1.8781,1.8697,1.8566,1.8527,1.7675,1.6864,1.619,1.5105,1.3968,1.2861,1.237,1.1932,1.159,1.1438,1.1292,1.1194,1.1194,1.1194,1.1194,1.1194,1.1194,1.1194,1.1194,1.1194,1.1194,1.1194,1.1194,1.1194,1.1047,1.0949,1.0949,1.0949,1.1047,1.1194,1.1194,1.1194,1.1194,0.0,1.6345,1.6288,1.6124,1.5721,1.5411,1.5282,1.4897,1.4603,0.0,1.454,1.4466,1.426,1.425,1.4211,1.4114,1.3763,1.3555,1.3516,1.3154,1.2881,1.271,1.2686,1.2554,1.2308,1.2298,0.0,0.0,0.0,0.0,0.0,0.0,0.0,1.1595,1.1945,1.1908,1.1627,1.28,1.3432,1.3744,1.4975,1.5568,1.5843,1.6696,1.7162,1.7361,1.7361,1.7361,1.7262,1.6706,1.545,1.3945,1.2996,1.2418,1.2097,1.1992,1.2164,0.0,1.2826,1.3086,0.0,1.3536,1.3647,0.0,1.3586,1.3841,1.4153,1.4395,1.4652,1.4931,1.5242,1.5521,1.5894,1.6293,1.6818,1.7426,1.8192,1.8573,1.8742,1.8781,1.8781,1.8743,1.8574,1.7807,1.7192,1.677,1.5493,1.4256,1.305,1.2953,1.2516,1.178,1.1688,1.1536,1.1243,1.1194,1.1194,1.1194,1.1194,1.1194,1.1194,1.1194,1.1194,1.1194,1.1194,1.1194,1.1194,1.1194,1.1194,1.1194,1.1194,1.1194,1.1194,1.1194,1.1194,1.1194,1.6029,1.6,1.5972,1.5943,1.5862,1.5754,1.563,1.5531,1.5543,1.5733,1.6036,1.5947,1.5234,1.5166,1.4855,1.4163,1.4036,1.3841,1.3525,1.3326,1.3082,1.272,1.2603,1.2455,1.2298,1.2298,1.2224,0.0,0.0,0.0,0.0,0.0,0.0,0.0,1.2064,1.2055,1.2046,1.2937,1.3516,1.3953,1.5336,1.6462,1.7376,1.7731,1.8113,1.8417,1.8417,1.8417,1.8276,1.7531,1.6192,1.4698,1.4205,1.3476,1.2735,1.2479,1.2354,1.2442,1.3005,1.3289,1.3566,1.4081,1.4097,0.0,1.3516,1.3667,1.3769,1.3446,1.3958,1.4434,1.4494,1.4666,1.4949,1.5453,1.5834,1.6592,1.8071,1.8359,1.851,1.8796,1.8781,1.8781,1.8743,1.804,1.7567,1.7505,1.6096,1.501,1.4352,1.3715,1.3184,1.2807,1.2224,1.178,1.1536,1.1292,1.1194,1.1194,1.1194,1.1194,1.1194,1.1194,1.1194,1.1194,1.1194,1.1194,1.1194,1.1194,1.1194,1.1194,1.1194,1.1194,1.1194,1.1194,1.1194,1.1194,1.5914,1.5885,1.5885,1.5827,1.5798,1.573,1.5575,1.5762,1.595,1.6065,1.6455,1.6619,1.6416,1.6201,1.5868,1.5439,1.4954,1.4558,1.4355,1.3621,1.3078,1.2818,1.2535,1.2348,1.22,1.22,1.2175,0.0,0.0,0.0,0.0,0.0,0.0,0.0,1.222,1.2285,1.2183,1.3387,1.413,1.4579,1.5492,1.6578,1.7697,1.7993,1.8479,1.9002,1.9002,1.8851,1.8625,1.8246,1.7205,1.5976,1.535,1.4624,1.3884,1.3368,1.3092,1.2996,1.3178,1.3437,1.3733,1.4032,1.3966,0.0,0.0,1.3575,1.3577,1.3355,1.3602,1.3822,1.3587,1.3842,1.4125,1.4163,1.4722,1.558,1.6748,1.7469,1.7979,1.8108,1.8258,1.833,1.8367,1.7735,1.7175,1.6843,1.6253,1.5645,1.5049,1.4642,1.4142,1.3528,1.2899,1.2316,1.1785,1.1683,1.1541,1.1389,1.1541,1.1585,1.1585,1.1585,1.1541,1.1389,1.1389,1.134,1.1194,1.1194,1.1194,1.1194,1.1194,1.1194,1.1194,1.1194,1.1194,1.1194,1.5788,1.5788,1.5769,1.5672,1.5712,1.5733,1.5566,1.5908,1.6281,1.6447,1.6863,1.7259,1.7531,1.7206,1.6931,1.6854,1.6013,1.5482,1.5366,1.4127,1.3329,1.3148,1.273,1.2441,1.233,1.2257,1.2211,1.2211,0.0,0.0,0.0,1.2101,1.1972,1.177,0.0,0.0,0.0,0.0,1.4744,1.5148,1.5707,1.6606,1.7669,1.8164,1.8797,1.943,1.9503,1.9268,1.8904,1.8847,1.8134,1.7201,1.6434,1.5745,1.5073,1.4462,1.4076,1.3789,1.3611,1.3724,1.39,1.393,1.3813,1.364,0.0,0.0,0.0,1.3292,1.3335,1.3245,1.2785,1.3033,1.3191,1.2877,1.3495,1.4284,1.4967,1.6102,1.6969,1.7363,1.7604,1.7758,1.7864,1.7424,1.6859,1.6146,1.6449,1.6348,1.5706,1.5705,1.5289,1.4382,1.3715,1.3044,1.2316,1.217,1.1927,1.1683,1.1883,1.198,1.198,1.198,1.1883,1.1683,1.1683,1.1536,1.134,1.134,1.134,1.134,1.1243,1.1194,1.1194,1.1194,1.1194,1.1194,1.5449,1.5449,1.5449,1.5449,1.5762,1.6056,1.6016,1.6367,1.6892,1.7686,1.8331,1.8591,1.8229,1.7992,1.7697,1.7338,1.6893,1.6434,1.6034,1.5085,1.4343,1.3989,1.3451,1.3185,1.3158,1.2817,1.2625,1.2625,0.0,0.0,0.0,1.2101,1.2266,1.256,1.2652,0.0,0.0,0.0,1.4744,1.5194,1.6312,1.7284,1.81,1.888,1.9457,1.9866,2.0255,2.0048,1.9634,1.9321,1.8574,1.7662,1.7397,1.6706,1.5951,1.5788,1.5268,1.4729,1.46,1.4393,1.4263,1.4375,1.4237,1.3825,1.3078,0.0,1.3315,1.2599,0.0,1.2802,1.2352,0.0,0.0,1.2161,1.2291,1.2656,1.3444,1.3992,1.5012,1.6934,1.7394,1.7628,1.7783,1.7751,1.7473,1.6911,1.7258,1.7304,1.6994,1.6872,1.6567,1.5954,1.4997,1.4136,1.3318,1.2705,1.2224,1.1932,1.198,1.198,1.198,1.198,1.1975,1.1932,1.1932,1.1932,1.1927,1.1927,1.1927,1.1878,1.1389,1.1194,1.1194,1.1194,1.1194,1.1194,1.541,1.541,1.541,1.541,1.5801,1.6095,1.6095,1.6865,1.7803,1.8795,1.9176,1.9314,1.9231,1.9156,1.9042,1.8872,1.815,1.7535,1.7123,1.5956,1.5093,1.4697,1.4012,1.3635,1.3635,1.3241,1.2937,1.2689,1.2523,0.0,0.0,0.0,1.2312,1.2707,1.3185,0.0,1.4084,0.0,1.6001,1.6276,1.7715,1.8504,1.8843,1.9173,1.9705,2.0278,2.0714,2.051,2.0041,2.0137,1.9676,1.8955,1.8652,1.8028,1.733,1.6829,1.616,1.5461,1.5026,1.4713,1.4422,1.4231,1.3985,1.3628,1.3133,1.3179,1.323,1.2892,0.0,0.0,0.0,0.0,0.0,0.0,1.1725,1.2007,1.2589,1.2754,1.3491,1.5212,1.6004,1.6578,1.7109,1.7358,1.7312,1.6853,1.738,1.7596,1.7337,1.7514,1.7372,1.6857,1.6001,1.5188,1.4376,1.3811,1.3286,1.2888,1.2851,1.2856,1.2856,1.271,1.2565,1.2467,1.2322,1.2127,1.198,1.198,1.198,1.198,1.1731,1.159,1.1389,1.1247,1.1194,1.1194,1.5771,0.0,1.541,1.541,1.5869,1.6388,1.675,1.7837,1.8899,1.9678,1.9841,1.9981,2.0125,2.0083,2.0042,2.0042,1.9319,1.8628,1.8258,1.7042,1.6175,1.578,1.4983,1.4552,1.4552,1.3947,1.3479,1.3194,1.2974,1.2716,0.0,0.0,1.2643,1.3056,1.3736,1.435,1.4928,0.0,1.6972,1.7202,1.8696,1.9494,1.9797,1.9797,2.0163,2.0732,2.1135,2.0925,2.0553,2.0716,2.0451,2.0018,1.9677,1.9232,1.8696,1.8037,1.7267,1.6473,1.5873,1.5327,1.4858,1.4357,1.3865,1.3469,1.3107,1.3019,1.3025,1.294,1.288,0.0,0.0,0.0,1.1929,1.1403,0.0,1.1536,1.1815,1.1822,1.2345,1.3867,1.4885,1.5737,1.634,1.677,1.6873,1.657,1.7239,1.7632,1.7509,1.79,1.7987,1.766,1.699,1.6278,1.5514,1.5003,1.443,1.3896,1.3769,1.3678,1.3582,1.334,1.3152,1.2958,1.2813,1.2565,1.2419,1.2419,1.237,1.2322,1.2224,1.2078,1.178,1.1536,1.1443,1.1443,1.6658,1.5966,0.0,0.0,1.6102,1.7096,1.8334,1.9425,2.0139,2.0177,2.0533,2.0741,2.0759,2.0601,2.0484,2.0484,2.0108,1.9696,1.9274,1.8485,1.7853,1.744,1.6661,1.6206,1.6206,1.5084,1.4469,1.4451,1.3662,1.3268,0.0,0.0,0.0,0.0,1.4295,1.4928,1.5707,1.6551,1.7128,1.7587,1.8806,1.9998,2.1044,2.1044,2.1062,2.1145,2.1522,2.1535,2.1293,2.0949,2.0648,2.0446,2.0225,2.003,1.98,1.9528,1.8845,1.8096,1.7401,1.6568,1.5684,1.497,1.4232,1.35,1.2706,1.2575,1.2554,1.2301,1.2437,1.2474,1.1995,1.177,1.1556,1.1329,1.1106,0.0,0.0,1.0978,1.1605,1.3404,1.4496,1.5281,1.5705,1.6031,1.6238,1.6222,1.6889,1.7437,1.7755,1.812,1.835,1.8465,1.7939,1.7404,1.6835,1.6129,1.5466,1.4949,1.4484,1.4148,1.3859,1.363,1.3491,1.3491,1.3491,1.3443,1.3443,1.3443,1.3298,1.305,1.2861,1.2619,1.2322,1.2078,1.198,1.198,0.0,0.0,0.0,0.0,0.0,1.7441,1.8856,1.9611,2.0131,2.0558,2.0955,2.113,2.0992,2.1197,2.1275,2.1275,2.0952,2.0539,2.0136,1.9347,1.8724,1.832,1.7532,1.6972,1.6716,1.6046,1.5313,1.4515,1.424,1.3827,0.0,0.0,0.0,0.0,0.0,1.5349,0.0,0.0,0.0,1.8797,2.0008,2.0906,2.1449,2.1209,2.1282,2.1495,2.1641,2.1651,2.1588,2.1443,2.1353,2.1245,2.0914,2.0734,2.0603,2.0095,1.9662,1.9219,1.8539,1.7664,1.6758,1.5913,1.4907,1.396,1.3514,1.324,1.3071,1.3061,1.3241,1.332,1.3019,1.2767,1.2489,1.2146,1.152,1.1121,0.0,1.1086,1.1403,1.2407,1.3587,1.4614,1.5412,1.5715,1.5952,1.619,1.6651,1.7167,1.7783,1.8105,1.8417,1.8689,1.8373,1.804,1.7699,1.7084,1.6567,1.6055,1.5534,1.5064,1.4694,1.4256,1.3919,1.3738,1.3588,1.3491,1.3491,1.3491,1.3443,1.3346,1.3298,1.3201,1.3055,1.2273,1.198,1.198,1.8056,1.8153,1.7904,1.6965,1.7203,1.7992,1.9317,1.9908,2.0476,2.1174,2.1519,2.1745,2.175,2.1961,2.2062,2.1916,2.1695,2.131,2.0769,2.0237,1.9769,1.9375,1.8715,1.8174,1.777,1.7092,1.6285,1.5359,1.4928,1.4451,0.0,0.0,0.0,0.0,0.0,1.5762,1.6624,1.8091,1.9026,1.9613,2.0677,2.1355,2.1659,2.1385,2.1458,2.1696,2.1696,2.1696,2.1696,2.1696,2.1696,2.1641,2.142,2.1328,2.1238,2.0784,2.0431,2.0091,1.9627,1.8778,1.7904,1.7185,1.6029,1.5009,1.4636,1.4129,1.3764,1.3846,1.3967,1.3974,1.3777,1.3449,1.3096,1.2784,1.1982,1.1375,0.0,1.0997,1.1156,1.1767,1.2851,0.0,1.4797,1.5243,1.5594,1.5825,1.6277,1.6794,1.7374,1.785,1.8271,1.8629,1.8634,1.8512,1.8365,1.7947,1.752,1.7145,1.6534,1.5967,1.5452,1.4879,1.4454,1.4172,1.3919,1.3775,1.3775,1.3775,1.3732,1.3636,1.3636,1.3588,1.3443,1.2759,1.2467,1.237,1.9522,1.9716,1.9335,1.7568,1.7906,1.8761,1.9751,2.0426,2.1131,2.2013,2.2234,2.2437,2.2858,2.2904,2.2748,2.2346,2.2291,2.1997,2.1218,2.1126,2.0943,2.0567,2.0131,1.9719,1.9347,1.8183,1.7367,1.6936,1.5744,1.5139,0.0,0.0,0.0,0.0,1.5331,0.0,1.6991,1.8219,1.9237,2.0049,2.0833,2.1383,2.1696,2.1696,2.1696,2.1696,2.1696,2.1696,2.1696,2.1696,2.1696,2.1696,2.1696,2.1696,2.1651,2.1482,2.1157,2.0806,2.0605,1.993,1.9153,1.8608,1.7523,1.647,1.5947,1.5212,1.4626,1.4641,1.4633,1.4548,1.4327,1.3853,1.3383,1.3192,1.2448,1.1635,1.0829,1.0678,1.0862,1.1467,1.2402,0.0,0.0,1.4648,1.5141,1.5157,1.5793,1.6341,1.6673,1.7382,1.7958,1.8287,1.8629,1.8765,1.8781,1.8612,1.8381,1.8087,1.7419,1.6756,1.619,1.5499,1.4981,1.4736,1.4442,1.4346,1.4298,1.4298,1.416,1.3931,1.3931,1.3738,1.3539,1.3491,1.3346,1.3098,2.0326,2.0642,2.085,2.0852,2.0399,2.0024,2.0101,2.0815,2.1559,2.2161,2.2263,2.2437,2.2858,2.2904,2.2867,2.2757,2.2465,2.219,2.2025,2.1447,2.1062,2.0961,2.0576,2.0182,1.9738,1.9155,1.8348,1.7348,1.6441,1.5698,1.5093,0.0,0.0,0.0,0.0,1.6147,1.7009,1.8513,1.9971,2.1248,2.1449,2.1595,2.1696,2.1696,2.1696,2.1696,2.1696,2.1696,2.1696,2.1696,2.1696,2.1696,2.1696,2.1696,2.1696,2.1651,2.1534,2.1452,2.1239,2.0809,2.0252,1.9791,1.8795,1.7871,1.7623,1.6962,1.6407,1.6484,1.6438,1.6228,1.5838,1.506,1.4287,1.3783,1.2695,1.1737,1.1267,1.1317,1.1605,1.2059,1.2657,1.3168,1.3432,1.4029,1.4498,1.4724,1.5419,1.6079,1.6665,1.7159,1.7683,1.8279,1.839,1.8565,1.8781,1.8735,1.8604,1.8381,1.7994,1.7466,1.6756,1.6197,1.5676,1.5201,1.4975,1.479,1.4592,1.4592,1.4448,1.4208,1.4208,1.416,1.4064,1.363,1.3443,1.3394,2.1397,2.2009,2.2668,2.3146,2.2817,2.2149,2.1221,2.1527,2.212,2.2677,2.2796,2.2968,2.3437,2.3474,2.3409,2.3178,2.295,2.2739,2.2565,2.1952,2.164,2.164,2.122,2.0817,2.0415,1.9879,1.9072,1.8027,1.7055,1.6156,1.5349,0.0,0.0,0.0,0.0,1.6239,1.7284,1.9072,2.0525,2.1696,2.1696,2.1696,0.0,2.1696,2.1696,2.1696,2.1696,2.1696,2.1696,2.1696,2.1696,2.1696,2.1696,2.1696,2.1696,2.1696,2.1696,2.1696,2.1562,2.1309,2.1005,2.0731,1.9913,1.9127,1.9038,1.8493,1.7979,1.8054,1.7948,1.7693,1.7135,1.6226,1.5164,1.4001,1.2882,1.2093,1.1922,1.1991,1.2214,1.262,1.2902,1.3181,1.3403,1.3847,1.4201,1.4492,1.5029,1.5607,1.623,1.6762,1.7358,1.8049,1.8216,1.847,1.8781,1.8781,1.8743,1.8612,1.8373,1.7994,1.7466,1.6951,1.6379,1.5913,1.5683,1.535,1.5016,1.5016,1.4879,1.464,1.4538,1.4394,1.425,1.3968,1.3781,1.369,2.2954,2.3874,2.4678,2.4949,2.5115,2.4699,2.312,2.2833,2.2931,2.3402,2.3566,2.3742,2.4205,2.4202,2.4055,2.3657,2.3526,2.3352,2.3004,2.2593,2.2336,2.2282,2.1952,2.1577,2.12,2.0369,1.9591,1.8871,1.7605,1.6569,1.5762,0.0,0.0,0.0,0.0,0.0,0.0,1.9723,2.0946,2.1696,2.1696,2.1696,2.1696,2.1696,2.1696,2.1696,2.1696,2.1696,2.1696,2.1696,2.1696,2.1696,2.1696,2.1696,2.1696,2.1696,2.1696,2.1696,2.1696,2.1571,2.1437,2.1437,2.0846,2.0272,2.0272,1.9826,1.9454,1.9454,1.9256,1.8905,1.8271,1.721,1.5915,1.4218,1.3345,1.2828,1.2785,1.2857,1.3002,1.3247,1.3287,0.0,1.3716,1.3924,1.4139,1.4338,1.4709,1.5134,1.5718,1.6309,1.7008,1.779,1.8073,1.8422,1.8781,1.8781,1.8781,1.8781,1.8612,1.8381,1.8133,1.7613,1.7145,1.673,1.648,1.6048,1.5622,1.5575,1.5397,1.5124,1.4838,1.4592,1.4394,1.4394,1.4214,1.4027,2.6119,2.6482,2.6642,2.7062,2.7031,2.6843,2.6539,2.5462,2.4641,2.4458,2.4288,2.4208,2.4442,2.4291,2.4174,2.4101,2.3739,2.3471,2.3398,2.3023,2.2638,2.2291,2.2217,2.1989,2.1595,2.079,2.0149,1.9674,1.8155,1.6991,1.6193,1.545,0.0,0.0,0.0,0.0,1.9054,2.0081,2.0946,2.1696,2.1696,2.1696,2.1696,2.1696,2.1696,2.1696,2.1696,2.1696,2.1696,2.1696,2.1696,2.1696,2.1696,2.1696,2.1696,2.1696,2.1696,2.1696,2.1696,2.1651,2.1651,2.1651,2.1418,2.115,2.115,2.0944,2.0695,2.0695,2.0457,1.9957,1.9144,1.7557,1.6071,1.5319,1.495,1.4623,1.4275,1.4405,1.4478,1.4348,1.4192,1.4196,1.4401,1.3979,1.3826,1.4131,1.4641,1.5215,1.5918,1.6158,1.6746,1.7783,1.7878,1.8176,1.8773,1.8781,1.8781,1.8781,1.8781,1.8651,1.8435,1.8087,1.7807,1.7488,1.7239,1.6951,1.6709,1.648,1.5961,1.5296,1.4879,1.479,1.4933,1.4694,1.4742,1.4844,2.7631,2.7777,2.7859,2.8188,2.8388,2.8529,2.8667,2.8322,2.7462,2.5975,2.5624,2.5313,2.4905,2.4764,2.4581,2.422,2.3978,2.3859,2.3859,2.3435,2.3123,2.2922,2.2712,2.241,2.2007,2.1412,2.0708,1.9893,1.8715,1.7605,1.6615,1.601,1.5735,1.5771,0.0,1.7944,0.0,2.0264,2.0946,2.1696,2.1696,2.1696,2.1696,2.1696,2.1696,2.1696,2.1696,2.1696,2.1696,2.1696,2.1696,2.1696,2.1696,2.1696,2.1696,2.1696,2.1696,2.1696,2.1696,2.1696,2.1696,2.1696,2.1607,2.1571,2.1571,2.1463,2.1365,2.1365,2.097,2.0348,1.9236,1.7865,1.6781,1.6436,1.6063,1.5733,1.5565,1.553,1.5528,1.551,0.0,0.0,1.4887,1.4435,1.4175,1.4337,1.4529,1.5032,1.594,1.6042,1.6541,1.7528,1.7727,1.8025,1.8549,1.8686,1.8781,1.8781,1.8781,1.8735,1.8658,1.8504,1.8326,1.8102,1.8001,1.7714,1.7333,1.7052,1.6574,1.6015,1.5629,1.5493,1.5404,1.5159,1.5207,1.5404,2.9041,2.9211,2.9248,2.941,2.9748,3.006,3.0329,3.0634,3.0019,2.7688,2.7191,2.6713,2.5778,2.5503,2.5123,2.4557,2.4405,2.4301,2.4251,2.3898,2.3629,2.3499,2.3197,2.284,2.2419,2.1934,2.122,2.0268,1.932,1.8302,1.7275,1.6789,1.6569,1.6624,1.7834,1.8914,1.9921,2.0438,2.1019,2.1696,2.1696,2.1696,2.1696,2.1696,2.1696,2.1696,2.1696,2.1696,2.1696,2.1696,2.1696,2.1696,2.1696,2.1696,2.1696,2.1696,2.1696,2.1696,2.1696,2.1696,2.1696,2.1696,2.1696,2.1696,2.1696,2.1696,2.1696,2.1696,2.1171,2.035,1.9267,1.8331,1.7704,1.7538,1.7144,1.6847,1.6763,1.6546,1.643,1.6508,0.0,0.0,1.5231,1.496,1.478,1.4772,1.4636,1.5023,1.6076,1.6073,1.649,1.7415,1.7653,1.7954,1.834,1.8573,1.8756,1.8781,1.8781,1.8781,1.8781,1.8781,1.8697,1.8574,1.8574,1.8288,1.7861,1.7567,1.7239,1.6817,1.648,1.6292,1.6109,1.5818,1.5913,1.6109,3.1541,3.1774,3.1703,3.1547,3.1546,3.1634,3.1833,3.1701,3.1014,2.9441,2.8815,2.8186,2.7359,2.6481,2.5779,2.5509,2.51,2.4735,2.4489,2.4442,2.4119,2.3508,2.3453,2.3251,2.2858,2.2089,2.1641,2.1522,2.0008,1.9008,1.8522,1.7752,1.7385,1.744,1.865,1.9467,1.9939,2.0732,2.1319,2.1696,2.1696,2.1696,2.1696,2.1696,2.1696,2.1696,2.1696,2.1696,2.1696,2.1696,2.1696,2.1696,2.1696,2.1696,2.1696,2.1696,2.1696,2.1696,2.1696,2.1696,2.1696,2.1696,2.1696,2.1696,2.1696,2.1696,2.1696,2.1696,2.0953,2.0111,1.9619,1.9003,1.8559,1.8559,1.8532,1.8342,1.7972,1.7594,1.7261,1.698,1.6304,0.0,1.5411,1.5404,1.5395,1.5319,1.5209,1.5536,1.6501,1.6387,1.6735,1.7828,1.7717,1.793,1.8572,1.8425,1.851,1.8781,1.8781,1.8781,1.8781,1.8781,1.8781,1.8781,1.8781,1.8651,1.8388,1.8141,1.7854,1.7535,1.7091,1.7044,1.7138,1.6951,1.6998,1.7192,3.2265,3.2347,3.2217,3.1849,3.2151,3.2501,3.2552,3.2753,3.2643,3.1894,3.0738,2.9617,2.8676,2.8076,2.752,2.7,2.6378,2.5926,2.5639,2.5222,2.4816,2.4354,2.4198,2.3906,2.3509,2.3035,2.2419,2.1696,2.0824,2.0063,1.939,1.8852,1.8715,1.8981,1.9417,2.0035,2.0659,2.097,2.1346,2.1696,2.1696,2.1696,2.1696,2.1696,2.1696,2.1696,2.1696,2.1696,2.1696,2.1696,2.1696,2.1696,2.1696,2.1696,2.1696,2.1696,2.1696,2.1696,2.1696,2.1696,2.1696,2.1696,2.1696,2.1696,2.1696,2.1696,2.1623,2.141,2.0647,1.9921,1.9502,1.9212,1.9073,1.9073,1.9073,1.9018,1.8855,1.8256,1.7804,1.7678,1.6771,1.6115,1.596,1.5975,1.5933,1.5767,1.5509,1.579,1.6737,1.6607,1.6824,1.759,1.7737,1.8006,1.8556,1.8511,1.8659,1.905,1.8874,1.8781,1.8781,1.8781,1.8781,1.8781,1.8781,1.8735,1.8651,1.855,1.8373,1.8148,1.7807,1.7707,1.7753,1.7527,1.7567,1.78,3.3054,3.3042,3.2959,3.2539,3.2926,3.3256,3.3256,3.3583,3.3729,3.358,3.2432,3.1221,3.0113,2.9608,2.9145,2.8623,2.7962,2.7399,2.6883,2.63,2.5742,2.5274,2.4932,2.4604,2.4312,2.394,2.3315,2.2455,2.1834,2.1222,2.0666,2.0038,1.9896,2.0067,2.0186,2.0585,2.1117,2.1236,2.1421,2.1696,2.1696,2.1696,2.1696,2.1696,2.1696,2.1696,2.1696,2.1696,2.1696,2.1696,2.1696,2.1696,2.1696,2.1696,2.1696,2.1696,2.1696,2.1696,2.1696,2.1696,2.1696,2.1696,2.1696,2.1696,2.1696,2.1696,2.154,2.1044,2.0451,1.9943,1.9402,1.9301,1.9301,1.9301,1.9301,1.9301,1.9301,1.8623,1.8091,1.8091,1.7121,1.645,1.6297,1.6422,1.6373,1.6111,1.6012,1.6315,1.7026,1.7021,1.7178,1.77,1.7804,1.8087,1.8603,1.8562,1.8832,1.9288,1.9058,1.892,1.892,1.8827,1.8781,1.8781,1.8781,1.8781,1.8781,1.8781,1.8697,1.8566,1.8365,1.8319,1.8272,1.8094,1.8133,1.8319,3.4314,3.4372,3.4323,3.4101,3.4064,3.4064,3.4064,3.4075,3.4075,3.4075,3.3805,3.3085,3.1721,3.0979,3.0436,3.0123,2.9707,2.9031,2.8032,2.7737,2.7153,2.611,2.5577,2.5284,2.5274,2.463,2.4268,2.4259,2.3066,2.2495,2.2467,2.1367,2.0722,2.053,2.0924,2.1099,2.1135,2.1504,2.1687,2.1696,2.1696,2.1696,2.1696,2.1696,2.1696,2.1696,2.1696,2.1696,2.1696,2.1696,2.1696,2.1696,2.1696,2.1696,2.1696,2.1696,2.1696,2.1696,2.1696,2.1696,2.1696,2.1696,2.1696,2.1696,2.1696,2.1696,2.1467,2.0653,2.0521,2.0264,1.9448,1.9301,1.9301,1.9301,1.9301,1.9301,1.9301,1.8623,1.8091,1.8091,1.7403,1.6743,1.6358,1.667,1.6734,1.6315,1.6845,1.7278,1.7466,1.7663,1.7961,1.8385,1.7951,1.8061,1.8783,1.8611,1.8853,1.9587,1.9333,1.9188,1.9188,1.892,1.8781,1.8781,1.8781,1.8781,1.8781,1.8781,1.8781,1.8781,1.8781,1.8781,1.8781,1.8781,1.8781,1.8781,3.5518,3.5491,3.5402,3.5149,3.4955,3.4831,3.4831,3.4523,3.4298,3.4298,3.4101,3.3767,3.3358,3.2748,3.2247,3.1945,3.1401,3.0751,3.0065,2.9486,2.8788,2.7938,2.7396,2.6972,2.662,2.5914,2.5409,2.5096,2.4565,2.3895,2.3191,2.2824,2.2362,2.1783,2.1792,2.1759,2.1769,2.1721,2.1696,2.1696,2.1696,2.1696,2.1696,2.1696,2.1696,2.1696,2.1696,2.1696,2.1696,2.1696,2.1696,2.1696,2.1696,2.1696,2.1696,2.1696,2.1696,2.1696,2.1696,2.1696,2.1696,2.1696,2.1696,2.1696,2.1696,2.1476,2.1236,2.097,2.0451,1.9994,1.9778,1.9494,1.9301,1.9301,1.9301,1.9301,1.9301,1.8623,1.8091,1.8091,1.7403,1.6862,1.6734,1.7073,1.7257,1.7128,1.7798,1.8078,1.7699,1.8172,1.8585,1.8991,1.9123,1.9382,1.9687,1.9451,1.9476,1.9799,1.9579,1.9387,1.9188,1.9096,1.8958,1.8781,1.8781,1.8781,1.8781,1.8781,1.8781,1.8781,1.8781,1.8781,1.8781,1.8781,1.8781,1.8781,3.6195,3.6144,3.6093,3.5939,3.5768,3.5654,3.5654,3.5212,3.4878,3.4878,3.4564,3.4359,3.4359,3.4052,3.3595,3.3158,3.2773,3.2214,3.1478,3.091,3.0269,2.944,2.8774,2.8252,2.792,2.7181,2.6707,2.6421,2.6023,2.5348,2.4431,2.425,2.3832,2.3345,2.2843,2.2643,2.2589,2.2152,2.1954,2.1954,2.1954,2.1909,2.1874,2.1874,2.1785,2.1696,2.1696,2.1696,2.1696,2.1696,2.1696,2.1696,2.1696,2.1696,2.1696,2.1696,2.1696,2.1696,2.1696,2.1696,2.1696,2.1696,2.1696,2.1696,2.1696,2.1485,2.1291,2.1135,2.0714,2.0241,1.9948,1.9674,1.9485,1.9329,1.9301,1.9301,1.9301,1.8751,1.8348,1.8348,1.7761,1.7358,1.7358,1.7587,1.7734,1.7734,1.8339,1.8528,1.8159,1.8698,1.9164,1.9415,1.9724,1.9988,2.0272,2.0079,2.0093,2.0201,1.9853,1.9525,1.9188,1.9188,1.905,1.8781,1.8781,1.8781,1.8781,1.8781,1.8781,1.8781,1.8781,1.8781,1.8781,1.8781,1.8781,1.8781,3.6519,3.6519,3.6519,3.6519,3.6483,3.6459,3.6459,3.6014,3.5677,3.5677,3.5208,3.4835,3.4835,3.4799,3.4543,3.3828,3.3729,3.3273,3.2226,3.2006,3.1535,3.0763,2.9805,2.9293,2.9271,2.8511,2.8113,2.8045,2.7412,2.6774,2.6132,2.5589,2.526,2.4945,2.4059,2.3667,2.3593,2.2875,2.2571,2.2571,2.2571,2.2403,2.2234,2.2225,2.2047,2.1823,2.1778,2.176,2.1777,2.1777,2.1759,2.1731,2.1731,2.1741,2.1741,2.1696,2.1696,2.1696,2.1696,2.1696,2.1696,2.1696,2.1696,2.1696,2.1696,2.1696,2.1577,2.1236,2.1126,2.0879,2.0104,1.9948,1.9802,1.9448,1.9366,1.9347,1.9347,1.8981,1.8715,1.8715,1.8329,1.8091,1.8091,1.8118,1.8127,1.8127,1.8559,1.8797,1.8797,1.9357,1.9692,1.9665,1.9913,2.0187,2.057,2.057,2.0616,2.0699,2.0201,1.97,1.9234,1.9234,1.9096,1.8827,1.8827,1.8827,1.8781,1.8781,1.8781,1.8781,1.8781,1.8781,1.8781,1.8781,1.8781,1.8781,3.7613,3.7613,3.7613,3.7613,3.7276,3.7,3.7,3.6555,3.6218,3.6218,3.5761,3.5425,3.5425,3.5076,3.464,3.4249,3.4113,3.372,3.3059,3.2998,3.2659,3.2085,3.1608,3.1225,3.0866,2.9935,2.9153,2.8538,2.844,2.7999,2.7286,2.715,2.6686,2.5944,2.5571,2.5169,2.4806,2.4469,2.4212,2.3994,2.3994,2.3857,2.3582,2.3388,2.3148,2.2871,2.2704,2.2557,2.2462,2.2462,2.2339,2.222,2.2052,2.2008,2.1963,2.1785,2.1696,2.1696,2.1696,2.1696,2.1696,2.1696,2.1696,2.1696,2.1696,2.1696,2.1668,2.1568,2.1328,2.1044,2.086,2.0543,2.0347,2.0246,1.998,1.9747,1.9747,1.9164,1.8715,1.8715,1.8329,1.8091,1.8091,1.8394,1.8577,1.8577,1.9237,1.96,1.96,2.0351,2.0601,2.03,2.0941,2.1237,2.1212,2.1212,2.1025,2.0699,2.0564,2.0246,1.9745,1.9745,1.9509,1.9104,1.9104,1.9012,1.8781,1.8781,1.8781,1.8781,1.8781,1.8781,1.8781,1.8781,1.8781,1.8781,3.7986,3.7986,3.7986,3.7986,3.7745,3.7553,3.7553,3.7108,3.6771,3.6771,3.6302,3.5881,3.5641,3.5364,3.4941,3.4457,3.4298,3.4014,3.353,3.3481,3.3304,3.2868,3.2468,3.2168,3.1917,3.1176,3.042,2.9728,2.9693,2.9298,2.8719,2.8433,2.8063,2.753,2.6918,2.6459,2.6165,2.565,2.5305,2.5178,2.5178,2.494,2.4552,2.4312,2.3988,2.3626,2.3355,2.3215,2.3157,2.3295,2.329,2.3145,2.3064,2.3009,2.2936,2.2468,2.2102,2.1874,2.1874,2.1874,2.1874,2.1874,2.1874,2.1874,2.1874,2.1874,2.183,2.1741,2.1513,2.1337,2.1145,2.0934,2.0723,2.0549,2.0149,1.9948,2.0131,1.9494,1.9118,1.9494,1.9191,1.8987,1.9161,1.9372,1.954,1.954,1.9952,2.0159,2.0159,2.0778,2.1007,2.0796,2.1357,2.1651,2.1526,2.1437,2.1257,2.1024,2.0789,2.0473,2.0065,1.9973,1.97,1.9387,1.9387,1.9296,1.9166,1.9012,1.8966,1.8958,1.8827,1.8781,1.8781,1.8781,1.8781,1.8781,3.7986,3.7986,3.7986,3.7986,3.7986,3.7986,3.7986,3.7601,3.7312,3.7312,3.6855,3.635,3.5905,3.5713,3.5337,3.4637,3.453,3.4249,3.3779,3.3729,3.358,3.3381,3.2894,3.2604,3.2604,3.2121,3.1628,3.1123,3.0797,3.0443,3.0045,2.9541,2.9266,2.9163,2.8147,2.7688,2.7575,2.6725,2.634,2.6285,2.6285,2.6001,2.5523,2.5283,2.4878,2.4433,2.4143,2.4058,2.4047,2.4289,2.439,2.4378,2.4285,2.4285,2.4171,2.353,2.2948,2.2482,2.2248,2.223,2.223,2.223,2.223,2.223,2.223,2.2185,2.2052,2.183,2.1741,2.1586,2.1273,2.12,2.1099,2.0759,2.0323,2.0186,2.0558,1.9962,1.9742,2.0438,2.0186,2.0104,2.0484,2.0521,2.0521,2.0521,2.0576,2.0613,2.0613,2.0979,2.12,2.12,2.1504,2.1696,2.1696,2.1517,2.1437,2.1392,2.1024,2.0654,2.0374,2.0155,1.9891,1.9716,1.9671,1.9633,1.9587,1.9333,1.9234,1.9242,1.9012,1.892,1.8874,1.8874,1.8827,1.8781,3.7986,3.7986,3.7986,3.7986,3.7986,3.7986,3.7986,3.7914,3.7853,3.7853,3.7397,3.7036,3.6952,3.6146,3.5531,3.5397,3.499,3.4543,3.4075,3.3828,3.3679,3.363,3.335,3.3166,3.3166,3.265,3.2144,3.1698,3.1168,3.088,3.0835,3.0297,2.9954,2.9748,2.9372,2.896,2.8544,2.82,2.7889,2.7692,2.7692,2.7504,2.7176,2.6929,2.6561,2.6094,2.5796,2.5645,2.5495,2.5541,2.5589,2.5624,2.5148,2.5047,2.4991,2.4703,2.4501,2.4107,2.3022,2.2715,2.2715,2.2715,2.2715,2.2715,2.2715,2.253,2.2309,2.2097,2.1874,2.1668,2.1604,2.1595,2.1577,2.1513,2.12,2.0943,2.1007,2.0622,2.0374,2.0503,2.0424,2.0448,2.047,2.0521,2.0521,2.0521,2.0824,2.1016,2.1016,2.141,2.1595,2.1595,2.1659,2.1696,2.1696,2.1651,2.1571,2.1392,2.1347,2.1159,2.0862,2.069,2.0428,2.0164,1.9928,1.9762,1.9587,1.9541,1.9541,1.9533,1.9496,1.9342,1.9142,1.9142,1.9004,1.8781,3.7986,3.7986,3.7986,3.7986,3.7986,3.7986,3.7986,3.7986,3.7986,3.7986,3.7769,3.7505,3.7228,3.6759,3.6242,3.5665,3.5388,3.5038,3.4518,3.4211,3.4014,3.3927,3.3779,3.3679,3.353,3.3287,3.2808,3.2204,3.1926,3.1536,3.1008,3.0767,3.0411,3.0057,2.9669,2.9393,2.9163,2.8757,2.8524,2.842,2.842,2.829,2.8019,2.7715,2.7431,2.7061,2.6812,2.6717,2.6795,2.6946,2.7112,2.7232,2.6991,2.6934,2.6836,2.6356,2.564,2.4815,2.3941,2.3734,2.3734,2.3734,2.3647,2.357,2.357,2.3266,2.2882,2.2539,2.2264,2.2043,2.1919,2.1919,2.1874,2.1741,2.1383,2.119,2.1376,2.0915,2.0644,2.1074,2.0979,2.0924,2.111,2.1129,2.1129,2.1129,2.1302,2.1403,2.1403,2.1586,2.1696,2.1696,2.1696,2.1696,2.1696,2.1696,2.1651,2.1562,2.1437,2.1347,2.1195,2.0961,2.0781,2.069,2.0555,2.0374,2.0164,2.0027,1.9891,1.9762,1.9633,1.9533,1.9433,1.9433,1.935,1.9212,3.7986,3.7986,3.7986,3.7986,3.7986,3.7986,3.7986,3.7986,3.7986,3.7986,3.7986,3.7829,3.7421,3.7264,3.6867,3.605,3.5761,3.5449,3.4991,3.47,3.4396,3.4162,3.4125,3.4026,3.3779,3.3779,3.347,3.2868,3.2741,3.2291,3.154,3.1331,3.1055,3.0606,3.0033,2.9757,2.9734,2.9172,2.8978,2.8978,2.8978,2.885,2.8617,2.842,2.8139,2.7867,2.7668,2.7694,2.793,2.8128,2.8373,2.8617,2.8581,2.8628,2.8541,2.7977,2.7085,2.6072,2.5154,2.4911,2.489,2.4786,2.4627,2.4498,2.4498,2.4122,2.3667,2.3232,2.2872,2.2574,2.2318,2.2274,2.2141,2.183,2.1509,2.1408,2.165,2.1156,2.0991,2.1623,2.1447,2.1383,2.1659,2.1696,2.1696,2.1696,2.1696,2.1696,2.1696,2.1696,2.1696,2.1696,2.1696,2.1696,2.1696,2.1696,2.1696,2.1696,2.1517,2.1482,2.1482,2.1195,2.1096,2.1096,2.1042,2.0907,2.0736,2.0555,2.0337,2.0155,1.9936,1.9808,1.9762,1.9671,1.9633,1.9587,3.7986,3.7986,3.7986,3.7986,3.7986,3.7986,3.7986,3.7986,3.7986,3.7986,3.7986,3.7962,3.7926,3.7481,3.7168,3.7084,3.6182,3.5605,3.5557,3.5051,3.4628,3.4384,3.4211,3.4075,3.4075,3.4075,3.4052,3.3967,3.3451,3.3217,3.3087,3.2369,3.1994,3.1925,3.0935,3.0497,3.0463,2.9722,2.9439,2.9439,2.9439,2.9439,2.9439,2.9393,2.9117,2.871,2.871,2.8699,2.8699,2.8746,2.9024,2.9393,2.9128,2.922,2.9382,2.9349,2.9409,2.8994,2.678,2.6185,2.6034,2.5561,2.5411,2.5401,2.5401,2.5052,2.4584,2.4155,2.3744,2.3276,2.2847,2.2759,2.2583,2.2141,2.2069,2.1971,2.1731,2.1641,2.1623,2.1687,2.1668,2.1659,2.1687,2.1696,2.1696,2.1696,2.1696,2.1696,2.1696,2.1696,2.1696,2.1696,2.1696,2.1696,2.1696,2.1696,2.1696,2.1696,2.1696,2.1696,2.1651,2.1482,2.1347,2.1347,2.1096,2.0997,2.0997,2.0952,2.0952,2.0907,2.069,2.0473,2.0201,1.9973,1.9754,1.9587,3.7986,3.7986,3.7986,3.7986,3.7986,3.7986,3.7986,3.7986,3.7986,3.7986,3.7986,3.7986,3.7986,3.7805,3.7553,3.7228,3.6819,3.6459,3.6134,3.5605,3.5123,3.4652,3.4592,3.4445,3.4298,3.4298,3.4211,3.4125,3.3913,3.3642,3.3301,3.3005,3.2556,3.2099,3.1595,3.123,3.1077,3.0636,3.0451,3.0382,3.0137,3.0014,2.998,2.9609,2.9393,2.9209,2.9209,2.9359,2.9462,2.9462,2.9772,3.017,3.008,3.0227,3.042,3.042,3.0461,3.0293,2.9068,2.8157,2.7507,2.7284,2.6877,2.6528,2.6415,2.5988,2.5558,2.5105,2.4775,2.4433,2.395,2.3734,2.3484,2.2828,2.2627,2.2451,2.2176,2.2043,2.1963,2.1963,2.1785,2.1696,2.1696,2.1696,2.1696,2.1696,2.1696,2.1696,2.1696,2.1696,2.1696,2.1696,2.1696,2.1696,2.1696,2.1696,2.1696,2.1696,2.1696,2.1696,2.1696,2.1607,2.1616,2.1562,2.1463,2.1374,2.1248,2.1248,2.1141,2.0997,2.0916,2.0826,2.0736,2.0645,2.051,2.0464,3.7986,3.7986,3.7986,3.7986,3.7986,3.7986,3.7986,3.7986,3.7986,3.7986,3.7986,3.7986,3.7986,3.7986,3.7829,3.7469,3.7288,3.7036,3.6675,3.6158,3.5557,3.4811,3.4775,3.4726,3.4531,3.4531,3.4445,3.431,3.431,3.412,3.3741,3.3693,3.336,3.2827,3.2436,3.2187,3.1984,3.1609,3.1481,3.1458,3.1128,3.1003,3.0957,3.0511,3.0168,2.9952,2.9859,2.9861,2.9886,2.9886,3.0193,3.0623,3.0623,3.0814,3.1107,3.1196,3.1241,3.1158,3.0778,2.9902,2.9021,2.8537,2.8063,2.7608,2.7295,2.6921,2.6487,2.6041,2.5737,2.5443,2.4925,2.4712,2.438,2.3647,2.3353,2.3135,2.2794,2.2485,2.2318,2.2318,2.2087,2.1909,2.183,2.183,2.1776,2.1696,2.1696,2.1696,2.1696,2.1696,2.1696,2.1696,2.1696,2.1696,2.1696,2.1696,2.1696,2.1696,2.1696,2.1696,2.1696,2.1696,2.1696,2.1696,2.1696,2.1607,2.1482,2.1482,2.1374,2.1221,2.1141,2.1141,2.1141,2.1042,2.0997,2.0997,3.7986,3.7986,3.7986,3.7986,3.7986,3.7986,3.7986,3.7986,3.7986,3.7986,3.7986,3.7986,3.7986,3.7986,3.7986,3.7986,3.7505,3.7192,3.7192,3.6699,3.5942,3.4835,3.4787,3.4787,3.4775,3.4775,3.4775,3.4775,3.4775,3.4775,3.4775,3.4531,3.4384,3.436,3.3645,3.3312,3.3277,3.2712,3.25,3.25,3.25,3.25,3.2489,3.2206,3.1657,3.0973,3.0694,3.0294,2.9897,2.9897,3.0239,3.0623,3.0623,3.0937,3.135,3.1617,3.1705,3.1705,3.1705,3.132,3.0541,2.9094,2.8698,2.8557,2.801,2.7708,2.74,2.6974,2.6704,2.6321,2.5653,2.5485,2.5274,2.4627,2.4327,2.4036,2.359,2.311,2.2794,2.2794,2.2574,2.2309,2.2141,2.2097,2.2008,2.1741,2.1696,2.1696,2.1696,2.1696,2.1696,2.1696,2.1696,2.1696,2.1696,2.1696,2.1696,2.1696,2.1696,2.1696,2.1696,2.1696,2.1696,2.1696,2.1696,2.1696,2.1696,2.1696,2.1696,2.1696,2.1482,2.1392,2.1347,2.1096,2.0997,2.0997,3.7986,3.7986,3.7986,3.7986,3.7986,3.7986,3.7986,3.7986,3.7986,3.7986,3.7986,3.7986,3.7986,3.7986,3.7986,3.7986,3.7841,3.7589,3.7216,3.7048,3.6651,3.5966,3.5581,3.5208,3.4787,3.4775,3.4775,3.4775,3.4775,3.4775,3.4775,3.4726,3.458,3.4372,3.4169,3.4012,3.3866,3.3664,3.3593,3.357,3.323,3.3077,3.2982,3.2535,3.2242,3.202,3.1973,3.16,3.1169,3.1169,3.1107,3.1116,3.1294,3.1484,3.1617,3.1661,3.1705,3.1705,3.1705,3.1585,3.1264,3.045,2.969,2.9051,2.8733,2.8319,2.7938,2.7679,2.7545,2.7371,2.6981,2.6663,2.629,2.5768,2.5359,2.4978,2.4519,2.4209,2.3864,2.3537,2.3319,2.3013,2.2627,2.2583,2.2485,2.222,2.2176,2.2132,2.2008,2.1963,2.1874,2.1696,2.1696,2.1696,2.1696,2.1696,2.1696,2.1696,2.1696,2.1696,2.1696,2.1696,2.1696,2.1696,2.1696,2.1696,2.1696,2.1696,2.1696,2.1687,2.1651,2.1607,2.1607,2.1508,2.1508,2.1508,3.7986,3.7986,3.7986,3.7986,3.7986,3.7986,3.7986,3.7986,3.7986,3.7986,3.7986,3.7986,3.7986,3.7986,3.7986,3.7986,3.7986,3.7841,3.7529,3.7505,3.7276,3.6735,3.6411,3.5893,3.5111,3.4895,3.4775,3.4775,3.4775,3.4775,3.4775,3.4775,3.4726,3.458,3.458,3.4494,3.4359,3.4359,3.4359,3.4323,3.404,3.3909,3.3873,3.3421,3.3161,3.2984,3.2842,3.2453,3.2018,3.2018,3.1815,3.166,3.1941,3.1886,3.1705,3.1705,3.1705,3.1705,3.1705,3.1705,3.1633,3.1308,3.0555,2.9809,2.9265,2.8877,2.8509,2.8118,2.803,2.795,2.7696,2.7464,2.7126,2.6693,2.6279,2.5915,2.5485,2.5105,2.4807,2.4519,2.4219,2.3874,2.3517,2.3309,2.3057,2.2706,2.2696,2.2574,2.2407,2.2362,2.2264,2.1998,2.1998,2.1998,2.1998,2.1998,2.1865,2.1696,2.183,2.1874,2.1874,2.1954,2.1998,2.1998,2.1998,2.1909,2.1874,2.1874,2.1785,2.1696,2.1696,2.1696,2.1696,2.1696,2.1696,2.1696,3.7986,3.7986,3.7986,3.7986,3.7986,3.7986,3.7986,3.7986,3.7986,3.7986,3.7986,3.7986,3.7986,3.7986,3.7986,3.7986,3.7986,3.7986,3.7986,3.7986,3.7769,3.7288,3.7216,3.6747,3.5773,3.5196,3.4823,3.4775,3.4775,3.4775,3.4775,3.4775,3.4775,3.4775,3.4775,3.4775,3.4775,3.4775,3.4775,3.4775,3.4775,3.4775,3.4775,3.4531,3.4184,3.3768,3.3516,3.3089,3.2641,3.2606,3.2415,3.2253,3.2472,3.219,3.1789,3.1789,3.1753,3.1705,3.1705,3.1705,3.1705,3.1705,3.1344,3.0718,2.9677,2.9364,2.9119,2.8426,2.8243,2.8179,2.8002,2.7933,2.7788,2.7348,2.7126,2.6839,2.6404,2.5946,2.5653,2.5569,2.5232,2.4893,2.4584,2.4122,2.3711,2.3266,2.3222,2.3144,2.2925,2.2925,2.2794,2.253,2.2485,2.2485,2.2476,2.2476,2.222,2.1776,2.2052,2.2141,2.2185,2.2353,2.2476,2.2476,2.2441,2.2309,2.2141,2.2097,2.1919,2.1696,2.1696,2.1696,2.1696,2.1696,2.1696,2.1696,3.7986,3.7986,3.7986,3.7986,3.7986,3.7986,3.7986,3.7986,3.7986,3.7986,3.7986,3.7986,3.7986,3.7986,3.7986,3.7986,3.7986,3.7986,3.7986,3.7986,3.7938,3.7817,3.7409,3.7084,3.6855,3.593,3.5244,3.4775,3.4775,3.4775,3.4775,3.4775,3.4775,3.4775,3.4775,3.4775,3.4775,3.4775,3.4775,3.4775,3.4775,3.4775,3.4775,3.4738,3.4654,3.4558,3.451,3.4126,3.3612,3.3276,3.3107,3.3058,3.3116,3.2755,3.2322,3.2322,3.2054,3.1705,3.1705,3.1705,3.1705,3.1705,3.1621,3.1368,3.0718,2.9893,2.9268,2.9107,2.8718,2.8431,2.8391,2.8231,2.8099,2.8007,2.7829,2.7586,2.7267,2.6981,2.6693,2.6321,2.6071,2.5695,2.5105,2.4627,2.4327,2.4198,2.4198,2.4112,2.3907,2.3907,2.3701,2.3276,2.3276,2.3144,2.2969,2.2969,2.2696,2.2264,2.253,2.2671,2.2671,2.2882,2.2969,2.2916,2.2794,2.2574,2.2309,2.2141,2.1919,2.1696,2.1696,2.1696,2.1696,2.1696,2.1696,2.1696,3.7986,3.7986,3.7986,3.7986,3.7986,3.7986,3.7986,3.7986,3.7986,3.7986,3.7986,3.7986,3.7986,3.7986,3.7986,3.7986,3.7986,3.7986,3.7986,3.7986,3.7986,3.7986,3.7709,3.7457,3.7204,3.6651,3.599,3.5159,3.4907,3.4775,3.4775,3.4775,3.4775,3.4775,3.4775,3.4775,3.4775,3.4775,3.4775,3.4775,3.4775,3.4775,3.4775,3.4775,3.4775,3.4775,3.4775,3.4595,3.4318,3.4114,3.3861,3.3645,3.3645,3.3296,3.2827,3.2575,3.2298,3.2054,3.1789,3.1705,3.1705,3.1705,3.1705,3.1573,3.1043,3.0446,2.9977,2.9725,2.9256,2.8883,2.8883,2.8599,2.8299,2.8219,2.8111,2.795,2.7696,2.7482,2.7267,2.7021,2.6704,2.6249,2.5591,2.5327,2.5062,2.485,2.485,2.4765,2.4551,2.4509,2.4337,2.4003,2.396,2.3907,2.3777,2.3777,2.3637,2.3377,2.3309,2.3353,2.3484,2.3691,2.3777,2.3734,2.3396,2.3057,2.2696,2.2397,2.2043,2.1696,2.1696,2.1696,2.1696,2.1696,2.1696,2.1696,3.7986,3.7986,3.7986,3.7986,3.7986,3.7986,3.7986,3.7986,3.7986,3.7986,3.7986,3.7986,3.7986,3.7986,3.7986,3.7986,3.7986,3.7986,3.7986,3.7986,3.7986,3.7986,3.7986,3.7781,3.7336,3.724,3.6723,3.5749,3.522,3.4968,3.4907,3.4823,3.4775,3.4775,3.4775,3.4775,3.4775,3.4775,3.4775,3.4775,3.4775,3.4775,3.4775,3.4775,3.4775,3.4775,3.4775,3.4775,3.4775,3.4775,3.4486,3.4126,3.4126,3.3825,3.3332,3.2887,3.2635,3.2394,3.1982,3.1789,3.1705,3.1705,3.1705,3.1585,3.1151,3.0983,3.0747,3.0314,2.9797,2.9436,2.9436,2.9003,2.8563,2.843,2.8319,2.8179,2.8042,2.7777,2.7603,2.7563,2.7167,2.6685,2.6104,2.6021,2.5853,2.5454,2.5411,2.5285,2.5115,2.5084,2.4946,2.4712,2.468,2.468,2.4627,2.4627,2.4627,2.4669,2.4305,2.4176,2.4337,2.4541,2.4627,2.4584,2.4133,2.3657,2.3178,2.2696,2.2264,2.182,2.1785,2.1785,2.1785,2.1741,2.1696,2.1696,3.7986,3.7986,3.7986,3.7986,3.7986,3.7986,3.7986,3.7986,3.7986,3.7986,3.7986,3.7986,3.7986,3.7986,3.7986,3.7986,3.7986,3.7986,3.7986,3.7986,3.7986,3.7986,3.7986,3.795,3.7878,3.7433,3.6904,3.629,3.5761,3.5509,3.5497,3.504,3.4775,3.4775,3.4775,3.4775,3.4775,3.4775,3.4775,3.4775,3.4775,3.4775,3.4775,3.4775,3.4775,3.4775,3.4775,3.4775,3.4775,3.4775,3.4727,3.4667,3.4667,3.4306,3.3874,3.3802,3.32,3.2478,3.2406,3.2034,3.1705,3.1705,3.1705,3.1693,3.1621,3.1247,3.0898,3.0826,3.035,2.9977,2.9977,2.9544,2.9196,2.9155,2.8771,2.8431,2.8431,2.8219,2.8059,2.7881,2.7313,2.685,2.6768,2.6603,2.6479,2.6426,2.6188,2.6063,2.6021,2.5853,2.5686,2.5475,2.5433,2.5338,2.5105,2.5105,2.52,2.5433,2.5391,2.5168,2.4818,2.5031,2.5105,2.5062,2.4615,2.4153,2.3667,2.3178,2.274,2.2309,2.2097,2.2052,2.2008,2.1785,2.1696,2.1696,3.7986,3.7986,3.7986,3.7986,3.7986,3.7986,3.7986,3.7986,3.7986,3.7986,3.7986,3.7986,3.7986,3.7986,3.7986,3.7986,3.7986,3.7986,3.7986,3.7986,3.7986,3.7986,3.7986,3.7986,3.7986,3.7757,3.7517,3.7288,3.6459,3.6062,3.605,3.5521,3.5268,3.5256,3.4907,3.4775,3.4775,3.4775,3.4775,3.4775,3.4775,3.4775,3.4775,3.4775,3.4775,3.4775,3.4775,3.4775,3.4775,3.4775,3.4775,3.4775,3.4775,3.4619,3.4378,3.4078,3.367,3.3236,3.2659,3.2322,3.2058,3.1789,3.1705,3.1705,3.1705,3.1524,3.1356,3.1356,3.0946,3.053,3.053,3.0098,2.9737,2.9737,2.9304,2.8955,2.8955,2.853,2.8139,2.7921,2.7505,2.7208,2.7085,2.6891,2.6727,2.6603,2.6479,2.6437,2.6437,2.6354,2.6188,2.5937,2.5948,2.5812,2.5591,2.5591,2.5644,2.578,2.578,2.5644,2.5464,2.5549,2.5591,2.5549,2.5084,2.4605,2.4166,2.3701,2.3222,2.2784,2.2574,2.2407,2.222,2.2008,2.1919,2.1919]}]]